<?xml version="1.0" encoding="UTF-8" standalone="no" ?>
<gpx xmlns="http://www.topografix.com/GPX/1/1" xmlns:xsi="http://www.w3.org/2001/XMLSchema-instance" xsi:schemaLocation="http://www.topografix.com/GPX/1/1 http://www.topografix.com/GPX/1/1/gpx.xsd" version="1.1" creator="VisuGPX - https://www.visugpx.com">
  <metadata>
    <name>Trail des Limaces 2012</name>
    <desc><![CDATA[30kms du Trail des Limaces]]></desc>
  </metadata>
  <trk>
    <name><![CDATA[Trail des Limaces 2012]]></name>
    <trkseg>
      <trkpt lat="43.80557" lon="7.36196">
        <ele>294.78137207031</ele>
        <time>2012-05-26T12:00:44Z</time>
      </trkpt>
      <trkpt lat="43.80557" lon="7.36196">
        <ele>294.78137207031</ele>
        <time>2012-05-26T12:00:45Z</time>
      </trkpt>
      <trkpt lat="43.80557" lon="7.36196">
        <ele>294.78137207031</ele>
        <time>2012-05-26T12:00:46Z</time>
      </trkpt>
      <trkpt lat="43.80557" lon="7.36196">
        <ele>294.78137207031</ele>
        <time>2012-05-26T12:02:47Z</time>
      </trkpt>
      <trkpt lat="43.80556" lon="7.36195">
        <ele>294.78137207031</ele>
        <time>2012-05-26T12:02:56Z</time>
      </trkpt>
      <trkpt lat="43.80529" lon="7.36199">
        <ele>293.82006835938</ele>
        <time>2012-05-26T12:03:05Z</time>
      </trkpt>
      <trkpt lat="43.80498" lon="7.36191">
        <ele>291.8974609375</ele>
        <time>2012-05-26T12:03:13Z</time>
      </trkpt>
      <trkpt lat="43.8048" lon="7.36214">
        <ele>292.37817382812</ele>
        <time>2012-05-26T12:03:18Z</time>
      </trkpt>
      <trkpt lat="43.80485" lon="7.36251">
        <ele>292.85876464844</ele>
        <time>2012-05-26T12:03:26Z</time>
      </trkpt>
      <trkpt lat="43.80494" lon="7.36265">
        <ele>292.37817382812</ele>
        <time>2012-05-26T12:03:30Z</time>
      </trkpt>
      <trkpt lat="43.80516" lon="7.36305">
        <ele>292.85876464844</ele>
        <time>2012-05-26T12:03:40Z</time>
      </trkpt>
      <trkpt lat="43.80531" lon="7.36338">
        <ele>292.85876464844</ele>
        <time>2012-05-26T12:03:48Z</time>
      </trkpt>
      <trkpt lat="43.80558" lon="7.36374">
        <ele>293.33935546875</ele>
        <time>2012-05-26T12:03:58Z</time>
      </trkpt>
      <trkpt lat="43.80566" lon="7.36387">
        <ele>293.33935546875</ele>
        <time>2012-05-26T12:04:01Z</time>
      </trkpt>
      <trkpt lat="43.80569" lon="7.36398">
        <ele>293.82006835938</ele>
        <time>2012-05-26T12:04:04Z</time>
      </trkpt>
      <trkpt lat="43.80561" lon="7.36435">
        <ele>297.18469238281</ele>
        <time>2012-05-26T12:04:14Z</time>
      </trkpt>
      <trkpt lat="43.80552" lon="7.36466">
        <ele>299.10729980469</ele>
        <time>2012-05-26T12:04:22Z</time>
      </trkpt>
      <trkpt lat="43.80535" lon="7.36489">
        <ele>301.51062011719</ele>
        <time>2012-05-26T12:04:32Z</time>
      </trkpt>
      <trkpt lat="43.80514" lon="7.36494">
        <ele>301.99133300781</ele>
        <time>2012-05-26T12:04:38Z</time>
      </trkpt>
      <trkpt lat="43.80497" lon="7.36483">
        <ele>301.51062011719</ele>
        <time>2012-05-26T12:04:44Z</time>
      </trkpt>
      <trkpt lat="43.80483" lon="7.36494">
        <ele>302.95251464844</ele>
        <time>2012-05-26T12:04:48Z</time>
      </trkpt>
      <trkpt lat="43.80476" lon="7.36507">
        <ele>303.91394042969</ele>
        <time>2012-05-26T12:04:53Z</time>
      </trkpt>
      <trkpt lat="43.80437" lon="7.36545">
        <ele>304.87524414062</ele>
        <time>2012-05-26T12:05:06Z</time>
      </trkpt>
      <trkpt lat="43.80425" lon="7.3659">
        <ele>306.31726074219</ele>
        <time>2012-05-26T12:05:16Z</time>
      </trkpt>
      <trkpt lat="43.80412" lon="7.36613">
        <ele>308.23986816406</ele>
        <time>2012-05-26T12:05:24Z</time>
      </trkpt>
      <trkpt lat="43.80399" lon="7.3663">
        <ele>309.201171875</ele>
        <time>2012-05-26T12:05:30Z</time>
      </trkpt>
      <trkpt lat="43.80391" lon="7.3664">
        <ele>310.64306640625</ele>
        <time>2012-05-26T12:05:34Z</time>
      </trkpt>
      <trkpt lat="43.8037" lon="7.36671">
        <ele>312.56579589844</ele>
        <time>2012-05-26T12:05:44Z</time>
      </trkpt>
      <trkpt lat="43.80364" lon="7.3668">
        <ele>313.04650878906</ele>
        <time>2012-05-26T12:05:47Z</time>
      </trkpt>
      <trkpt lat="43.8034" lon="7.36709">
        <ele>314.96911621094</ele>
        <time>2012-05-26T12:06:00Z</time>
      </trkpt>
      <trkpt lat="43.8034" lon="7.36708">
        <ele>315.44982910156</ele>
        <time>2012-05-26T12:06:01Z</time>
      </trkpt>
      <trkpt lat="43.80352" lon="7.36724">
        <ele>317.37243652344</ele>
        <time>2012-05-26T12:06:07Z</time>
      </trkpt>
      <trkpt lat="43.80379" lon="7.36707">
        <ele>320.25634765625</ele>
        <time>2012-05-26T12:06:18Z</time>
      </trkpt>
      <trkpt lat="43.80419" lon="7.36689">
        <ele>324.1015625</ele>
        <time>2012-05-26T12:06:33Z</time>
      </trkpt>
      <trkpt lat="43.80434" lon="7.36681">
        <ele>325.06298828125</ele>
        <time>2012-05-26T12:06:40Z</time>
      </trkpt>
      <trkpt lat="43.80466" lon="7.36668">
        <ele>328.42761230469</ele>
        <time>2012-05-26T12:06:52Z</time>
      </trkpt>
      <trkpt lat="43.80468" lon="7.36667">
        <ele>328.42761230469</ele>
        <time>2012-05-26T12:06:53Z</time>
      </trkpt>
      <trkpt lat="43.80498" lon="7.36654">
        <ele>331.79211425781</ele>
        <time>2012-05-26T12:07:05Z</time>
      </trkpt>
      <trkpt lat="43.80525" lon="7.3663">
        <ele>334.19543457031</ele>
        <time>2012-05-26T12:07:18Z</time>
      </trkpt>
      <trkpt lat="43.80556" lon="7.3662">
        <ele>335.63732910156</ele>
        <time>2012-05-26T12:07:30Z</time>
      </trkpt>
      <trkpt lat="43.80556" lon="7.3662">
        <ele>335.15673828125</ele>
        <time>2012-05-26T12:07:33Z</time>
      </trkpt>
      <trkpt lat="43.80556" lon="7.3662">
        <ele>336.59887695312</ele>
        <time>2012-05-26T12:07:36Z</time>
      </trkpt>
      <trkpt lat="43.80563" lon="7.3663">
        <ele>339.48266601562</ele>
        <time>2012-05-26T12:07:43Z</time>
      </trkpt>
      <trkpt lat="43.80558" lon="7.36641">
        <ele>342.84729003906</ele>
        <time>2012-05-26T12:07:51Z</time>
      </trkpt>
      <trkpt lat="43.80559" lon="7.36639">
        <ele>343.32788085938</ele>
        <time>2012-05-26T12:07:53Z</time>
      </trkpt>
      <trkpt lat="43.80559" lon="7.36639">
        <ele>346.69262695312</ele>
        <time>2012-05-26T12:08:01Z</time>
      </trkpt>
      <trkpt lat="43.80559" lon="7.36639">
        <ele>349.09582519531</ele>
        <time>2012-05-26T12:08:07Z</time>
      </trkpt>
      <trkpt lat="43.80559" lon="7.36639">
        <ele>351.01843261719</ele>
        <time>2012-05-26T12:08:13Z</time>
      </trkpt>
      <trkpt lat="43.80578" lon="7.36669">
        <ele>353.90258789062</ele>
        <time>2012-05-26T12:08:21Z</time>
      </trkpt>
      <trkpt lat="43.80578" lon="7.36669">
        <ele>357.26708984375</ele>
        <time>2012-05-26T12:08:27Z</time>
      </trkpt>
      <trkpt lat="43.80578" lon="7.36669">
        <ele>357.26708984375</ele>
        <time>2012-05-26T12:08:28Z</time>
      </trkpt>
      <trkpt lat="43.80573" lon="7.36672">
        <ele>357.26708984375</ele>
        <time>2012-05-26T12:08:33Z</time>
      </trkpt>
      <trkpt lat="43.8053" lon="7.3664">
        <ele>358.708984375</ele>
        <time>2012-05-26T12:08:37Z</time>
      </trkpt>
      <trkpt lat="43.8053" lon="7.3664">
        <ele>359.18969726562</ele>
        <time>2012-05-26T12:08:38Z</time>
      </trkpt>
      <trkpt lat="43.8053" lon="7.3664">
        <ele>360.15112304688</ele>
        <time>2012-05-26T12:08:41Z</time>
      </trkpt>
      <trkpt lat="43.8057" lon="7.36675">
        <ele>362.55432128906</ele>
        <time>2012-05-26T12:08:44Z</time>
      </trkpt>
      <trkpt lat="43.8057" lon="7.36675">
        <ele>363.51574707031</ele>
        <time>2012-05-26T12:08:47Z</time>
      </trkpt>
      <trkpt lat="43.80577" lon="7.3667">
        <ele>364.47692871094</ele>
        <time>2012-05-26T12:08:50Z</time>
      </trkpt>
      <trkpt lat="43.80577" lon="7.3667">
        <ele>365.43835449219</ele>
        <time>2012-05-26T12:08:55Z</time>
      </trkpt>
      <trkpt lat="43.80577" lon="7.3667">
        <ele>366.88024902344</ele>
        <time>2012-05-26T12:08:57Z</time>
      </trkpt>
      <trkpt lat="43.80577" lon="7.3667">
        <ele>370.7255859375</ele>
        <time>2012-05-26T12:09:06Z</time>
      </trkpt>
      <trkpt lat="43.80577" lon="7.3667">
        <ele>374.09008789062</ele>
        <time>2012-05-26T12:09:15Z</time>
      </trkpt>
      <trkpt lat="43.80577" lon="7.3667">
        <ele>375.53210449219</ele>
        <time>2012-05-26T12:09:21Z</time>
      </trkpt>
      <trkpt lat="43.80577" lon="7.3667">
        <ele>377.93542480469</ele>
        <time>2012-05-26T12:09:28Z</time>
      </trkpt>
      <trkpt lat="43.80578" lon="7.36669">
        <ele>380.33874511719</ele>
        <time>2012-05-26T12:09:35Z</time>
      </trkpt>
      <trkpt lat="43.80578" lon="7.36669">
        <ele>381.30004882812</ele>
        <time>2012-05-26T12:09:39Z</time>
      </trkpt>
      <trkpt lat="43.80578" lon="7.36669">
        <ele>382.74206542969</ele>
        <time>2012-05-26T12:09:41Z</time>
      </trkpt>
      <trkpt lat="43.80566" lon="7.36679">
        <ele>386.10668945312</ele>
        <time>2012-05-26T12:09:54Z</time>
      </trkpt>
      <trkpt lat="43.80566" lon="7.36679">
        <ele>387.06799316406</ele>
        <time>2012-05-26T12:09:56Z</time>
      </trkpt>
      <trkpt lat="43.80566" lon="7.36679">
        <ele>388.99060058594</ele>
        <time>2012-05-26T12:10:02Z</time>
      </trkpt>
      <trkpt lat="43.80566" lon="7.36679">
        <ele>390.4326171875</ele>
        <time>2012-05-26T12:10:06Z</time>
      </trkpt>
      <trkpt lat="43.80566" lon="7.36679">
        <ele>393.79724121094</ele>
        <time>2012-05-26T12:10:17Z</time>
      </trkpt>
      <trkpt lat="43.80566" lon="7.36679">
        <ele>397.16174316406</ele>
        <time>2012-05-26T12:10:27Z</time>
      </trkpt>
      <trkpt lat="43.80566" lon="7.36679">
        <ele>398.60375976562</ele>
        <time>2012-05-26T12:10:31Z</time>
      </trkpt>
      <trkpt lat="43.80566" lon="7.36679">
        <ele>401.48779296875</ele>
        <time>2012-05-26T12:10:41Z</time>
      </trkpt>
      <trkpt lat="43.80566" lon="7.36679">
        <ele>402.44909667969</ele>
        <time>2012-05-26T12:10:43Z</time>
      </trkpt>
      <trkpt lat="43.80591" lon="7.36795">
        <ele>402.9296875</ele>
        <time>2012-05-26T12:10:47Z</time>
      </trkpt>
      <trkpt lat="43.80594" lon="7.36794">
        <ele>403.89111328125</ele>
        <time>2012-05-26T12:10:49Z</time>
      </trkpt>
      <trkpt lat="43.80594" lon="7.36794">
        <ele>405.81372070312</ele>
        <time>2012-05-26T12:10:53Z</time>
      </trkpt>
      <trkpt lat="43.80594" lon="7.36794">
        <ele>406.77490234375</ele>
        <time>2012-05-26T12:10:55Z</time>
      </trkpt>
      <trkpt lat="43.80594" lon="7.36794">
        <ele>410.1396484375</ele>
        <time>2012-05-26T12:11:04Z</time>
      </trkpt>
      <trkpt lat="43.80594" lon="7.36794">
        <ele>411.10095214844</ele>
        <time>2012-05-26T12:11:07Z</time>
      </trkpt>
      <trkpt lat="43.80605" lon="7.3679">
        <ele>412.06225585938</ele>
        <time>2012-05-26T12:11:12Z</time>
      </trkpt>
      <trkpt lat="43.80623" lon="7.36783">
        <ele>412.54284667969</ele>
        <time>2012-05-26T12:11:20Z</time>
      </trkpt>
      <trkpt lat="43.80632" lon="7.36778">
        <ele>413.50427246094</ele>
        <time>2012-05-26T12:11:25Z</time>
      </trkpt>
      <trkpt lat="43.80659" lon="7.36762">
        <ele>414.46545410156</ele>
        <time>2012-05-26T12:11:34Z</time>
      </trkpt>
      <trkpt lat="43.80678" lon="7.36745">
        <ele>414.94616699219</ele>
        <time>2012-05-26T12:11:43Z</time>
      </trkpt>
      <trkpt lat="43.80691" lon="7.36724">
        <ele>414.94616699219</ele>
        <time>2012-05-26T12:11:50Z</time>
      </trkpt>
      <trkpt lat="43.80718" lon="7.36716">
        <ele>415.42687988281</ele>
        <time>2012-05-26T12:11:58Z</time>
      </trkpt>
      <trkpt lat="43.80733" lon="7.36715">
        <ele>415.90747070312</ele>
        <time>2012-05-26T12:12:03Z</time>
      </trkpt>
      <trkpt lat="43.80758" lon="7.36723">
        <ele>416.86889648438</ele>
        <time>2012-05-26T12:12:11Z</time>
      </trkpt>
      <trkpt lat="43.80766" lon="7.36736">
        <ele>417.83020019531</ele>
        <time>2012-05-26T12:12:16Z</time>
      </trkpt>
      <trkpt lat="43.8077" lon="7.36756">
        <ele>418.31079101562</ele>
        <time>2012-05-26T12:12:21Z</time>
      </trkpt>
      <trkpt lat="43.80787" lon="7.36767">
        <ele>419.27221679688</ele>
        <time>2012-05-26T12:12:28Z</time>
      </trkpt>
      <trkpt lat="43.80825" lon="7.36745">
        <ele>418.31079101562</ele>
        <time>2012-05-26T12:12:38Z</time>
      </trkpt>
      <trkpt lat="43.80842" lon="7.36737">
        <ele>418.79150390625</ele>
        <time>2012-05-26T12:12:43Z</time>
      </trkpt>
      <trkpt lat="43.80846" lon="7.3668">
        <ele>418.79150390625</ele>
        <time>2012-05-26T12:12:55Z</time>
      </trkpt>
      <trkpt lat="43.80844" lon="7.36656">
        <ele>420.71411132812</ele>
        <time>2012-05-26T12:13:01Z</time>
      </trkpt>
      <trkpt lat="43.80847" lon="7.36648">
        <ele>421.19482421875</ele>
        <time>2012-05-26T12:13:03Z</time>
      </trkpt>
      <trkpt lat="43.8086" lon="7.36619">
        <ele>422.15600585938</ele>
        <time>2012-05-26T12:13:12Z</time>
      </trkpt>
      <trkpt lat="43.80878" lon="7.36595">
        <ele>423.11743164062</ele>
        <time>2012-05-26T12:13:20Z</time>
      </trkpt>
      <trkpt lat="43.80881" lon="7.36593">
        <ele>423.11743164062</ele>
        <time>2012-05-26T12:13:21Z</time>
      </trkpt>
      <trkpt lat="43.8089" lon="7.36589">
        <ele>423.59802246094</ele>
        <time>2012-05-26T12:13:24Z</time>
      </trkpt>
      <trkpt lat="43.80901" lon="7.36583">
        <ele>424.55944824219</ele>
        <time>2012-05-26T12:13:28Z</time>
      </trkpt>
      <trkpt lat="43.8091" lon="7.36577">
        <ele>426.00134277344</ele>
        <time>2012-05-26T12:13:32Z</time>
      </trkpt>
      <trkpt lat="43.80935" lon="7.3656">
        <ele>427.443359375</ele>
        <time>2012-05-26T12:13:41Z</time>
      </trkpt>
      <trkpt lat="43.80946" lon="7.36554">
        <ele>427.92395019531</ele>
        <time>2012-05-26T12:13:45Z</time>
      </trkpt>
      <trkpt lat="43.80946" lon="7.36562">
        <ele>429.84655761719</ele>
        <time>2012-05-26T12:13:50Z</time>
      </trkpt>
      <trkpt lat="43.80939" lon="7.36567">
        <ele>431.28857421875</ele>
        <time>2012-05-26T12:13:54Z</time>
      </trkpt>
      <trkpt lat="43.80937" lon="7.36568">
        <ele>431.76916503906</ele>
        <time>2012-05-26T12:13:55Z</time>
      </trkpt>
      <trkpt lat="43.8092" lon="7.36589">
        <ele>435.13391113281</ele>
        <time>2012-05-26T12:14:04Z</time>
      </trkpt>
      <trkpt lat="43.8092" lon="7.36589">
        <ele>435.61450195312</ele>
        <time>2012-05-26T12:14:06Z</time>
      </trkpt>
      <trkpt lat="43.80934" lon="7.36594">
        <ele>438.49853515625</ele>
        <time>2012-05-26T12:14:13Z</time>
      </trkpt>
      <trkpt lat="43.80939" lon="7.36591">
        <ele>439.9404296875</ele>
        <time>2012-05-26T12:14:17Z</time>
      </trkpt>
      <trkpt lat="43.80934" lon="7.36594">
        <ele>441.86315917969</ele>
        <time>2012-05-26T12:14:20Z</time>
      </trkpt>
      <trkpt lat="43.80926" lon="7.36599">
        <ele>442.34387207031</ele>
        <time>2012-05-26T12:14:23Z</time>
      </trkpt>
      <trkpt lat="43.80914" lon="7.3664">
        <ele>443.78576660156</ele>
        <time>2012-05-26T12:14:32Z</time>
      </trkpt>
      <trkpt lat="43.80913" lon="7.36656">
        <ele>445.70837402344</ele>
        <time>2012-05-26T12:14:38Z</time>
      </trkpt>
      <trkpt lat="43.80915" lon="7.36662">
        <ele>448.11181640625</ele>
        <time>2012-05-26T12:14:43Z</time>
      </trkpt>
      <trkpt lat="43.80918" lon="7.36669">
        <ele>450.99560546875</ele>
        <time>2012-05-26T12:14:50Z</time>
      </trkpt>
      <trkpt lat="43.80922" lon="7.36676">
        <ele>454.36022949219</ele>
        <time>2012-05-26T12:15:00Z</time>
      </trkpt>
      <trkpt lat="43.80933" lon="7.36685">
        <ele>457.72497558594</ele>
        <time>2012-05-26T12:15:11Z</time>
      </trkpt>
      <trkpt lat="43.80938" lon="7.36691">
        <ele>458.20556640625</ele>
        <time>2012-05-26T12:15:17Z</time>
      </trkpt>
      <trkpt lat="43.80942" lon="7.36698">
        <ele>459.64758300781</ele>
        <time>2012-05-26T12:15:20Z</time>
      </trkpt>
      <trkpt lat="43.80951" lon="7.36697">
        <ele>460.60876464844</ele>
        <time>2012-05-26T12:15:22Z</time>
      </trkpt>
      <trkpt lat="43.80957" lon="7.36707">
        <ele>462.53137207031</ele>
        <time>2012-05-26T12:15:29Z</time>
      </trkpt>
      <trkpt lat="43.80966" lon="7.36735">
        <ele>464.93481445312</ele>
        <time>2012-05-26T12:15:39Z</time>
      </trkpt>
      <trkpt lat="43.80965" lon="7.36752">
        <ele>466.37670898438</ele>
        <time>2012-05-26T12:15:44Z</time>
      </trkpt>
      <trkpt lat="43.80957" lon="7.36776">
        <ele>468.29931640625</ele>
        <time>2012-05-26T12:15:54Z</time>
      </trkpt>
      <trkpt lat="43.80952" lon="7.36793">
        <ele>470.70263671875</ele>
        <time>2012-05-26T12:16:02Z</time>
      </trkpt>
      <trkpt lat="43.80957" lon="7.36805">
        <ele>472.14465332031</ele>
        <time>2012-05-26T12:16:07Z</time>
      </trkpt>
      <trkpt lat="43.80961" lon="7.36819">
        <ele>475.50927734375</ele>
        <time>2012-05-26T12:16:17Z</time>
      </trkpt>
      <trkpt lat="43.80959" lon="7.36826">
        <ele>476.95129394531</ele>
        <time>2012-05-26T12:16:21Z</time>
      </trkpt>
      <trkpt lat="43.80954" lon="7.36848">
        <ele>480.79663085938</ele>
        <time>2012-05-26T12:16:32Z</time>
      </trkpt>
      <trkpt lat="43.80952" lon="7.36858">
        <ele>482.23852539062</ele>
        <time>2012-05-26T12:16:38Z</time>
      </trkpt>
      <trkpt lat="43.80951" lon="7.3689">
        <ele>486.564453125</ele>
        <time>2012-05-26T12:16:51Z</time>
      </trkpt>
      <trkpt lat="43.80951" lon="7.36898">
        <ele>488.48718261719</ele>
        <time>2012-05-26T12:16:55Z</time>
      </trkpt>
      <trkpt lat="43.80945" lon="7.36912">
        <ele>491.85168457031</ele>
        <time>2012-05-26T12:17:05Z</time>
      </trkpt>
      <trkpt lat="43.80945" lon="7.36912">
        <ele>491.85168457031</ele>
        <time>2012-05-26T12:17:06Z</time>
      </trkpt>
      <trkpt lat="43.80942" lon="7.36918">
        <ele>493.29357910156</ele>
        <time>2012-05-26T12:17:09Z</time>
      </trkpt>
      <trkpt lat="43.80932" lon="7.36932">
        <ele>496.177734375</ele>
        <time>2012-05-26T12:17:17Z</time>
      </trkpt>
      <trkpt lat="43.8093" lon="7.36938">
        <ele>496.177734375</ele>
        <time>2012-05-26T12:17:18Z</time>
      </trkpt>
      <trkpt lat="43.8093" lon="7.36959">
        <ele>499.54223632812</ele>
        <time>2012-05-26T12:17:30Z</time>
      </trkpt>
      <trkpt lat="43.8094" lon="7.36962">
        <ele>502.42614746094</ele>
        <time>2012-05-26T12:17:39Z</time>
      </trkpt>
      <trkpt lat="43.80951" lon="7.36972">
        <ele>506.271484375</ele>
        <time>2012-05-26T12:17:52Z</time>
      </trkpt>
      <trkpt lat="43.80963" lon="7.36991">
        <ele>509.63610839844</ele>
        <time>2012-05-26T12:18:03Z</time>
      </trkpt>
      <trkpt lat="43.80965" lon="7.37002">
        <ele>511.07800292969</ele>
        <time>2012-05-26T12:18:08Z</time>
      </trkpt>
      <trkpt lat="43.80966" lon="7.37046">
        <ele>511.55871582031</ele>
        <time>2012-05-26T12:18:19Z</time>
      </trkpt>
      <trkpt lat="43.80964" lon="7.37054">
        <ele>512.03942871094</ele>
        <time>2012-05-26T12:18:21Z</time>
      </trkpt>
      <trkpt lat="43.8094" lon="7.37074">
        <ele>512.52001953125</ele>
        <time>2012-05-26T12:18:33Z</time>
      </trkpt>
      <trkpt lat="43.80922" lon="7.37092">
        <ele>513.96203613281</ele>
        <time>2012-05-26T12:18:42Z</time>
      </trkpt>
      <trkpt lat="43.80907" lon="7.37101">
        <ele>515.88464355469</ele>
        <time>2012-05-26T12:18:49Z</time>
      </trkpt>
      <trkpt lat="43.80879" lon="7.37118">
        <ele>518.7685546875</ele>
        <time>2012-05-26T12:19:01Z</time>
      </trkpt>
      <trkpt lat="43.80856" lon="7.37129">
        <ele>519.72985839844</ele>
        <time>2012-05-26T12:19:10Z</time>
      </trkpt>
      <trkpt lat="43.80853" lon="7.37131">
        <ele>519.72985839844</ele>
        <time>2012-05-26T12:19:11Z</time>
      </trkpt>
      <trkpt lat="43.80821" lon="7.3715">
        <ele>522.13317871094</ele>
        <time>2012-05-26T12:19:23Z</time>
      </trkpt>
      <trkpt lat="43.80785" lon="7.37175">
        <ele>523.09460449219</ele>
        <time>2012-05-26T12:19:34Z</time>
      </trkpt>
      <trkpt lat="43.80775" lon="7.37185">
        <ele>522.13317871094</ele>
        <time>2012-05-26T12:19:38Z</time>
      </trkpt>
      <trkpt lat="43.80765" lon="7.37203">
        <ele>522.13317871094</ele>
        <time>2012-05-26T12:19:43Z</time>
      </trkpt>
      <trkpt lat="43.80746" lon="7.37258">
        <ele>522.13317871094</ele>
        <time>2012-05-26T12:19:56Z</time>
      </trkpt>
      <trkpt lat="43.80741" lon="7.37274">
        <ele>523.09460449219</ele>
        <time>2012-05-26T12:20:00Z</time>
      </trkpt>
      <trkpt lat="43.80735" lon="7.37288">
        <ele>521.65258789062</ele>
        <time>2012-05-26T12:20:04Z</time>
      </trkpt>
      <trkpt lat="43.80731" lon="7.37291">
        <ele>520.69128417969</ele>
        <time>2012-05-26T12:20:06Z</time>
      </trkpt>
      <trkpt lat="43.80727" lon="7.37296">
        <ele>520.21057128906</ele>
        <time>2012-05-26T12:20:08Z</time>
      </trkpt>
      <trkpt lat="43.80722" lon="7.37307">
        <ele>518.7685546875</ele>
        <time>2012-05-26T12:20:11Z</time>
      </trkpt>
      <trkpt lat="43.80718" lon="7.37311">
        <ele>516.84594726562</ele>
        <time>2012-05-26T12:20:13Z</time>
      </trkpt>
      <trkpt lat="43.80708" lon="7.37321">
        <ele>516.365234375</ele>
        <time>2012-05-26T12:20:16Z</time>
      </trkpt>
      <trkpt lat="43.80694" lon="7.37345">
        <ele>513.00073242188</ele>
        <time>2012-05-26T12:20:21Z</time>
      </trkpt>
      <trkpt lat="43.80675" lon="7.37364">
        <ele>508.19409179688</ele>
        <time>2012-05-26T12:20:27Z</time>
      </trkpt>
      <trkpt lat="43.80671" lon="7.37369">
        <ele>508.19409179688</ele>
        <time>2012-05-26T12:20:28Z</time>
      </trkpt>
      <trkpt lat="43.80668" lon="7.37379">
        <ele>507.23278808594</ele>
        <time>2012-05-26T12:20:30Z</time>
      </trkpt>
      <trkpt lat="43.80666" lon="7.37388">
        <ele>505.79089355469</ele>
        <time>2012-05-26T12:20:32Z</time>
      </trkpt>
      <trkpt lat="43.80659" lon="7.37394">
        <ele>502.90673828125</ele>
        <time>2012-05-26T12:20:35Z</time>
      </trkpt>
      <trkpt lat="43.80656" lon="7.37395">
        <ele>500.98413085938</ele>
        <time>2012-05-26T12:20:36Z</time>
      </trkpt>
      <trkpt lat="43.80645" lon="7.37399">
        <ele>499.54223632812</ele>
        <time>2012-05-26T12:20:39Z</time>
      </trkpt>
      <trkpt lat="43.8064" lon="7.37405">
        <ele>496.177734375</ele>
        <time>2012-05-26T12:20:41Z</time>
      </trkpt>
      <trkpt lat="43.80638" lon="7.37408">
        <ele>496.177734375</ele>
        <time>2012-05-26T12:20:42Z</time>
      </trkpt>
      <trkpt lat="43.80629" lon="7.37415">
        <ele>492.81298828125</ele>
        <time>2012-05-26T12:20:45Z</time>
      </trkpt>
      <trkpt lat="43.80626" lon="7.37417">
        <ele>492.81298828125</ele>
        <time>2012-05-26T12:20:46Z</time>
      </trkpt>
      <trkpt lat="43.8062" lon="7.37421">
        <ele>488.48718261719</ele>
        <time>2012-05-26T12:20:48Z</time>
      </trkpt>
      <trkpt lat="43.80617" lon="7.37424">
        <ele>488.48718261719</ele>
        <time>2012-05-26T12:20:49Z</time>
      </trkpt>
      <trkpt lat="43.80611" lon="7.3743">
        <ele>486.564453125</ele>
        <time>2012-05-26T12:20:51Z</time>
      </trkpt>
      <trkpt lat="43.80603" lon="7.37437">
        <ele>484.1611328125</ele>
        <time>2012-05-26T12:20:53Z</time>
      </trkpt>
      <trkpt lat="43.806" lon="7.37439">
        <ele>482.71923828125</ele>
        <time>2012-05-26T12:20:55Z</time>
      </trkpt>
      <trkpt lat="43.80597" lon="7.37442">
        <ele>480.79663085938</ele>
        <time>2012-05-26T12:20:56Z</time>
      </trkpt>
      <trkpt lat="43.80597" lon="7.37442">
        <ele>478.87390136719</ele>
        <time>2012-05-26T12:20:58Z</time>
      </trkpt>
      <trkpt lat="43.8059" lon="7.3744">
        <ele>477.43188476562</ele>
        <time>2012-05-26T12:21:00Z</time>
      </trkpt>
      <trkpt lat="43.80589" lon="7.37433">
        <ele>476.95129394531</ele>
        <time>2012-05-26T12:21:05Z</time>
      </trkpt>
      <trkpt lat="43.80591" lon="7.37393">
        <ele>477.91247558594</ele>
        <time>2012-05-26T12:21:16Z</time>
      </trkpt>
      <trkpt lat="43.80597" lon="7.37357">
        <ele>480.79663085938</ele>
        <time>2012-05-26T12:21:28Z</time>
      </trkpt>
      <trkpt lat="43.80601" lon="7.37317">
        <ele>482.23852539062</ele>
        <time>2012-05-26T12:21:39Z</time>
      </trkpt>
      <trkpt lat="43.80583" lon="7.37319">
        <ele>480.79663085938</ele>
        <time>2012-05-26T12:21:48Z</time>
      </trkpt>
      <trkpt lat="43.80569" lon="7.37338">
        <ele>479.3544921875</ele>
        <time>2012-05-26T12:21:53Z</time>
      </trkpt>
      <trkpt lat="43.80542" lon="7.37372">
        <ele>476.47058105469</ele>
        <time>2012-05-26T12:22:03Z</time>
      </trkpt>
      <trkpt lat="43.80514" lon="7.37398">
        <ele>474.54797363281</ele>
        <time>2012-05-26T12:22:12Z</time>
      </trkpt>
      <trkpt lat="43.8049" lon="7.3742">
        <ele>472.62536621094</ele>
        <time>2012-05-26T12:22:20Z</time>
      </trkpt>
      <trkpt lat="43.80464" lon="7.37441">
        <ele>471.18334960938</ele>
        <time>2012-05-26T12:22:28Z</time>
      </trkpt>
      <trkpt lat="43.80436" lon="7.3746">
        <ele>469.2607421875</ele>
        <time>2012-05-26T12:22:36Z</time>
      </trkpt>
      <trkpt lat="43.80399" lon="7.37468">
        <ele>467.33813476562</ele>
        <time>2012-05-26T12:22:45Z</time>
      </trkpt>
      <trkpt lat="43.8037" lon="7.37486">
        <ele>465.41552734375</ele>
        <time>2012-05-26T12:22:54Z</time>
      </trkpt>
      <trkpt lat="43.80355" lon="7.37499">
        <ele>464.93481445312</ele>
        <time>2012-05-26T12:22:59Z</time>
      </trkpt>
      <trkpt lat="43.80325" lon="7.37513">
        <ele>463.97338867188</ele>
        <time>2012-05-26T12:23:08Z</time>
      </trkpt>
      <trkpt lat="43.80293" lon="7.37526">
        <ele>466.857421875</ele>
        <time>2012-05-26T12:23:20Z</time>
      </trkpt>
      <trkpt lat="43.80263" lon="7.37535">
        <ele>468.78002929688</ele>
        <time>2012-05-26T12:23:30Z</time>
      </trkpt>
      <trkpt lat="43.80242" lon="7.37537">
        <ele>469.2607421875</ele>
        <time>2012-05-26T12:23:37Z</time>
      </trkpt>
      <trkpt lat="43.80223" lon="7.37537">
        <ele>469.74133300781</ele>
        <time>2012-05-26T12:23:44Z</time>
      </trkpt>
      <trkpt lat="43.80201" lon="7.37521">
        <ele>468.78002929688</ele>
        <time>2012-05-26T12:23:52Z</time>
      </trkpt>
      <trkpt lat="43.80198" lon="7.37511">
        <ele>468.29931640625</ele>
        <time>2012-05-26T12:23:54Z</time>
      </trkpt>
      <trkpt lat="43.80192" lon="7.37487">
        <ele>464.93481445312</ele>
        <time>2012-05-26T12:23:59Z</time>
      </trkpt>
      <trkpt lat="43.8019" lon="7.37478">
        <ele>463.97338867188</ele>
        <time>2012-05-26T12:24:01Z</time>
      </trkpt>
      <trkpt lat="43.80188" lon="7.37455">
        <ele>462.05078125</ele>
        <time>2012-05-26T12:24:05Z</time>
      </trkpt>
      <trkpt lat="43.80186" lon="7.37439">
        <ele>459.16687011719</ele>
        <time>2012-05-26T12:24:08Z</time>
      </trkpt>
      <trkpt lat="43.80184" lon="7.37413">
        <ele>456.28295898438</ele>
        <time>2012-05-26T12:24:14Z</time>
      </trkpt>
      <trkpt lat="43.80175" lon="7.37385">
        <ele>453.87963867188</ele>
        <time>2012-05-26T12:24:19Z</time>
      </trkpt>
      <trkpt lat="43.80167" lon="7.37372">
        <ele>451.95703125</ele>
        <time>2012-05-26T12:24:22Z</time>
      </trkpt>
      <trkpt lat="43.80158" lon="7.37359">
        <ele>449.07299804688</ele>
        <time>2012-05-26T12:24:26Z</time>
      </trkpt>
      <trkpt lat="43.80151" lon="7.37352">
        <ele>447.63098144531</ele>
        <time>2012-05-26T12:24:28Z</time>
      </trkpt>
      <trkpt lat="43.8014" lon="7.37342">
        <ele>445.22766113281</ele>
        <time>2012-05-26T12:24:31Z</time>
      </trkpt>
      <trkpt lat="43.80131" lon="7.37337">
        <ele>443.78576660156</ele>
        <time>2012-05-26T12:24:33Z</time>
      </trkpt>
      <trkpt lat="43.80123" lon="7.37334">
        <ele>442.34387207031</ele>
        <time>2012-05-26T12:24:35Z</time>
      </trkpt>
      <trkpt lat="43.80119" lon="7.37332">
        <ele>441.38244628906</ele>
        <time>2012-05-26T12:24:36Z</time>
      </trkpt>
      <trkpt lat="43.80112" lon="7.37328">
        <ele>439.9404296875</ele>
        <time>2012-05-26T12:24:38Z</time>
      </trkpt>
      <trkpt lat="43.80105" lon="7.37325">
        <ele>438.49853515625</ele>
        <time>2012-05-26T12:24:40Z</time>
      </trkpt>
      <trkpt lat="43.80096" lon="7.37317">
        <ele>435.61450195312</ele>
        <time>2012-05-26T12:24:43Z</time>
      </trkpt>
      <trkpt lat="43.8009" lon="7.37311">
        <ele>434.17260742188</ele>
        <time>2012-05-26T12:24:45Z</time>
      </trkpt>
      <trkpt lat="43.80082" lon="7.37305">
        <ele>432.25</ele>
        <time>2012-05-26T12:24:47Z</time>
      </trkpt>
      <trkpt lat="43.80065" lon="7.37301">
        <ele>428.88537597656</ele>
        <time>2012-05-26T12:24:51Z</time>
      </trkpt>
      <trkpt lat="43.80061" lon="7.37301">
        <ele>428.88537597656</ele>
        <time>2012-05-26T12:24:52Z</time>
      </trkpt>
      <trkpt lat="43.80043" lon="7.37303">
        <ele>425.04016113281</ele>
        <time>2012-05-26T12:24:57Z</time>
      </trkpt>
      <trkpt lat="43.80034" lon="7.37306">
        <ele>423.59802246094</ele>
        <time>2012-05-26T12:24:59Z</time>
      </trkpt>
      <trkpt lat="43.80017" lon="7.37311">
        <ele>421.19482421875</ele>
        <time>2012-05-26T12:25:03Z</time>
      </trkpt>
      <trkpt lat="43.80004" lon="7.37315">
        <ele>419.27221679688</ele>
        <time>2012-05-26T12:25:06Z</time>
      </trkpt>
      <trkpt lat="43.79985" lon="7.37327">
        <ele>415.90747070312</ele>
        <time>2012-05-26T12:25:11Z</time>
      </trkpt>
      <trkpt lat="43.79981" lon="7.37329">
        <ele>415.90747070312</ele>
        <time>2012-05-26T12:25:12Z</time>
      </trkpt>
      <trkpt lat="43.79977" lon="7.37331">
        <ele>414.46545410156</ele>
        <time>2012-05-26T12:25:13Z</time>
      </trkpt>
      <trkpt lat="43.79969" lon="7.37336">
        <ele>413.02355957031</ele>
        <time>2012-05-26T12:25:15Z</time>
      </trkpt>
      <trkpt lat="43.79962" lon="7.37337">
        <ele>411.58166503906</ele>
        <time>2012-05-26T12:25:17Z</time>
      </trkpt>
      <trkpt lat="43.79949" lon="7.37323">
        <ele>408.69763183594</ele>
        <time>2012-05-26T12:25:21Z</time>
      </trkpt>
      <trkpt lat="43.7995" lon="7.37318">
        <ele>408.69763183594</ele>
        <time>2012-05-26T12:25:22Z</time>
      </trkpt>
      <trkpt lat="43.79954" lon="7.37306">
        <ele>406.29431152344</ele>
        <time>2012-05-26T12:25:24Z</time>
      </trkpt>
      <trkpt lat="43.79959" lon="7.37297">
        <ele>405.3330078125</ele>
        <time>2012-05-26T12:25:26Z</time>
      </trkpt>
      <trkpt lat="43.79968" lon="7.3728">
        <ele>401.48779296875</ele>
        <time>2012-05-26T12:25:30Z</time>
      </trkpt>
      <trkpt lat="43.7997" lon="7.37276">
        <ele>401.48779296875</ele>
        <time>2012-05-26T12:25:31Z</time>
      </trkpt>
      <trkpt lat="43.79982" lon="7.37255">
        <ele>399.08435058594</ele>
        <time>2012-05-26T12:25:36Z</time>
      </trkpt>
      <trkpt lat="43.79992" lon="7.37243">
        <ele>396.68115234375</ele>
        <time>2012-05-26T12:25:39Z</time>
      </trkpt>
      <trkpt lat="43.80006" lon="7.37231">
        <ele>395.23913574219</ele>
        <time>2012-05-26T12:25:43Z</time>
      </trkpt>
      <trkpt lat="43.80026" lon="7.37222">
        <ele>392.35534667969</ele>
        <time>2012-05-26T12:25:49Z</time>
      </trkpt>
      <trkpt lat="43.80027" lon="7.37192">
        <ele>391.87451171875</ele>
        <time>2012-05-26T12:25:59Z</time>
      </trkpt>
      <trkpt lat="43.80027" lon="7.37192">
        <ele>391.39379882812</ele>
        <time>2012-05-26T12:26:10Z</time>
      </trkpt>
      <trkpt lat="43.80027" lon="7.37192">
        <ele>391.87451171875</ele>
        <time>2012-05-26T12:26:12Z</time>
      </trkpt>
      <trkpt lat="43.80026" lon="7.37192">
        <ele>391.39379882812</ele>
        <time>2012-05-26T12:26:16Z</time>
      </trkpt>
      <trkpt lat="43.8002" lon="7.37203">
        <ele>391.87451171875</ele>
        <time>2012-05-26T12:26:20Z</time>
      </trkpt>
      <trkpt lat="43.80003" lon="7.37233">
        <ele>395.71984863281</ele>
        <time>2012-05-26T12:26:30Z</time>
      </trkpt>
      <trkpt lat="43.79993" lon="7.37242">
        <ele>397.16174316406</ele>
        <time>2012-05-26T12:26:35Z</time>
      </trkpt>
      <trkpt lat="43.79979" lon="7.37261">
        <ele>399.08435058594</ele>
        <time>2012-05-26T12:26:40Z</time>
      </trkpt>
      <trkpt lat="43.79964" lon="7.37287">
        <ele>402.9296875</ele>
        <time>2012-05-26T12:26:49Z</time>
      </trkpt>
      <trkpt lat="43.79953" lon="7.3731">
        <ele>405.3330078125</ele>
        <time>2012-05-26T12:26:57Z</time>
      </trkpt>
      <trkpt lat="43.79949" lon="7.37323">
        <ele>406.77490234375</ele>
        <time>2012-05-26T12:27:01Z</time>
      </trkpt>
      <trkpt lat="43.79937" lon="7.37333">
        <ele>405.3330078125</ele>
        <time>2012-05-26T12:27:08Z</time>
      </trkpt>
      <trkpt lat="43.7993" lon="7.37336">
        <ele>402.44909667969</ele>
        <time>2012-05-26T12:27:11Z</time>
      </trkpt>
      <trkpt lat="43.79918" lon="7.37339">
        <ele>400.0458984375</ele>
        <time>2012-05-26T12:27:15Z</time>
      </trkpt>
      <trkpt lat="43.79905" lon="7.37343">
        <ele>396.20056152344</ele>
        <time>2012-05-26T12:27:19Z</time>
      </trkpt>
      <trkpt lat="43.79901" lon="7.37343">
        <ele>396.20056152344</ele>
        <time>2012-05-26T12:27:20Z</time>
      </trkpt>
      <trkpt lat="43.79893" lon="7.37345">
        <ele>394.75854492188</ele>
        <time>2012-05-26T12:27:23Z</time>
      </trkpt>
      <trkpt lat="43.79877" lon="7.37352">
        <ele>392.8359375</ele>
        <time>2012-05-26T12:27:27Z</time>
      </trkpt>
      <trkpt lat="43.79873" lon="7.37351">
        <ele>391.39379882812</ele>
        <time>2012-05-26T12:27:29Z</time>
      </trkpt>
      <trkpt lat="43.79868" lon="7.3735">
        <ele>389.47119140625</ele>
        <time>2012-05-26T12:27:31Z</time>
      </trkpt>
      <trkpt lat="43.79861" lon="7.37351">
        <ele>386.58740234375</ele>
        <time>2012-05-26T12:27:33Z</time>
      </trkpt>
      <trkpt lat="43.79858" lon="7.3735">
        <ele>386.58740234375</ele>
        <time>2012-05-26T12:27:34Z</time>
      </trkpt>
      <trkpt lat="43.79851" lon="7.37345">
        <ele>382.74206542969</ele>
        <time>2012-05-26T12:27:37Z</time>
      </trkpt>
      <trkpt lat="43.79841" lon="7.37347">
        <ele>380.81945800781</ele>
        <time>2012-05-26T12:27:40Z</time>
      </trkpt>
      <trkpt lat="43.79836" lon="7.3735">
        <ele>379.37744140625</ele>
        <time>2012-05-26T12:27:41Z</time>
      </trkpt>
      <trkpt lat="43.79829" lon="7.37352">
        <ele>377.93542480469</ele>
        <time>2012-05-26T12:27:43Z</time>
      </trkpt>
      <trkpt lat="43.79823" lon="7.3735">
        <ele>376.97424316406</ele>
        <time>2012-05-26T12:27:45Z</time>
      </trkpt>
      <trkpt lat="43.79817" lon="7.3735">
        <ele>375.05151367188</ele>
        <time>2012-05-26T12:27:47Z</time>
      </trkpt>
      <trkpt lat="43.79813" lon="7.37349">
        <ele>373.60949707031</ele>
        <time>2012-05-26T12:27:49Z</time>
      </trkpt>
      <trkpt lat="43.79806" lon="7.37348">
        <ele>371.20629882812</ele>
        <time>2012-05-26T12:27:52Z</time>
      </trkpt>
      <trkpt lat="43.79796" lon="7.37342">
        <ele>368.80297851562</ele>
        <time>2012-05-26T12:27:56Z</time>
      </trkpt>
      <trkpt lat="43.79789" lon="7.37338">
        <ele>366.88024902344</ele>
        <time>2012-05-26T12:27:59Z</time>
      </trkpt>
      <trkpt lat="43.79784" lon="7.37332">
        <ele>365.43835449219</ele>
        <time>2012-05-26T12:28:01Z</time>
      </trkpt>
      <trkpt lat="43.79775" lon="7.37318">
        <ele>361.11242675781</ele>
        <time>2012-05-26T12:28:05Z</time>
      </trkpt>
      <trkpt lat="43.79774" lon="7.37301">
        <ele>357.74780273438</ele>
        <time>2012-05-26T12:28:09Z</time>
      </trkpt>
      <trkpt lat="43.79774" lon="7.37296">
        <ele>357.74780273438</ele>
        <time>2012-05-26T12:28:10Z</time>
      </trkpt>
      <trkpt lat="43.79774" lon="7.37286">
        <ele>355.34448242188</ele>
        <time>2012-05-26T12:28:13Z</time>
      </trkpt>
      <trkpt lat="43.79773" lon="7.37281">
        <ele>353.421875</ele>
        <time>2012-05-26T12:28:15Z</time>
      </trkpt>
      <trkpt lat="43.79764" lon="7.37268">
        <ele>351.01843261719</ele>
        <time>2012-05-26T12:28:19Z</time>
      </trkpt>
      <trkpt lat="43.79755" lon="7.37259">
        <ele>347.65393066406</ele>
        <time>2012-05-26T12:28:22Z</time>
      </trkpt>
      <trkpt lat="43.7975" lon="7.37256">
        <ele>346.69262695312</ele>
        <time>2012-05-26T12:28:24Z</time>
      </trkpt>
      <trkpt lat="43.79746" lon="7.37253">
        <ele>345.25061035156</ele>
        <time>2012-05-26T12:28:26Z</time>
      </trkpt>
      <trkpt lat="43.79744" lon="7.37251">
        <ele>343.80859375</ele>
        <time>2012-05-26T12:28:27Z</time>
      </trkpt>
      <trkpt lat="43.79742" lon="7.37248">
        <ele>342.84729003906</ele>
        <time>2012-05-26T12:28:29Z</time>
      </trkpt>
      <trkpt lat="43.79741" lon="7.37245">
        <ele>341.4052734375</ele>
        <time>2012-05-26T12:28:30Z</time>
      </trkpt>
      <trkpt lat="43.79729" lon="7.37229">
        <ele>338.04077148438</ele>
        <time>2012-05-26T12:28:35Z</time>
      </trkpt>
      <trkpt lat="43.79725" lon="7.37229">
        <ele>338.04077148438</ele>
        <time>2012-05-26T12:28:36Z</time>
      </trkpt>
      <trkpt lat="43.79719" lon="7.3723">
        <ele>337.07946777344</ele>
        <time>2012-05-26T12:28:37Z</time>
      </trkpt>
      <trkpt lat="43.79698" lon="7.37229">
        <ele>333.71472167969</ele>
        <time>2012-05-26T12:28:42Z</time>
      </trkpt>
      <trkpt lat="43.79694" lon="7.37228">
        <ele>333.71472167969</ele>
        <time>2012-05-26T12:28:43Z</time>
      </trkpt>
      <trkpt lat="43.79673" lon="7.37217">
        <ele>330.83093261719</ele>
        <time>2012-05-26T12:28:49Z</time>
      </trkpt>
      <trkpt lat="43.7967" lon="7.37216">
        <ele>330.83093261719</ele>
        <time>2012-05-26T12:28:50Z</time>
      </trkpt>
      <trkpt lat="43.79663" lon="7.37211">
        <ele>328.90832519531</ele>
        <time>2012-05-26T12:28:52Z</time>
      </trkpt>
      <trkpt lat="43.79656" lon="7.37205">
        <ele>327.94677734375</ele>
        <time>2012-05-26T12:28:54Z</time>
      </trkpt>
      <trkpt lat="43.7965" lon="7.37194">
        <ele>326.02416992188</ele>
        <time>2012-05-26T12:28:56Z</time>
      </trkpt>
      <trkpt lat="43.79652" lon="7.37144">
        <ele>323.14038085938</ele>
        <time>2012-05-26T12:29:05Z</time>
      </trkpt>
      <trkpt lat="43.79654" lon="7.37139">
        <ele>323.14038085938</ele>
        <time>2012-05-26T12:29:06Z</time>
      </trkpt>
      <trkpt lat="43.79676" lon="7.37113">
        <ele>320.25634765625</ele>
        <time>2012-05-26T12:29:13Z</time>
      </trkpt>
      <trkpt lat="43.7969" lon="7.37104">
        <ele>318.81433105469</ele>
        <time>2012-05-26T12:29:17Z</time>
      </trkpt>
      <trkpt lat="43.79711" lon="7.37081">
        <ele>315.93041992188</ele>
        <time>2012-05-26T12:29:24Z</time>
      </trkpt>
      <trkpt lat="43.79713" lon="7.37065">
        <ele>313.52722167969</ele>
        <time>2012-05-26T12:29:27Z</time>
      </trkpt>
      <trkpt lat="43.79695" lon="7.37064">
        <ele>312.08520507812</ele>
        <time>2012-05-26T12:29:32Z</time>
      </trkpt>
      <trkpt lat="43.79656" lon="7.37072">
        <ele>311.12377929688</ele>
        <time>2012-05-26T12:29:43Z</time>
      </trkpt>
      <trkpt lat="43.79626" lon="7.37077">
        <ele>308.72045898438</ele>
        <time>2012-05-26T12:29:50Z</time>
      </trkpt>
      <trkpt lat="43.79588" lon="7.37075">
        <ele>307.27856445312</ele>
        <time>2012-05-26T12:30:00Z</time>
      </trkpt>
      <trkpt lat="43.79557" lon="7.37073">
        <ele>306.7978515625</ele>
        <time>2012-05-26T12:30:09Z</time>
      </trkpt>
      <trkpt lat="43.79523" lon="7.37073">
        <ele>304.87524414062</ele>
        <time>2012-05-26T12:30:19Z</time>
      </trkpt>
      <trkpt lat="43.79493" lon="7.37073">
        <ele>303.91394042969</ele>
        <time>2012-05-26T12:30:27Z</time>
      </trkpt>
      <trkpt lat="43.79459" lon="7.37063">
        <ele>303.43322753906</ele>
        <time>2012-05-26T12:30:36Z</time>
      </trkpt>
      <trkpt lat="43.79432" lon="7.3705">
        <ele>302.95251464844</ele>
        <time>2012-05-26T12:30:44Z</time>
      </trkpt>
      <trkpt lat="43.79394" lon="7.37027">
        <ele>302.47192382812</ele>
        <time>2012-05-26T12:30:56Z</time>
      </trkpt>
      <trkpt lat="43.79365" lon="7.36998">
        <ele>301.99133300781</ele>
        <time>2012-05-26T12:31:07Z</time>
      </trkpt>
      <trkpt lat="43.79329" lon="7.36967">
        <ele>299.10729980469</ele>
        <time>2012-05-26T12:31:18Z</time>
      </trkpt>
      <trkpt lat="43.79302" lon="7.36945">
        <ele>296.22351074219</ele>
        <time>2012-05-26T12:31:25Z</time>
      </trkpt>
      <trkpt lat="43.79277" lon="7.3692">
        <ele>295.74267578125</ele>
        <time>2012-05-26T12:31:34Z</time>
      </trkpt>
      <trkpt lat="43.79268" lon="7.36915">
        <ele>295.74267578125</ele>
        <time>2012-05-26T12:31:37Z</time>
      </trkpt>
      <trkpt lat="43.79242" lon="7.36901">
        <ele>295.26196289062</ele>
        <time>2012-05-26T12:31:45Z</time>
      </trkpt>
      <trkpt lat="43.7921" lon="7.36881">
        <ele>293.33935546875</ele>
        <time>2012-05-26T12:31:55Z</time>
      </trkpt>
      <trkpt lat="43.79202" lon="7.36873">
        <ele>293.82006835938</ele>
        <time>2012-05-26T12:31:59Z</time>
      </trkpt>
      <trkpt lat="43.792" lon="7.36869">
        <ele>294.30078125</ele>
        <time>2012-05-26T12:32:01Z</time>
      </trkpt>
      <trkpt lat="43.7918" lon="7.36859">
        <ele>296.22351074219</ele>
        <time>2012-05-26T12:32:07Z</time>
      </trkpt>
      <trkpt lat="43.7918" lon="7.36854">
        <ele>297.18469238281</ele>
        <time>2012-05-26T12:32:09Z</time>
      </trkpt>
      <trkpt lat="43.79178" lon="7.36837">
        <ele>297.66540527344</ele>
        <time>2012-05-26T12:32:14Z</time>
      </trkpt>
      <trkpt lat="43.79176" lon="7.36809">
        <ele>300.54931640625</ele>
        <time>2012-05-26T12:32:22Z</time>
      </trkpt>
      <trkpt lat="43.79154" lon="7.36772">
        <ele>303.43322753906</ele>
        <time>2012-05-26T12:32:37Z</time>
      </trkpt>
      <trkpt lat="43.79152" lon="7.36772">
        <ele>303.43322753906</ele>
        <time>2012-05-26T12:32:38Z</time>
      </trkpt>
      <trkpt lat="43.79142" lon="7.36771">
        <ele>304.39465332031</ele>
        <time>2012-05-26T12:32:42Z</time>
      </trkpt>
      <trkpt lat="43.79114" lon="7.36777">
        <ele>306.31726074219</ele>
        <time>2012-05-26T12:32:52Z</time>
      </trkpt>
      <trkpt lat="43.79098" lon="7.36777">
        <ele>307.75927734375</ele>
        <time>2012-05-26T12:32:59Z</time>
      </trkpt>
      <trkpt lat="43.79082" lon="7.36776">
        <ele>310.64306640625</ele>
        <time>2012-05-26T12:33:06Z</time>
      </trkpt>
      <trkpt lat="43.7907" lon="7.36775">
        <ele>311.12377929688</ele>
        <time>2012-05-26T12:33:11Z</time>
      </trkpt>
      <trkpt lat="43.79042" lon="7.36772">
        <ele>313.52722167969</ele>
        <time>2012-05-26T12:33:23Z</time>
      </trkpt>
      <trkpt lat="43.7904" lon="7.36772">
        <ele>314.0078125</ele>
        <time>2012-05-26T12:33:24Z</time>
      </trkpt>
      <trkpt lat="43.7903" lon="7.36771">
        <ele>314.0078125</ele>
        <time>2012-05-26T12:33:28Z</time>
      </trkpt>
      <trkpt lat="43.79" lon="7.36769">
        <ele>315.93041992188</ele>
        <time>2012-05-26T12:33:39Z</time>
      </trkpt>
      <trkpt lat="43.78996" lon="7.36769">
        <ele>316.41101074219</ele>
        <time>2012-05-26T12:33:41Z</time>
      </trkpt>
      <trkpt lat="43.78971" lon="7.36767">
        <ele>319.29504394531</ele>
        <time>2012-05-26T12:33:51Z</time>
      </trkpt>
      <trkpt lat="43.78954" lon="7.36766">
        <ele>322.17895507812</ele>
        <time>2012-05-26T12:33:59Z</time>
      </trkpt>
      <trkpt lat="43.78929" lon="7.36765">
        <ele>324.58227539062</ele>
        <time>2012-05-26T12:34:09Z</time>
      </trkpt>
      <trkpt lat="43.78919" lon="7.36761">
        <ele>325.06298828125</ele>
        <time>2012-05-26T12:34:13Z</time>
      </trkpt>
      <trkpt lat="43.78913" lon="7.3676">
        <ele>325.54357910156</ele>
        <time>2012-05-26T12:34:17Z</time>
      </trkpt>
      <trkpt lat="43.78911" lon="7.36741">
        <ele>325.06298828125</ele>
        <time>2012-05-26T12:34:21Z</time>
      </trkpt>
      <trkpt lat="43.78905" lon="7.36731">
        <ele>322.17895507812</ele>
        <time>2012-05-26T12:34:25Z</time>
      </trkpt>
      <trkpt lat="43.78902" lon="7.36727">
        <ele>319.29504394531</ele>
        <time>2012-05-26T12:34:27Z</time>
      </trkpt>
      <trkpt lat="43.78895" lon="7.36725">
        <ele>317.85302734375</ele>
        <time>2012-05-26T12:34:30Z</time>
      </trkpt>
      <trkpt lat="43.78884" lon="7.36738">
        <ele>318.81433105469</ele>
        <time>2012-05-26T12:34:37Z</time>
      </trkpt>
      <trkpt lat="43.78881" lon="7.36741">
        <ele>319.77563476562</ele>
        <time>2012-05-26T12:34:39Z</time>
      </trkpt>
      <trkpt lat="43.78867" lon="7.36738">
        <ele>319.29504394531</ele>
        <time>2012-05-26T12:34:44Z</time>
      </trkpt>
      <trkpt lat="43.78859" lon="7.36734">
        <ele>318.81433105469</ele>
        <time>2012-05-26T12:34:47Z</time>
      </trkpt>
      <trkpt lat="43.78854" lon="7.36732">
        <ele>317.85302734375</ele>
        <time>2012-05-26T12:34:49Z</time>
      </trkpt>
      <trkpt lat="43.78835" lon="7.36737">
        <ele>318.81433105469</ele>
        <time>2012-05-26T12:34:58Z</time>
      </trkpt>
      <trkpt lat="43.78821" lon="7.3675">
        <ele>320.73706054688</ele>
        <time>2012-05-26T12:35:05Z</time>
      </trkpt>
      <trkpt lat="43.78815" lon="7.36753">
        <ele>321.69836425781</ele>
        <time>2012-05-26T12:35:07Z</time>
      </trkpt>
      <trkpt lat="43.78803" lon="7.36752">
        <ele>321.69836425781</ele>
        <time>2012-05-26T12:35:12Z</time>
      </trkpt>
      <trkpt lat="43.78761" lon="7.36752">
        <ele>319.29504394531</ele>
        <time>2012-05-26T12:35:25Z</time>
      </trkpt>
      <trkpt lat="43.78753" lon="7.36753">
        <ele>318.81433105469</ele>
        <time>2012-05-26T12:35:27Z</time>
      </trkpt>
      <trkpt lat="43.7874" lon="7.36751">
        <ele>318.81433105469</ele>
        <time>2012-05-26T12:35:32Z</time>
      </trkpt>
      <trkpt lat="43.78728" lon="7.36757">
        <ele>320.25634765625</ele>
        <time>2012-05-26T12:35:37Z</time>
      </trkpt>
      <trkpt lat="43.78717" lon="7.36763">
        <ele>320.73706054688</ele>
        <time>2012-05-26T12:35:42Z</time>
      </trkpt>
      <trkpt lat="43.78695" lon="7.36781">
        <ele>322.17895507812</ele>
        <time>2012-05-26T12:35:50Z</time>
      </trkpt>
      <trkpt lat="43.78676" lon="7.36779">
        <ele>319.77563476562</ele>
        <time>2012-05-26T12:35:55Z</time>
      </trkpt>
      <trkpt lat="43.78663" lon="7.36767">
        <ele>318.81433105469</ele>
        <time>2012-05-26T12:36:00Z</time>
      </trkpt>
      <trkpt lat="43.78649" lon="7.36768">
        <ele>316.89172363281</ele>
        <time>2012-05-26T12:36:06Z</time>
      </trkpt>
      <trkpt lat="43.78635" lon="7.36795">
        <ele>316.41101074219</ele>
        <time>2012-05-26T12:36:15Z</time>
      </trkpt>
      <trkpt lat="43.78605" lon="7.36822">
        <ele>317.37243652344</ele>
        <time>2012-05-26T12:36:26Z</time>
      </trkpt>
      <trkpt lat="43.78597" lon="7.36826">
        <ele>316.41101074219</ele>
        <time>2012-05-26T12:36:29Z</time>
      </trkpt>
      <trkpt lat="43.78566" lon="7.36826">
        <ele>315.93041992188</ele>
        <time>2012-05-26T12:36:40Z</time>
      </trkpt>
      <trkpt lat="43.78547" lon="7.36806">
        <ele>316.41101074219</ele>
        <time>2012-05-26T12:36:47Z</time>
      </trkpt>
      <trkpt lat="43.78536" lon="7.36783">
        <ele>315.44982910156</ele>
        <time>2012-05-26T12:36:50Z</time>
      </trkpt>
      <trkpt lat="43.78507" lon="7.36789">
        <ele>314.96911621094</ele>
        <time>2012-05-26T12:36:56Z</time>
      </trkpt>
      <trkpt lat="43.78496" lon="7.36803">
        <ele>315.93041992188</ele>
        <time>2012-05-26T12:37:07Z</time>
      </trkpt>
      <trkpt lat="43.78449" lon="7.36783">
        <ele>317.37243652344</ele>
        <time>2012-05-26T12:37:18Z</time>
      </trkpt>
      <trkpt lat="43.78437" lon="7.36779">
        <ele>318.33361816406</ele>
        <time>2012-05-26T12:37:23Z</time>
      </trkpt>
      <trkpt lat="43.78432" lon="7.36776">
        <ele>318.33361816406</ele>
        <time>2012-05-26T12:37:25Z</time>
      </trkpt>
      <trkpt lat="43.78417" lon="7.36751">
        <ele>320.73706054688</ele>
        <time>2012-05-26T12:37:31Z</time>
      </trkpt>
      <trkpt lat="43.784" lon="7.3672">
        <ele>322.17895507812</ele>
        <time>2012-05-26T12:37:41Z</time>
      </trkpt>
      <trkpt lat="43.78397" lon="7.36716">
        <ele>322.17895507812</ele>
        <time>2012-05-26T12:37:43Z</time>
      </trkpt>
      <trkpt lat="43.78393" lon="7.3671">
        <ele>322.65966796875</ele>
        <time>2012-05-26T12:37:46Z</time>
      </trkpt>
      <trkpt lat="43.78389" lon="7.36704">
        <ele>323.62097167969</ele>
        <time>2012-05-26T12:37:49Z</time>
      </trkpt>
      <trkpt lat="43.78366" lon="7.3667">
        <ele>325.06298828125</ele>
        <time>2012-05-26T12:37:59Z</time>
      </trkpt>
      <trkpt lat="43.78351" lon="7.36652">
        <ele>325.54357910156</ele>
        <time>2012-05-26T12:38:06Z</time>
      </trkpt>
      <trkpt lat="43.78336" lon="7.36634">
        <ele>326.98559570312</ele>
        <time>2012-05-26T12:38:15Z</time>
      </trkpt>
      <trkpt lat="43.78333" lon="7.36629">
        <ele>327.46618652344</ele>
        <time>2012-05-26T12:38:17Z</time>
      </trkpt>
      <trkpt lat="43.78322" lon="7.36604">
        <ele>328.90832519531</ele>
        <time>2012-05-26T12:38:25Z</time>
      </trkpt>
      <trkpt lat="43.7832" lon="7.36598">
        <ele>329.38891601562</ele>
        <time>2012-05-26T12:38:27Z</time>
      </trkpt>
      <trkpt lat="43.78315" lon="7.36584">
        <ele>329.38891601562</ele>
        <time>2012-05-26T12:38:31Z</time>
      </trkpt>
      <trkpt lat="43.78295" lon="7.36545">
        <ele>332.75354003906</ele>
        <time>2012-05-26T12:38:44Z</time>
      </trkpt>
      <trkpt lat="43.7828" lon="7.3651">
        <ele>333.23413085938</ele>
        <time>2012-05-26T12:38:53Z</time>
      </trkpt>
      <trkpt lat="43.78278" lon="7.36508">
        <ele>333.23413085938</ele>
        <time>2012-05-26T12:38:54Z</time>
      </trkpt>
      <trkpt lat="43.78275" lon="7.36502">
        <ele>333.23413085938</ele>
        <time>2012-05-26T12:38:56Z</time>
      </trkpt>
      <trkpt lat="43.78257" lon="7.36473">
        <ele>333.71472167969</ele>
        <time>2012-05-26T12:39:07Z</time>
      </trkpt>
      <trkpt lat="43.78243" lon="7.36458">
        <ele>335.63732910156</ele>
        <time>2012-05-26T12:39:14Z</time>
      </trkpt>
      <trkpt lat="43.78234" lon="7.36448">
        <ele>336.1181640625</ele>
        <time>2012-05-26T12:39:20Z</time>
      </trkpt>
      <trkpt lat="43.78227" lon="7.36419">
        <ele>337.56005859375</ele>
        <time>2012-05-26T12:39:27Z</time>
      </trkpt>
      <trkpt lat="43.7822" lon="7.36386">
        <ele>337.56005859375</ele>
        <time>2012-05-26T12:39:33Z</time>
      </trkpt>
      <trkpt lat="43.78217" lon="7.36379">
        <ele>338.04077148438</ele>
        <time>2012-05-26T12:39:36Z</time>
      </trkpt>
      <trkpt lat="43.78213" lon="7.36366">
        <ele>338.521484375</ele>
        <time>2012-05-26T12:39:39Z</time>
      </trkpt>
      <trkpt lat="43.7821" lon="7.36359">
        <ele>339.48266601562</ele>
        <time>2012-05-26T12:39:42Z</time>
      </trkpt>
      <trkpt lat="43.78196" lon="7.36324">
        <ele>340.44409179688</ele>
        <time>2012-05-26T12:39:53Z</time>
      </trkpt>
      <trkpt lat="43.78189" lon="7.363">
        <ele>342.36669921875</ele>
        <time>2012-05-26T12:40:00Z</time>
      </trkpt>
      <trkpt lat="43.78185" lon="7.36284">
        <ele>342.84729003906</ele>
        <time>2012-05-26T12:40:06Z</time>
      </trkpt>
      <trkpt lat="43.78182" lon="7.36274">
        <ele>343.32788085938</ele>
        <time>2012-05-26T12:40:09Z</time>
      </trkpt>
      <trkpt lat="43.78176" lon="7.3625">
        <ele>344.77001953125</ele>
        <time>2012-05-26T12:40:17Z</time>
      </trkpt>
      <trkpt lat="43.78145" lon="7.36214">
        <ele>347.65393066406</ele>
        <time>2012-05-26T12:40:32Z</time>
      </trkpt>
      <trkpt lat="43.78119" lon="7.36201">
        <ele>348.615234375</ele>
        <time>2012-05-26T12:40:43Z</time>
      </trkpt>
      <trkpt lat="43.78094" lon="7.36187">
        <ele>349.57653808594</ele>
        <time>2012-05-26T12:40:53Z</time>
      </trkpt>
      <trkpt lat="43.78072" lon="7.36171">
        <ele>352.94116210938</ele>
        <time>2012-05-26T12:41:03Z</time>
      </trkpt>
      <trkpt lat="43.7806" lon="7.36163">
        <ele>354.86376953125</ele>
        <time>2012-05-26T12:41:11Z</time>
      </trkpt>
      <trkpt lat="43.78064" lon="7.36165">
        <ele>352.94116210938</ele>
        <time>2012-05-26T12:41:14Z</time>
      </trkpt>
      <trkpt lat="43.78072" lon="7.3617">
        <ele>351.49914550781</ele>
        <time>2012-05-26T12:41:17Z</time>
      </trkpt>
      <trkpt lat="43.78084" lon="7.36157">
        <ele>349.09582519531</ele>
        <time>2012-05-26T12:41:19Z</time>
      </trkpt>
      <trkpt lat="43.78086" lon="7.36157">
        <ele>346.69262695312</ele>
        <time>2012-05-26T12:41:22Z</time>
      </trkpt>
      <trkpt lat="43.78086" lon="7.36157">
        <ele>342.36669921875</ele>
        <time>2012-05-26T12:41:26Z</time>
      </trkpt>
      <trkpt lat="43.78086" lon="7.36157">
        <ele>342.36669921875</ele>
        <time>2012-05-26T12:41:27Z</time>
      </trkpt>
      <trkpt lat="43.78094" lon="7.36155">
        <ele>341.4052734375</ele>
        <time>2012-05-26T12:41:29Z</time>
      </trkpt>
      <trkpt lat="43.781" lon="7.36155">
        <ele>339.96337890625</ele>
        <time>2012-05-26T12:41:32Z</time>
      </trkpt>
      <trkpt lat="43.78105" lon="7.36158">
        <ele>338.04077148438</ele>
        <time>2012-05-26T12:41:34Z</time>
      </trkpt>
      <trkpt lat="43.78108" lon="7.36161">
        <ele>337.07946777344</ele>
        <time>2012-05-26T12:41:36Z</time>
      </trkpt>
      <trkpt lat="43.78128" lon="7.36169">
        <ele>333.23413085938</ele>
        <time>2012-05-26T12:41:41Z</time>
      </trkpt>
      <trkpt lat="43.78131" lon="7.36168">
        <ele>332.27282714844</ele>
        <time>2012-05-26T12:41:43Z</time>
      </trkpt>
      <trkpt lat="43.78135" lon="7.36167">
        <ele>328.90832519531</ele>
        <time>2012-05-26T12:41:47Z</time>
      </trkpt>
      <trkpt lat="43.78139" lon="7.36161">
        <ele>326.98559570312</ele>
        <time>2012-05-26T12:41:52Z</time>
      </trkpt>
      <trkpt lat="43.78139" lon="7.36162">
        <ele>325.54357910156</ele>
        <time>2012-05-26T12:41:54Z</time>
      </trkpt>
      <trkpt lat="43.78144" lon="7.3616">
        <ele>324.1015625</ele>
        <time>2012-05-26T12:41:57Z</time>
      </trkpt>
      <trkpt lat="43.78146" lon="7.36156">
        <ele>322.17895507812</ele>
        <time>2012-05-26T12:41:59Z</time>
      </trkpt>
      <trkpt lat="43.78145" lon="7.36151">
        <ele>321.2177734375</ele>
        <time>2012-05-26T12:42:01Z</time>
      </trkpt>
      <trkpt lat="43.78147" lon="7.3615">
        <ele>320.25634765625</ele>
        <time>2012-05-26T12:42:02Z</time>
      </trkpt>
      <trkpt lat="43.78148" lon="7.36139">
        <ele>318.81433105469</ele>
        <time>2012-05-26T12:42:04Z</time>
      </trkpt>
      <trkpt lat="43.78185" lon="7.3614">
        <ele>315.93041992188</ele>
        <time>2012-05-26T12:42:08Z</time>
      </trkpt>
      <trkpt lat="43.78185" lon="7.3614">
        <ele>314.96911621094</ele>
        <time>2012-05-26T12:42:10Z</time>
      </trkpt>
      <trkpt lat="43.78199" lon="7.3613">
        <ele>313.52722167969</ele>
        <time>2012-05-26T12:42:13Z</time>
      </trkpt>
      <trkpt lat="43.78209" lon="7.36126">
        <ele>311.12377929688</ele>
        <time>2012-05-26T12:42:17Z</time>
      </trkpt>
      <trkpt lat="43.78217" lon="7.36123">
        <ele>308.72045898438</ele>
        <time>2012-05-26T12:42:20Z</time>
      </trkpt>
      <trkpt lat="43.7822" lon="7.36122">
        <ele>307.27856445312</ele>
        <time>2012-05-26T12:42:21Z</time>
      </trkpt>
      <trkpt lat="43.78227" lon="7.36123">
        <ele>304.39465332031</ele>
        <time>2012-05-26T12:42:25Z</time>
      </trkpt>
      <trkpt lat="43.78231" lon="7.36111">
        <ele>302.47192382812</ele>
        <time>2012-05-26T12:42:29Z</time>
      </trkpt>
      <trkpt lat="43.78231" lon="7.36105">
        <ele>300.54931640625</ele>
        <time>2012-05-26T12:42:32Z</time>
      </trkpt>
      <trkpt lat="43.78245" lon="7.36109">
        <ele>296.22351074219</ele>
        <time>2012-05-26T12:42:39Z</time>
      </trkpt>
      <trkpt lat="43.78246" lon="7.3611">
        <ele>295.26196289062</ele>
        <time>2012-05-26T12:42:40Z</time>
      </trkpt>
      <trkpt lat="43.78252" lon="7.36114">
        <ele>293.33935546875</ele>
        <time>2012-05-26T12:42:43Z</time>
      </trkpt>
      <trkpt lat="43.78254" lon="7.36114">
        <ele>291.41674804688</ele>
        <time>2012-05-26T12:42:44Z</time>
      </trkpt>
      <trkpt lat="43.78261" lon="7.36107">
        <ele>290.45556640625</ele>
        <time>2012-05-26T12:42:48Z</time>
      </trkpt>
      <trkpt lat="43.78264" lon="7.36103">
        <ele>289.494140625</ele>
        <time>2012-05-26T12:42:50Z</time>
      </trkpt>
      <trkpt lat="43.78264" lon="7.36099">
        <ele>288.05224609375</ele>
        <time>2012-05-26T12:42:52Z</time>
      </trkpt>
      <trkpt lat="43.78267" lon="7.36095">
        <ele>286.12951660156</ele>
        <time>2012-05-26T12:42:55Z</time>
      </trkpt>
      <trkpt lat="43.78272" lon="7.36106">
        <ele>282.76501464844</ele>
        <time>2012-05-26T12:43:02Z</time>
      </trkpt>
      <trkpt lat="43.78278" lon="7.36098">
        <ele>281.32299804688</ele>
        <time>2012-05-26T12:43:06Z</time>
      </trkpt>
      <trkpt lat="43.78276" lon="7.36091">
        <ele>279.880859375</ele>
        <time>2012-05-26T12:43:09Z</time>
      </trkpt>
      <trkpt lat="43.78273" lon="7.36086">
        <ele>279.880859375</ele>
        <time>2012-05-26T12:43:11Z</time>
      </trkpt>
      <trkpt lat="43.78249" lon="7.36065">
        <ele>276.51635742188</ele>
        <time>2012-05-26T12:43:21Z</time>
      </trkpt>
      <trkpt lat="43.78243" lon="7.36064">
        <ele>275.55505371094</ele>
        <time>2012-05-26T12:43:23Z</time>
      </trkpt>
      <trkpt lat="43.78239" lon="7.36061">
        <ele>275.07446289062</ele>
        <time>2012-05-26T12:43:25Z</time>
      </trkpt>
      <trkpt lat="43.78234" lon="7.36055">
        <ele>274.59375</ele>
        <time>2012-05-26T12:43:27Z</time>
      </trkpt>
      <trkpt lat="43.78225" lon="7.36044">
        <ele>272.67114257812</ele>
        <time>2012-05-26T12:43:31Z</time>
      </trkpt>
      <trkpt lat="43.78216" lon="7.36038">
        <ele>272.1904296875</ele>
        <time>2012-05-26T12:43:34Z</time>
      </trkpt>
      <trkpt lat="43.78211" lon="7.36031">
        <ele>270.74841308594</ele>
        <time>2012-05-26T12:43:37Z</time>
      </trkpt>
      <trkpt lat="43.78207" lon="7.36029">
        <ele>269.787109375</ele>
        <time>2012-05-26T12:43:40Z</time>
      </trkpt>
      <trkpt lat="43.782" lon="7.36021">
        <ele>269.30651855469</ele>
        <time>2012-05-26T12:43:43Z</time>
      </trkpt>
      <trkpt lat="43.78192" lon="7.36019">
        <ele>267.86450195312</ele>
        <time>2012-05-26T12:43:47Z</time>
      </trkpt>
      <trkpt lat="43.78166" lon="7.36018">
        <ele>265.46130371094</ele>
        <time>2012-05-26T12:43:56Z</time>
      </trkpt>
      <trkpt lat="43.78167" lon="7.36011">
        <ele>265.46130371094</ele>
        <time>2012-05-26T12:43:59Z</time>
      </trkpt>
      <trkpt lat="43.78169" lon="7.36003">
        <ele>262.09655761719</ele>
        <time>2012-05-26T12:44:02Z</time>
      </trkpt>
      <trkpt lat="43.78168" lon="7.35988">
        <ele>260.17395019531</ele>
        <time>2012-05-26T12:44:06Z</time>
      </trkpt>
      <trkpt lat="43.78165" lon="7.35979">
        <ele>258.25134277344</ele>
        <time>2012-05-26T12:44:08Z</time>
      </trkpt>
      <trkpt lat="43.78149" lon="7.35961">
        <ele>256.80932617188</ele>
        <time>2012-05-26T12:44:12Z</time>
      </trkpt>
      <trkpt lat="43.78139" lon="7.35965">
        <ele>255.36730957031</ele>
        <time>2012-05-26T12:44:17Z</time>
      </trkpt>
      <trkpt lat="43.7814" lon="7.35956">
        <ele>254.40600585938</ele>
        <time>2012-05-26T12:44:21Z</time>
      </trkpt>
      <trkpt lat="43.78132" lon="7.35927">
        <ele>253.92541503906</ele>
        <time>2012-05-26T12:44:29Z</time>
      </trkpt>
      <trkpt lat="43.78123" lon="7.35895">
        <ele>252.96398925781</ele>
        <time>2012-05-26T12:44:38Z</time>
      </trkpt>
      <trkpt lat="43.78109" lon="7.3589">
        <ele>254.88659667969</ele>
        <time>2012-05-26T12:44:46Z</time>
      </trkpt>
      <trkpt lat="43.78095" lon="7.35908">
        <ele>253.44470214844</ele>
        <time>2012-05-26T12:44:55Z</time>
      </trkpt>
      <trkpt lat="43.78093" lon="7.35881">
        <ele>253.92541503906</ele>
        <time>2012-05-26T12:45:03Z</time>
      </trkpt>
      <trkpt lat="43.78077" lon="7.35838">
        <ele>252.96398925781</ele>
        <time>2012-05-26T12:45:15Z</time>
      </trkpt>
      <trkpt lat="43.78069" lon="7.35824">
        <ele>253.44470214844</ele>
        <time>2012-05-26T12:45:20Z</time>
      </trkpt>
      <trkpt lat="43.78075" lon="7.35815">
        <ele>252.96398925781</ele>
        <time>2012-05-26T12:45:27Z</time>
      </trkpt>
      <trkpt lat="43.78083" lon="7.35774">
        <ele>252.96398925781</ele>
        <time>2012-05-26T12:45:38Z</time>
      </trkpt>
      <trkpt lat="43.78079" lon="7.35769">
        <ele>252.96398925781</ele>
        <time>2012-05-26T12:45:40Z</time>
      </trkpt>
      <trkpt lat="43.78068" lon="7.3576">
        <ele>252.4833984375</ele>
        <time>2012-05-26T12:45:44Z</time>
      </trkpt>
      <trkpt lat="43.78058" lon="7.35754">
        <ele>252.4833984375</ele>
        <time>2012-05-26T12:45:49Z</time>
      </trkpt>
      <trkpt lat="43.78041" lon="7.35745">
        <ele>252.00280761719</ele>
        <time>2012-05-26T12:45:56Z</time>
      </trkpt>
      <trkpt lat="43.78038" lon="7.35744">
        <ele>252.00280761719</ele>
        <time>2012-05-26T12:45:58Z</time>
      </trkpt>
      <trkpt lat="43.78019" lon="7.35751">
        <ele>251.04138183594</ele>
        <time>2012-05-26T12:46:08Z</time>
      </trkpt>
      <trkpt lat="43.78007" lon="7.35758">
        <ele>251.04138183594</ele>
        <time>2012-05-26T12:46:12Z</time>
      </trkpt>
      <trkpt lat="43.77992" lon="7.35758">
        <ele>252.00280761719</ele>
        <time>2012-05-26T12:46:18Z</time>
      </trkpt>
      <trkpt lat="43.77986" lon="7.35763">
        <ele>251.04138183594</ele>
        <time>2012-05-26T12:46:22Z</time>
      </trkpt>
      <trkpt lat="43.77978" lon="7.35755">
        <ele>251.04138183594</ele>
        <time>2012-05-26T12:46:25Z</time>
      </trkpt>
      <trkpt lat="43.77962" lon="7.35742">
        <ele>250.08020019531</ele>
        <time>2012-05-26T12:46:33Z</time>
      </trkpt>
      <trkpt lat="43.7796" lon="7.35744">
        <ele>250.56079101562</ele>
        <time>2012-05-26T12:46:34Z</time>
      </trkpt>
      <trkpt lat="43.7795" lon="7.35765">
        <ele>251.52209472656</ele>
        <time>2012-05-26T12:46:40Z</time>
      </trkpt>
      <trkpt lat="43.77939" lon="7.35762">
        <ele>250.56079101562</ele>
        <time>2012-05-26T12:46:43Z</time>
      </trkpt>
      <trkpt lat="43.77933" lon="7.35763">
        <ele>250.08020019531</ele>
        <time>2012-05-26T12:46:46Z</time>
      </trkpt>
      <trkpt lat="43.77922" lon="7.35764">
        <ele>250.08020019531</ele>
        <time>2012-05-26T12:46:50Z</time>
      </trkpt>
      <trkpt lat="43.77895" lon="7.35774">
        <ele>250.56079101562</ele>
        <time>2012-05-26T12:47:01Z</time>
      </trkpt>
      <trkpt lat="43.77893" lon="7.35775">
        <ele>250.56079101562</ele>
        <time>2012-05-26T12:47:02Z</time>
      </trkpt>
      <trkpt lat="43.77891" lon="7.35783">
        <ele>251.04138183594</ele>
        <time>2012-05-26T12:47:05Z</time>
      </trkpt>
      <trkpt lat="43.77887" lon="7.35788">
        <ele>252.4833984375</ele>
        <time>2012-05-26T12:47:07Z</time>
      </trkpt>
      <trkpt lat="43.77879" lon="7.35788">
        <ele>251.52209472656</ele>
        <time>2012-05-26T12:47:10Z</time>
      </trkpt>
      <trkpt lat="43.77875" lon="7.35779">
        <ele>252.4833984375</ele>
        <time>2012-05-26T12:47:13Z</time>
      </trkpt>
      <trkpt lat="43.77863" lon="7.35764">
        <ele>255.36730957031</ele>
        <time>2012-05-26T12:47:22Z</time>
      </trkpt>
      <trkpt lat="43.77866" lon="7.35761">
        <ele>256.32873535156</ele>
        <time>2012-05-26T12:47:25Z</time>
      </trkpt>
      <trkpt lat="43.77869" lon="7.3575">
        <ele>257.2900390625</ele>
        <time>2012-05-26T12:47:29Z</time>
      </trkpt>
      <trkpt lat="43.77871" lon="7.35742">
        <ele>257.77075195312</ele>
        <time>2012-05-26T12:47:31Z</time>
      </trkpt>
      <trkpt lat="43.77877" lon="7.35722">
        <ele>260.17395019531</ele>
        <time>2012-05-26T12:47:39Z</time>
      </trkpt>
      <trkpt lat="43.77881" lon="7.35718">
        <ele>261.13525390625</ele>
        <time>2012-05-26T12:47:42Z</time>
      </trkpt>
      <trkpt lat="43.77879" lon="7.35714">
        <ele>261.61596679688</ele>
        <time>2012-05-26T12:47:44Z</time>
      </trkpt>
      <trkpt lat="43.77869" lon="7.35703">
        <ele>263.05786132812</ele>
        <time>2012-05-26T12:47:51Z</time>
      </trkpt>
      <trkpt lat="43.77865" lon="7.35694">
        <ele>265.46130371094</ele>
        <time>2012-05-26T12:47:58Z</time>
      </trkpt>
      <trkpt lat="43.77866" lon="7.35692">
        <ele>264.98059082031</ele>
        <time>2012-05-26T12:48:07Z</time>
      </trkpt>
      <trkpt lat="43.77857" lon="7.3568">
        <ele>266.42248535156</ele>
        <time>2012-05-26T12:48:14Z</time>
      </trkpt>
      <trkpt lat="43.77843" lon="7.35662">
        <ele>269.30651855469</ele>
        <time>2012-05-26T12:48:21Z</time>
      </trkpt>
      <trkpt lat="43.77838" lon="7.35645">
        <ele>271.22912597656</ele>
        <time>2012-05-26T12:48:28Z</time>
      </trkpt>
      <trkpt lat="43.77829" lon="7.3564">
        <ele>273.15185546875</ele>
        <time>2012-05-26T12:48:33Z</time>
      </trkpt>
      <trkpt lat="43.77823" lon="7.35628">
        <ele>274.11303710938</ele>
        <time>2012-05-26T12:48:40Z</time>
      </trkpt>
      <trkpt lat="43.77823" lon="7.35627">
        <ele>274.59375</ele>
        <time>2012-05-26T12:48:41Z</time>
      </trkpt>
      <trkpt lat="43.77816" lon="7.35626">
        <ele>276.03564453125</ele>
        <time>2012-05-26T12:48:45Z</time>
      </trkpt>
      <trkpt lat="43.77814" lon="7.35623">
        <ele>276.51635742188</ele>
        <time>2012-05-26T12:48:47Z</time>
      </trkpt>
      <trkpt lat="43.77808" lon="7.35604">
        <ele>278.43896484375</ele>
        <time>2012-05-26T12:48:54Z</time>
      </trkpt>
      <trkpt lat="43.77793" lon="7.35592">
        <ele>280.84240722656</ele>
        <time>2012-05-26T12:49:02Z</time>
      </trkpt>
      <trkpt lat="43.77788" lon="7.35585">
        <ele>282.28430175781</ele>
        <time>2012-05-26T12:49:07Z</time>
      </trkpt>
      <trkpt lat="43.77781" lon="7.35584">
        <ele>283.24560546875</ele>
        <time>2012-05-26T12:49:10Z</time>
      </trkpt>
      <trkpt lat="43.77777" lon="7.35588">
        <ele>284.20690917969</ele>
        <time>2012-05-26T12:49:13Z</time>
      </trkpt>
      <trkpt lat="43.77774" lon="7.35589">
        <ele>284.68762207031</ele>
        <time>2012-05-26T12:49:15Z</time>
      </trkpt>
      <trkpt lat="43.77759" lon="7.35592">
        <ele>287.57141113281</ele>
        <time>2012-05-26T12:49:24Z</time>
      </trkpt>
      <trkpt lat="43.77744" lon="7.35597">
        <ele>289.97485351562</ele>
        <time>2012-05-26T12:49:32Z</time>
      </trkpt>
      <trkpt lat="43.77738" lon="7.35597">
        <ele>291.41674804688</ele>
        <time>2012-05-26T12:49:37Z</time>
      </trkpt>
      <trkpt lat="43.77739" lon="7.35585">
        <ele>292.37817382812</ele>
        <time>2012-05-26T12:49:43Z</time>
      </trkpt>
      <trkpt lat="43.77742" lon="7.35574">
        <ele>293.82006835938</ele>
        <time>2012-05-26T12:49:50Z</time>
      </trkpt>
      <trkpt lat="43.77738" lon="7.35565">
        <ele>295.26196289062</ele>
        <time>2012-05-26T12:49:54Z</time>
      </trkpt>
      <trkpt lat="43.77732" lon="7.35554">
        <ele>295.74267578125</ele>
        <time>2012-05-26T12:49:58Z</time>
      </trkpt>
      <trkpt lat="43.77728" lon="7.35549">
        <ele>297.18469238281</ele>
        <time>2012-05-26T12:50:01Z</time>
      </trkpt>
      <trkpt lat="43.77726" lon="7.35552">
        <ele>298.14611816406</ele>
        <time>2012-05-26T12:50:04Z</time>
      </trkpt>
      <trkpt lat="43.77731" lon="7.35565">
        <ele>298.62670898438</ele>
        <time>2012-05-26T12:50:09Z</time>
      </trkpt>
      <trkpt lat="43.77727" lon="7.35579">
        <ele>299.10729980469</ele>
        <time>2012-05-26T12:50:15Z</time>
      </trkpt>
      <trkpt lat="43.77718" lon="7.35583">
        <ele>301.02990722656</ele>
        <time>2012-05-26T12:50:20Z</time>
      </trkpt>
      <trkpt lat="43.77712" lon="7.35604">
        <ele>300.54931640625</ele>
        <time>2012-05-26T12:50:26Z</time>
      </trkpt>
      <trkpt lat="43.77724" lon="7.35614">
        <ele>301.99133300781</ele>
        <time>2012-05-26T12:50:34Z</time>
      </trkpt>
      <trkpt lat="43.77727" lon="7.35622">
        <ele>301.51062011719</ele>
        <time>2012-05-26T12:50:38Z</time>
      </trkpt>
      <trkpt lat="43.77737" lon="7.35622">
        <ele>301.51062011719</ele>
        <time>2012-05-26T12:50:43Z</time>
      </trkpt>
      <trkpt lat="43.77744" lon="7.35623">
        <ele>302.47192382812</ele>
        <time>2012-05-26T12:50:45Z</time>
      </trkpt>
      <trkpt lat="43.77764" lon="7.35652">
        <ele>303.43322753906</ele>
        <time>2012-05-26T12:50:56Z</time>
      </trkpt>
      <trkpt lat="43.77765" lon="7.35655">
        <ele>303.43322753906</ele>
        <time>2012-05-26T12:50:57Z</time>
      </trkpt>
      <trkpt lat="43.77775" lon="7.35674">
        <ele>303.91394042969</ele>
        <time>2012-05-26T12:51:02Z</time>
      </trkpt>
      <trkpt lat="43.77769" lon="7.35685">
        <ele>305.35595703125</ele>
        <time>2012-05-26T12:51:07Z</time>
      </trkpt>
      <trkpt lat="43.77755" lon="7.3571">
        <ele>306.7978515625</ele>
        <time>2012-05-26T12:51:17Z</time>
      </trkpt>
      <trkpt lat="43.77747" lon="7.35716">
        <ele>307.27856445312</ele>
        <time>2012-05-26T12:51:20Z</time>
      </trkpt>
      <trkpt lat="43.77743" lon="7.35719">
        <ele>307.75927734375</ele>
        <time>2012-05-26T12:51:22Z</time>
      </trkpt>
      <trkpt lat="43.77744" lon="7.35727">
        <ele>308.23986816406</ele>
        <time>2012-05-26T12:51:27Z</time>
      </trkpt>
      <trkpt lat="43.77746" lon="7.35737">
        <ele>308.23986816406</ele>
        <time>2012-05-26T12:51:29Z</time>
      </trkpt>
      <trkpt lat="43.77754" lon="7.35758">
        <ele>308.72045898438</ele>
        <time>2012-05-26T12:51:39Z</time>
      </trkpt>
      <trkpt lat="43.77762" lon="7.35778">
        <ele>309.201171875</ele>
        <time>2012-05-26T12:51:46Z</time>
      </trkpt>
      <trkpt lat="43.77763" lon="7.35799">
        <ele>309.68188476562</ele>
        <time>2012-05-26T12:51:52Z</time>
      </trkpt>
      <trkpt lat="43.7775" lon="7.35813">
        <ele>311.12377929688</ele>
        <time>2012-05-26T12:51:59Z</time>
      </trkpt>
      <trkpt lat="43.77751" lon="7.35831">
        <ele>312.08520507812</ele>
        <time>2012-05-26T12:52:04Z</time>
      </trkpt>
      <trkpt lat="43.77751" lon="7.35861">
        <ele>312.56579589844</ele>
        <time>2012-05-26T12:52:11Z</time>
      </trkpt>
      <trkpt lat="43.77754" lon="7.35882">
        <ele>312.56579589844</ele>
        <time>2012-05-26T12:52:15Z</time>
      </trkpt>
      <trkpt lat="43.77764" lon="7.359">
        <ele>314.0078125</ele>
        <time>2012-05-26T12:52:21Z</time>
      </trkpt>
      <trkpt lat="43.77763" lon="7.35907">
        <ele>314.48840332031</ele>
        <time>2012-05-26T12:52:23Z</time>
      </trkpt>
      <trkpt lat="43.77768" lon="7.35918">
        <ele>314.96911621094</ele>
        <time>2012-05-26T12:52:27Z</time>
      </trkpt>
      <trkpt lat="43.77791" lon="7.35929">
        <ele>315.93041992188</ele>
        <time>2012-05-26T12:52:35Z</time>
      </trkpt>
      <trkpt lat="43.77793" lon="7.35961">
        <ele>316.89172363281</ele>
        <time>2012-05-26T12:52:46Z</time>
      </trkpt>
      <trkpt lat="43.77803" lon="7.3598">
        <ele>317.37243652344</ele>
        <time>2012-05-26T12:52:52Z</time>
      </trkpt>
      <trkpt lat="43.77803" lon="7.35987">
        <ele>317.85302734375</ele>
        <time>2012-05-26T12:52:54Z</time>
      </trkpt>
      <trkpt lat="43.77804" lon="7.35996">
        <ele>319.77563476562</ele>
        <time>2012-05-26T12:53:01Z</time>
      </trkpt>
      <trkpt lat="43.77802" lon="7.35982">
        <ele>321.2177734375</ele>
        <time>2012-05-26T12:53:08Z</time>
      </trkpt>
      <trkpt lat="43.77798" lon="7.35979">
        <ele>322.65966796875</ele>
        <time>2012-05-26T12:53:11Z</time>
      </trkpt>
      <trkpt lat="43.7779" lon="7.35966">
        <ele>324.1015625</ele>
        <time>2012-05-26T12:53:18Z</time>
      </trkpt>
      <trkpt lat="43.77785" lon="7.3596">
        <ele>324.58227539062</ele>
        <time>2012-05-26T12:53:22Z</time>
      </trkpt>
      <trkpt lat="43.7778" lon="7.35955">
        <ele>326.5048828125</ele>
        <time>2012-05-26T12:53:27Z</time>
      </trkpt>
      <trkpt lat="43.77774" lon="7.3595">
        <ele>327.94677734375</ele>
        <time>2012-05-26T12:53:31Z</time>
      </trkpt>
      <trkpt lat="43.77762" lon="7.35948">
        <ele>328.90832519531</ele>
        <time>2012-05-26T12:53:36Z</time>
      </trkpt>
      <trkpt lat="43.77744" lon="7.35934">
        <ele>331.79211425781</ele>
        <time>2012-05-26T12:53:46Z</time>
      </trkpt>
      <trkpt lat="43.77738" lon="7.35927">
        <ele>332.75354003906</ele>
        <time>2012-05-26T12:53:50Z</time>
      </trkpt>
      <trkpt lat="43.77732" lon="7.35924">
        <ele>334.67614746094</ele>
        <time>2012-05-26T12:53:54Z</time>
      </trkpt>
      <trkpt lat="43.77728" lon="7.35929">
        <ele>335.15673828125</ele>
        <time>2012-05-26T12:53:58Z</time>
      </trkpt>
      <trkpt lat="43.77731" lon="7.35944">
        <ele>335.15673828125</ele>
        <time>2012-05-26T12:54:03Z</time>
      </trkpt>
      <trkpt lat="43.77733" lon="7.35955">
        <ele>335.15673828125</ele>
        <time>2012-05-26T12:54:06Z</time>
      </trkpt>
      <trkpt lat="43.77741" lon="7.35973">
        <ele>336.59887695312</ele>
        <time>2012-05-26T12:54:12Z</time>
      </trkpt>
      <trkpt lat="43.77747" lon="7.35981">
        <ele>337.56005859375</ele>
        <time>2012-05-26T12:54:17Z</time>
      </trkpt>
      <trkpt lat="43.77766" lon="7.36013">
        <ele>339.96337890625</ele>
        <time>2012-05-26T12:54:29Z</time>
      </trkpt>
      <trkpt lat="43.77768" lon="7.36025">
        <ele>340.92468261719</ele>
        <time>2012-05-26T12:54:34Z</time>
      </trkpt>
      <trkpt lat="43.77772" lon="7.36033">
        <ele>341.4052734375</ele>
        <time>2012-05-26T12:54:37Z</time>
      </trkpt>
      <trkpt lat="43.77773" lon="7.36046">
        <ele>342.36669921875</ele>
        <time>2012-05-26T12:54:41Z</time>
      </trkpt>
      <trkpt lat="43.77772" lon="7.36059">
        <ele>343.80859375</ele>
        <time>2012-05-26T12:54:46Z</time>
      </trkpt>
      <trkpt lat="43.77771" lon="7.36067">
        <ele>344.77001953125</ele>
        <time>2012-05-26T12:54:50Z</time>
      </trkpt>
      <trkpt lat="43.77771" lon="7.36078">
        <ele>346.69262695312</ele>
        <time>2012-05-26T12:54:57Z</time>
      </trkpt>
      <trkpt lat="43.77773" lon="7.36092">
        <ele>348.615234375</ele>
        <time>2012-05-26T12:55:03Z</time>
      </trkpt>
      <trkpt lat="43.77778" lon="7.36104">
        <ele>350.05725097656</ele>
        <time>2012-05-26T12:55:10Z</time>
      </trkpt>
      <trkpt lat="43.77782" lon="7.36112">
        <ele>352.46057128906</ele>
        <time>2012-05-26T12:55:16Z</time>
      </trkpt>
      <trkpt lat="43.77787" lon="7.36115">
        <ele>353.421875</ele>
        <time>2012-05-26T12:55:20Z</time>
      </trkpt>
      <trkpt lat="43.77799" lon="7.36118">
        <ele>355.34448242188</ele>
        <time>2012-05-26T12:55:29Z</time>
      </trkpt>
      <trkpt lat="43.77803" lon="7.36124">
        <ele>357.26708984375</ele>
        <time>2012-05-26T12:55:35Z</time>
      </trkpt>
      <trkpt lat="43.77809" lon="7.36135">
        <ele>360.15112304688</ele>
        <time>2012-05-26T12:55:45Z</time>
      </trkpt>
      <trkpt lat="43.77809" lon="7.36136">
        <ele>360.15112304688</ele>
        <time>2012-05-26T12:55:46Z</time>
      </trkpt>
      <trkpt lat="43.77813" lon="7.36146">
        <ele>363.03503417969</ele>
        <time>2012-05-26T12:55:53Z</time>
      </trkpt>
      <trkpt lat="43.77811" lon="7.36159">
        <ele>366.88024902344</ele>
        <time>2012-05-26T12:56:05Z</time>
      </trkpt>
      <trkpt lat="43.7781" lon="7.36161">
        <ele>367.36096191406</ele>
        <time>2012-05-26T12:56:06Z</time>
      </trkpt>
      <trkpt lat="43.77808" lon="7.36175">
        <ele>370.7255859375</ele>
        <time>2012-05-26T12:56:17Z</time>
      </trkpt>
      <trkpt lat="43.77809" lon="7.36185">
        <ele>373.12890625</ele>
        <time>2012-05-26T12:56:24Z</time>
      </trkpt>
      <trkpt lat="43.7781" lon="7.36198">
        <ele>376.01281738281</ele>
        <time>2012-05-26T12:56:36Z</time>
      </trkpt>
      <trkpt lat="43.77814" lon="7.36209">
        <ele>379.37744140625</ele>
        <time>2012-05-26T12:56:47Z</time>
      </trkpt>
      <trkpt lat="43.77818" lon="7.36222">
        <ele>382.74206542969</ele>
        <time>2012-05-26T12:56:58Z</time>
      </trkpt>
      <trkpt lat="43.77815" lon="7.36234">
        <ele>384.18408203125</ele>
        <time>2012-05-26T12:57:06Z</time>
      </trkpt>
      <trkpt lat="43.77816" lon="7.36244">
        <ele>387.54858398438</ele>
        <time>2012-05-26T12:57:17Z</time>
      </trkpt>
      <trkpt lat="43.77818" lon="7.36261">
        <ele>390.91320800781</ele>
        <time>2012-05-26T12:57:29Z</time>
      </trkpt>
      <trkpt lat="43.77822" lon="7.36269">
        <ele>392.8359375</ele>
        <time>2012-05-26T12:57:37Z</time>
      </trkpt>
      <trkpt lat="43.77824" lon="7.36282">
        <ele>395.23913574219</ele>
        <time>2012-05-26T12:57:46Z</time>
      </trkpt>
      <trkpt lat="43.77823" lon="7.36285">
        <ele>395.71984863281</ele>
        <time>2012-05-26T12:57:48Z</time>
      </trkpt>
      <trkpt lat="43.77803" lon="7.36306">
        <ele>395.71984863281</ele>
        <time>2012-05-26T12:57:56Z</time>
      </trkpt>
      <trkpt lat="43.778" lon="7.36306">
        <ele>395.23913574219</ele>
        <time>2012-05-26T12:57:57Z</time>
      </trkpt>
      <trkpt lat="43.77794" lon="7.36308">
        <ele>394.75854492188</ele>
        <time>2012-05-26T12:58:01Z</time>
      </trkpt>
      <trkpt lat="43.77789" lon="7.36312">
        <ele>394.75854492188</ele>
        <time>2012-05-26T12:58:03Z</time>
      </trkpt>
      <trkpt lat="43.77771" lon="7.36321">
        <ele>394.75854492188</ele>
        <time>2012-05-26T12:58:11Z</time>
      </trkpt>
      <trkpt lat="43.77764" lon="7.36324">
        <ele>395.23913574219</ele>
        <time>2012-05-26T12:58:14Z</time>
      </trkpt>
      <trkpt lat="43.77749" lon="7.36336">
        <ele>395.71984863281</ele>
        <time>2012-05-26T12:58:20Z</time>
      </trkpt>
      <trkpt lat="43.77725" lon="7.36351">
        <ele>395.23913574219</ele>
        <time>2012-05-26T12:58:28Z</time>
      </trkpt>
      <trkpt lat="43.77702" lon="7.36355">
        <ele>393.31652832031</ele>
        <time>2012-05-26T12:58:35Z</time>
      </trkpt>
      <trkpt lat="43.77675" lon="7.36339">
        <ele>394.27795410156</ele>
        <time>2012-05-26T12:58:46Z</time>
      </trkpt>
      <trkpt lat="43.77662" lon="7.36331">
        <ele>397.64245605469</ele>
        <time>2012-05-26T12:58:55Z</time>
      </trkpt>
      <trkpt lat="43.7766" lon="7.3633">
        <ele>398.12316894531</ele>
        <time>2012-05-26T12:58:57Z</time>
      </trkpt>
      <trkpt lat="43.77642" lon="7.36318">
        <ele>401.00708007812</ele>
        <time>2012-05-26T12:59:11Z</time>
      </trkpt>
      <trkpt lat="43.77624" lon="7.36304">
        <ele>404.37170410156</ele>
        <time>2012-05-26T12:59:25Z</time>
      </trkpt>
      <trkpt lat="43.77601" lon="7.36305">
        <ele>402.9296875</ele>
        <time>2012-05-26T12:59:36Z</time>
      </trkpt>
      <trkpt lat="43.77592" lon="7.36311">
        <ele>400.0458984375</ele>
        <time>2012-05-26T12:59:39Z</time>
      </trkpt>
      <trkpt lat="43.77588" lon="7.36314">
        <ele>400.0458984375</ele>
        <time>2012-05-26T12:59:40Z</time>
      </trkpt>
      <trkpt lat="43.77582" lon="7.36319">
        <ele>398.12316894531</ele>
        <time>2012-05-26T12:59:42Z</time>
      </trkpt>
      <trkpt lat="43.77579" lon="7.36323">
        <ele>396.68115234375</ele>
        <time>2012-05-26T12:59:43Z</time>
      </trkpt>
      <trkpt lat="43.77566" lon="7.36337">
        <ele>394.27795410156</ele>
        <time>2012-05-26T12:59:47Z</time>
      </trkpt>
      <trkpt lat="43.77554" lon="7.36361">
        <ele>394.75854492188</ele>
        <time>2012-05-26T12:59:55Z</time>
      </trkpt>
      <trkpt lat="43.77543" lon="7.36385">
        <ele>397.64245605469</ele>
        <time>2012-05-26T13:00:08Z</time>
      </trkpt>
      <trkpt lat="43.77542" lon="7.36387">
        <ele>399.08435058594</ele>
        <time>2012-05-26T13:00:13Z</time>
      </trkpt>
      <trkpt lat="43.77542" lon="7.36387">
        <ele>400.0458984375</ele>
        <time>2012-05-26T13:00:17Z</time>
      </trkpt>
      <trkpt lat="43.77542" lon="7.36387">
        <ele>402.44909667969</ele>
        <time>2012-05-26T13:00:24Z</time>
      </trkpt>
      <trkpt lat="43.77542" lon="7.36387">
        <ele>405.81372070312</ele>
        <time>2012-05-26T13:00:34Z</time>
      </trkpt>
      <trkpt lat="43.77542" lon="7.36387">
        <ele>408.69763183594</ele>
        <time>2012-05-26T13:00:45Z</time>
      </trkpt>
      <trkpt lat="43.77511" lon="7.36426">
        <ele>412.06225585938</ele>
        <time>2012-05-26T13:00:55Z</time>
      </trkpt>
      <trkpt lat="43.77511" lon="7.36426">
        <ele>413.98486328125</ele>
        <time>2012-05-26T13:01:01Z</time>
      </trkpt>
      <trkpt lat="43.77494" lon="7.36439">
        <ele>416.38818359375</ele>
        <time>2012-05-26T13:01:08Z</time>
      </trkpt>
      <trkpt lat="43.77479" lon="7.36417">
        <ele>416.38818359375</ele>
        <time>2012-05-26T13:01:17Z</time>
      </trkpt>
      <trkpt lat="43.77477" lon="7.36414">
        <ele>415.42687988281</ele>
        <time>2012-05-26T13:01:18Z</time>
      </trkpt>
      <trkpt lat="43.7747" lon="7.36403">
        <ele>415.42687988281</ele>
        <time>2012-05-26T13:01:21Z</time>
      </trkpt>
      <trkpt lat="43.77461" lon="7.36384">
        <ele>414.46545410156</ele>
        <time>2012-05-26T13:01:26Z</time>
      </trkpt>
      <trkpt lat="43.77453" lon="7.3636">
        <ele>414.94616699219</ele>
        <time>2012-05-26T13:01:33Z</time>
      </trkpt>
      <trkpt lat="43.77452" lon="7.36357">
        <ele>414.94616699219</ele>
        <time>2012-05-26T13:01:34Z</time>
      </trkpt>
      <trkpt lat="43.77432" lon="7.36324">
        <ele>417.349609375</ele>
        <time>2012-05-26T13:01:45Z</time>
      </trkpt>
      <trkpt lat="43.77422" lon="7.36313">
        <ele>417.349609375</ele>
        <time>2012-05-26T13:01:50Z</time>
      </trkpt>
      <trkpt lat="43.77417" lon="7.36309">
        <ele>418.31079101562</ele>
        <time>2012-05-26T13:01:52Z</time>
      </trkpt>
      <trkpt lat="43.77397" lon="7.36291">
        <ele>421.19482421875</ele>
        <time>2012-05-26T13:02:03Z</time>
      </trkpt>
      <trkpt lat="43.77377" lon="7.36278">
        <ele>423.11743164062</ele>
        <time>2012-05-26T13:02:13Z</time>
      </trkpt>
      <trkpt lat="43.77374" lon="7.36273">
        <ele>424.07873535156</ele>
        <time>2012-05-26T13:02:15Z</time>
      </trkpt>
      <trkpt lat="43.77362" lon="7.36243">
        <ele>421.19482421875</ele>
        <time>2012-05-26T13:02:24Z</time>
      </trkpt>
      <trkpt lat="43.7736" lon="7.36239">
        <ele>420.71411132812</ele>
        <time>2012-05-26T13:02:25Z</time>
      </trkpt>
      <trkpt lat="43.77357" lon="7.36225">
        <ele>418.31079101562</ele>
        <time>2012-05-26T13:02:29Z</time>
      </trkpt>
      <trkpt lat="43.77356" lon="7.36221">
        <ele>417.349609375</ele>
        <time>2012-05-26T13:02:30Z</time>
      </trkpt>
      <trkpt lat="43.77356" lon="7.36209">
        <ele>415.42687988281</ele>
        <time>2012-05-26T13:02:33Z</time>
      </trkpt>
      <trkpt lat="43.77356" lon="7.36204">
        <ele>414.46545410156</ele>
        <time>2012-05-26T13:02:34Z</time>
      </trkpt>
      <trkpt lat="43.77358" lon="7.36195">
        <ele>413.02355957031</ele>
        <time>2012-05-26T13:02:36Z</time>
      </trkpt>
      <trkpt lat="43.77355" lon="7.36169">
        <ele>410.62023925781</ele>
        <time>2012-05-26T13:02:40Z</time>
      </trkpt>
      <trkpt lat="43.77355" lon="7.36163">
        <ele>408.69763183594</ele>
        <time>2012-05-26T13:02:41Z</time>
      </trkpt>
      <trkpt lat="43.77351" lon="7.36142">
        <ele>406.29431152344</ele>
        <time>2012-05-26T13:02:45Z</time>
      </trkpt>
      <trkpt lat="43.77347" lon="7.36118">
        <ele>404.85229492188</ele>
        <time>2012-05-26T13:02:49Z</time>
      </trkpt>
      <trkpt lat="43.77343" lon="7.36101">
        <ele>402.9296875</ele>
        <time>2012-05-26T13:02:52Z</time>
      </trkpt>
      <trkpt lat="43.77336" lon="7.3607">
        <ele>400.0458984375</ele>
        <time>2012-05-26T13:02:58Z</time>
      </trkpt>
      <trkpt lat="43.77334" lon="7.36066">
        <ele>400.0458984375</ele>
        <time>2012-05-26T13:02:59Z</time>
      </trkpt>
      <trkpt lat="43.77312" lon="7.36019">
        <ele>397.16174316406</ele>
        <time>2012-05-26T13:03:09Z</time>
      </trkpt>
      <trkpt lat="43.773" lon="7.36">
        <ele>397.16174316406</ele>
        <time>2012-05-26T13:03:15Z</time>
      </trkpt>
      <trkpt lat="43.77293" lon="7.35992">
        <ele>397.64245605469</ele>
        <time>2012-05-26T13:03:18Z</time>
      </trkpt>
      <trkpt lat="43.77287" lon="7.35976">
        <ele>398.60375976562</ele>
        <time>2012-05-26T13:03:23Z</time>
      </trkpt>
      <trkpt lat="43.77286" lon="7.35966">
        <ele>398.60375976562</ele>
        <time>2012-05-26T13:03:25Z</time>
      </trkpt>
      <trkpt lat="43.77281" lon="7.35956">
        <ele>397.64245605469</ele>
        <time>2012-05-26T13:03:28Z</time>
      </trkpt>
      <trkpt lat="43.77279" lon="7.35949">
        <ele>395.71984863281</ele>
        <time>2012-05-26T13:03:33Z</time>
      </trkpt>
      <trkpt lat="43.77279" lon="7.35949">
        <ele>392.8359375</ele>
        <time>2012-05-26T13:03:36Z</time>
      </trkpt>
      <trkpt lat="43.77272" lon="7.35925">
        <ele>392.35534667969</ele>
        <time>2012-05-26T13:03:38Z</time>
      </trkpt>
      <trkpt lat="43.7727" lon="7.35915">
        <ele>387.54858398438</ele>
        <time>2012-05-26T13:03:42Z</time>
      </trkpt>
      <trkpt lat="43.7727" lon="7.35911">
        <ele>387.54858398438</ele>
        <time>2012-05-26T13:03:43Z</time>
      </trkpt>
      <trkpt lat="43.77267" lon="7.35904">
        <ele>386.10668945312</ele>
        <time>2012-05-26T13:03:45Z</time>
      </trkpt>
      <trkpt lat="43.77258" lon="7.35893">
        <ele>382.26135253906</ele>
        <time>2012-05-26T13:03:49Z</time>
      </trkpt>
      <trkpt lat="43.77256" lon="7.35888">
        <ele>382.26135253906</ele>
        <time>2012-05-26T13:03:50Z</time>
      </trkpt>
      <trkpt lat="43.77249" lon="7.35856">
        <ele>378.41613769531</ele>
        <time>2012-05-26T13:03:57Z</time>
      </trkpt>
      <trkpt lat="43.77258" lon="7.35845">
        <ele>376.97424316406</ele>
        <time>2012-05-26T13:04:01Z</time>
      </trkpt>
      <trkpt lat="43.77268" lon="7.35851">
        <ele>377.93542480469</ele>
        <time>2012-05-26T13:04:09Z</time>
      </trkpt>
      <trkpt lat="43.77271" lon="7.35856">
        <ele>378.41613769531</ele>
        <time>2012-05-26T13:04:12Z</time>
      </trkpt>
      <trkpt lat="43.77291" lon="7.35891">
        <ele>380.33874511719</ele>
        <time>2012-05-26T13:04:25Z</time>
      </trkpt>
      <trkpt lat="43.77314" lon="7.35915">
        <ele>378.41613769531</ele>
        <time>2012-05-26T13:04:34Z</time>
      </trkpt>
      <trkpt lat="43.77326" lon="7.35932">
        <ele>377.93542480469</ele>
        <time>2012-05-26T13:04:39Z</time>
      </trkpt>
      <trkpt lat="43.77356" lon="7.35965">
        <ele>376.97424316406</ele>
        <time>2012-05-26T13:04:50Z</time>
      </trkpt>
      <trkpt lat="43.77375" lon="7.35988">
        <ele>378.41613769531</ele>
        <time>2012-05-26T13:05:00Z</time>
      </trkpt>
      <trkpt lat="43.77376" lon="7.35991">
        <ele>378.41613769531</ele>
        <time>2012-05-26T13:05:01Z</time>
      </trkpt>
      <trkpt lat="43.77389" lon="7.36027">
        <ele>379.85803222656</ele>
        <time>2012-05-26T13:05:13Z</time>
      </trkpt>
      <trkpt lat="43.77389" lon="7.36037">
        <ele>380.33874511719</ele>
        <time>2012-05-26T13:05:15Z</time>
      </trkpt>
      <trkpt lat="43.77389" lon="7.3605">
        <ele>381.30004882812</ele>
        <time>2012-05-26T13:05:20Z</time>
      </trkpt>
      <trkpt lat="43.77392" lon="7.36073">
        <ele>383.22265625</ele>
        <time>2012-05-26T13:05:27Z</time>
      </trkpt>
      <trkpt lat="43.77396" lon="7.36085">
        <ele>382.26135253906</ele>
        <time>2012-05-26T13:05:30Z</time>
      </trkpt>
      <trkpt lat="43.77409" lon="7.36125">
        <ele>381.30004882812</ele>
        <time>2012-05-26T13:05:39Z</time>
      </trkpt>
      <trkpt lat="43.77424" lon="7.36152">
        <ele>382.74206542969</ele>
        <time>2012-05-26T13:05:48Z</time>
      </trkpt>
      <trkpt lat="43.7744" lon="7.36169">
        <ele>384.66479492188</ele>
        <time>2012-05-26T13:05:56Z</time>
      </trkpt>
      <trkpt lat="43.77441" lon="7.36172">
        <ele>384.66479492188</ele>
        <time>2012-05-26T13:05:57Z</time>
      </trkpt>
      <trkpt lat="43.77442" lon="7.36178">
        <ele>384.66479492188</ele>
        <time>2012-05-26T13:05:59Z</time>
      </trkpt>
      <trkpt lat="43.77449" lon="7.36188">
        <ele>384.18408203125</ele>
        <time>2012-05-26T13:06:03Z</time>
      </trkpt>
      <trkpt lat="43.77455" lon="7.36196">
        <ele>384.18408203125</ele>
        <time>2012-05-26T13:06:06Z</time>
      </trkpt>
      <trkpt lat="43.77463" lon="7.36201">
        <ele>382.74206542969</ele>
        <time>2012-05-26T13:06:10Z</time>
      </trkpt>
      <trkpt lat="43.77468" lon="7.36205">
        <ele>380.81945800781</ele>
        <time>2012-05-26T13:06:13Z</time>
      </trkpt>
      <trkpt lat="43.77475" lon="7.36194">
        <ele>379.37744140625</ele>
        <time>2012-05-26T13:06:16Z</time>
      </trkpt>
      <trkpt lat="43.77474" lon="7.36189">
        <ele>378.41613769531</ele>
        <time>2012-05-26T13:06:18Z</time>
      </trkpt>
      <trkpt lat="43.77466" lon="7.36168">
        <ele>376.49353027344</ele>
        <time>2012-05-26T13:06:25Z</time>
      </trkpt>
      <trkpt lat="43.7744" lon="7.36123">
        <ele>372.16748046875</ele>
        <time>2012-05-26T13:06:35Z</time>
      </trkpt>
      <trkpt lat="43.77433" lon="7.36105">
        <ele>370.7255859375</ele>
        <time>2012-05-26T13:06:39Z</time>
      </trkpt>
      <trkpt lat="43.77428" lon="7.36072">
        <ele>369.28369140625</ele>
        <time>2012-05-26T13:06:46Z</time>
      </trkpt>
      <trkpt lat="43.77429" lon="7.36031">
        <ele>366.39953613281</ele>
        <time>2012-05-26T13:06:55Z</time>
      </trkpt>
      <trkpt lat="43.77431" lon="7.35993">
        <ele>363.51574707031</ele>
        <time>2012-05-26T13:07:03Z</time>
      </trkpt>
      <trkpt lat="43.77429" lon="7.35975">
        <ele>362.07373046875</ele>
        <time>2012-05-26T13:07:07Z</time>
      </trkpt>
      <trkpt lat="43.77417" lon="7.35946">
        <ele>360.15112304688</ele>
        <time>2012-05-26T13:07:14Z</time>
      </trkpt>
      <trkpt lat="43.77402" lon="7.35934">
        <ele>357.74780273438</ele>
        <time>2012-05-26T13:07:19Z</time>
      </trkpt>
      <trkpt lat="43.77395" lon="7.35918">
        <ele>357.26708984375</ele>
        <time>2012-05-26T13:07:23Z</time>
      </trkpt>
      <trkpt lat="43.77389" lon="7.35906">
        <ele>354.38317871094</ele>
        <time>2012-05-26T13:07:29Z</time>
      </trkpt>
      <trkpt lat="43.77387" lon="7.35904">
        <ele>354.38317871094</ele>
        <time>2012-05-26T13:07:30Z</time>
      </trkpt>
      <trkpt lat="43.77375" lon="7.35889">
        <ele>352.46057128906</ele>
        <time>2012-05-26T13:07:36Z</time>
      </trkpt>
      <trkpt lat="43.77362" lon="7.35861">
        <ele>351.01843261719</ele>
        <time>2012-05-26T13:07:45Z</time>
      </trkpt>
      <trkpt lat="43.77361" lon="7.35859">
        <ele>351.01843261719</ele>
        <time>2012-05-26T13:07:46Z</time>
      </trkpt>
      <trkpt lat="43.77346" lon="7.35824">
        <ele>349.09582519531</ele>
        <time>2012-05-26T13:07:56Z</time>
      </trkpt>
      <trkpt lat="43.77344" lon="7.3582">
        <ele>349.09582519531</ele>
        <time>2012-05-26T13:07:57Z</time>
      </trkpt>
      <trkpt lat="43.7734" lon="7.35797">
        <ele>349.09582519531</ele>
        <time>2012-05-26T13:08:04Z</time>
      </trkpt>
      <trkpt lat="43.7731" lon="7.35748">
        <ele>349.09582519531</ele>
        <time>2012-05-26T13:08:17Z</time>
      </trkpt>
      <trkpt lat="43.7729" lon="7.35728">
        <ele>351.01843261719</ele>
        <time>2012-05-26T13:08:27Z</time>
      </trkpt>
      <trkpt lat="43.77268" lon="7.35706">
        <ele>350.05725097656</ele>
        <time>2012-05-26T13:08:36Z</time>
      </trkpt>
      <trkpt lat="43.7725" lon="7.35685">
        <ele>349.09582519531</ele>
        <time>2012-05-26T13:08:44Z</time>
      </trkpt>
      <trkpt lat="43.77209" lon="7.35653">
        <ele>348.615234375</ele>
        <time>2012-05-26T13:09:00Z</time>
      </trkpt>
      <trkpt lat="43.77188" lon="7.35637">
        <ele>349.09582519531</ele>
        <time>2012-05-26T13:09:09Z</time>
      </trkpt>
      <trkpt lat="43.77172" lon="7.35626">
        <ele>348.13464355469</ele>
        <time>2012-05-26T13:09:15Z</time>
      </trkpt>
      <trkpt lat="43.7716" lon="7.35628">
        <ele>347.17321777344</ele>
        <time>2012-05-26T13:09:18Z</time>
      </trkpt>
      <trkpt lat="43.77131" lon="7.35648">
        <ele>344.28942871094</ele>
        <time>2012-05-26T13:09:28Z</time>
      </trkpt>
      <trkpt lat="43.77114" lon="7.35667">
        <ele>341.88598632812</ele>
        <time>2012-05-26T13:09:34Z</time>
      </trkpt>
      <trkpt lat="43.77107" lon="7.35672">
        <ele>340.92468261719</ele>
        <time>2012-05-26T13:09:36Z</time>
      </trkpt>
      <trkpt lat="43.77088" lon="7.35696">
        <ele>339.00207519531</ele>
        <time>2012-05-26T13:09:44Z</time>
      </trkpt>
      <trkpt lat="43.77082" lon="7.35703">
        <ele>337.56005859375</ele>
        <time>2012-05-26T13:09:47Z</time>
      </trkpt>
      <trkpt lat="43.77078" lon="7.35711">
        <ele>336.59887695312</ele>
        <time>2012-05-26T13:09:49Z</time>
      </trkpt>
      <trkpt lat="43.77072" lon="7.35711">
        <ele>335.63732910156</ele>
        <time>2012-05-26T13:09:51Z</time>
      </trkpt>
      <trkpt lat="43.77068" lon="7.3571">
        <ele>335.15673828125</ele>
        <time>2012-05-26T13:09:53Z</time>
      </trkpt>
      <trkpt lat="43.77061" lon="7.35715">
        <ele>331.79211425781</ele>
        <time>2012-05-26T13:09:57Z</time>
      </trkpt>
      <trkpt lat="43.77058" lon="7.35713">
        <ele>329.86950683594</ele>
        <time>2012-05-26T13:10:01Z</time>
      </trkpt>
      <trkpt lat="43.77061" lon="7.35706">
        <ele>327.46618652344</ele>
        <time>2012-05-26T13:10:05Z</time>
      </trkpt>
      <trkpt lat="43.77062" lon="7.35703">
        <ele>326.5048828125</ele>
        <time>2012-05-26T13:10:06Z</time>
      </trkpt>
      <trkpt lat="43.77065" lon="7.35695">
        <ele>324.58227539062</ele>
        <time>2012-05-26T13:10:09Z</time>
      </trkpt>
      <trkpt lat="43.7707" lon="7.35685">
        <ele>321.69836425781</ele>
        <time>2012-05-26T13:10:12Z</time>
      </trkpt>
      <trkpt lat="43.77073" lon="7.35678">
        <ele>320.25634765625</ele>
        <time>2012-05-26T13:10:14Z</time>
      </trkpt>
      <trkpt lat="43.77086" lon="7.35672">
        <ele>317.37243652344</ele>
        <time>2012-05-26T13:10:17Z</time>
      </trkpt>
      <trkpt lat="43.7709" lon="7.35663">
        <ele>314.96911621094</ele>
        <time>2012-05-26T13:10:19Z</time>
      </trkpt>
      <trkpt lat="43.77093" lon="7.35655">
        <ele>314.0078125</ele>
        <time>2012-05-26T13:10:21Z</time>
      </trkpt>
      <trkpt lat="43.77095" lon="7.3565">
        <ele>312.08520507812</ele>
        <time>2012-05-26T13:10:23Z</time>
      </trkpt>
      <trkpt lat="43.77097" lon="7.35647">
        <ele>311.6044921875</ele>
        <time>2012-05-26T13:10:24Z</time>
      </trkpt>
      <trkpt lat="43.77099" lon="7.35641">
        <ele>309.201171875</ele>
        <time>2012-05-26T13:10:26Z</time>
      </trkpt>
      <trkpt lat="43.77102" lon="7.35634">
        <ele>307.27856445312</ele>
        <time>2012-05-26T13:10:28Z</time>
      </trkpt>
      <trkpt lat="43.77107" lon="7.35618">
        <ele>306.31726074219</ele>
        <time>2012-05-26T13:10:30Z</time>
      </trkpt>
      <trkpt lat="43.77108" lon="7.35614">
        <ele>303.91394042969</ele>
        <time>2012-05-26T13:10:31Z</time>
      </trkpt>
      <trkpt lat="43.7708" lon="7.35597">
        <ele>301.99133300781</ele>
        <time>2012-05-26T13:10:33Z</time>
      </trkpt>
      <trkpt lat="43.7708" lon="7.35585">
        <ele>300.54931640625</ele>
        <time>2012-05-26T13:10:35Z</time>
      </trkpt>
      <trkpt lat="43.7708" lon="7.35572">
        <ele>299.10729980469</ele>
        <time>2012-05-26T13:10:37Z</time>
      </trkpt>
      <trkpt lat="43.77078" lon="7.35559">
        <ele>297.18469238281</ele>
        <time>2012-05-26T13:10:39Z</time>
      </trkpt>
      <trkpt lat="43.77077" lon="7.35554">
        <ele>295.74267578125</ele>
        <time>2012-05-26T13:10:40Z</time>
      </trkpt>
      <trkpt lat="43.77073" lon="7.35516">
        <ele>291.8974609375</ele>
        <time>2012-05-26T13:10:47Z</time>
      </trkpt>
      <trkpt lat="43.77073" lon="7.3551">
        <ele>290.93615722656</ele>
        <time>2012-05-26T13:10:49Z</time>
      </trkpt>
      <trkpt lat="43.77071" lon="7.35489">
        <ele>289.01354980469</ele>
        <time>2012-05-26T13:10:53Z</time>
      </trkpt>
      <trkpt lat="43.77069" lon="7.35477">
        <ele>286.12951660156</ele>
        <time>2012-05-26T13:10:56Z</time>
      </trkpt>
      <trkpt lat="43.77068" lon="7.35466">
        <ele>283.72619628906</ele>
        <time>2012-05-26T13:10:59Z</time>
      </trkpt>
      <trkpt lat="43.77066" lon="7.35453">
        <ele>280.36169433594</ele>
        <time>2012-05-26T13:11:02Z</time>
      </trkpt>
      <trkpt lat="43.77064" lon="7.35437">
        <ele>278.91967773438</ele>
        <time>2012-05-26T13:11:05Z</time>
      </trkpt>
      <trkpt lat="43.77061" lon="7.35413">
        <ele>277.47766113281</ele>
        <time>2012-05-26T13:11:07Z</time>
      </trkpt>
      <trkpt lat="43.77059" lon="7.35395">
        <ele>274.59375</ele>
        <time>2012-05-26T13:11:10Z</time>
      </trkpt>
      <trkpt lat="43.77057" lon="7.35383">
        <ele>273.15185546875</ele>
        <time>2012-05-26T13:11:12Z</time>
      </trkpt>
      <trkpt lat="43.77056" lon="7.35374">
        <ele>271.70971679688</ele>
        <time>2012-05-26T13:11:14Z</time>
      </trkpt>
      <trkpt lat="43.77055" lon="7.35358">
        <ele>268.34509277344</ele>
        <time>2012-05-26T13:11:17Z</time>
      </trkpt>
      <trkpt lat="43.77054" lon="7.3534">
        <ele>265.46130371094</ele>
        <time>2012-05-26T13:11:21Z</time>
      </trkpt>
      <trkpt lat="43.77053" lon="7.35336">
        <ele>264.49987792969</ele>
        <time>2012-05-26T13:11:22Z</time>
      </trkpt>
      <trkpt lat="43.77049" lon="7.35319">
        <ele>260.65454101562</ele>
        <time>2012-05-26T13:11:25Z</time>
      </trkpt>
      <trkpt lat="43.77047" lon="7.35312">
        <ele>260.65454101562</ele>
        <time>2012-05-26T13:11:26Z</time>
      </trkpt>
      <trkpt lat="43.77045" lon="7.35304">
        <ele>259.21264648438</ele>
        <time>2012-05-26T13:11:28Z</time>
      </trkpt>
      <trkpt lat="43.77039" lon="7.35291">
        <ele>254.40600585938</ele>
        <time>2012-05-26T13:11:32Z</time>
      </trkpt>
      <trkpt lat="43.77038" lon="7.35289">
        <ele>254.40600585938</ele>
        <time>2012-05-26T13:11:33Z</time>
      </trkpt>
      <trkpt lat="43.77029" lon="7.35272">
        <ele>251.52209472656</ele>
        <time>2012-05-26T13:11:37Z</time>
      </trkpt>
      <trkpt lat="43.77025" lon="7.35266">
        <ele>248.15759277344</ele>
        <time>2012-05-26T13:11:39Z</time>
      </trkpt>
      <trkpt lat="43.77024" lon="7.35263">
        <ele>248.15759277344</ele>
        <time>2012-05-26T13:11:40Z</time>
      </trkpt>
      <trkpt lat="43.7702" lon="7.35255">
        <ele>246.71545410156</ele>
        <time>2012-05-26T13:11:42Z</time>
      </trkpt>
      <trkpt lat="43.77018" lon="7.35249">
        <ele>245.2734375</ele>
        <time>2012-05-26T13:11:44Z</time>
      </trkpt>
      <trkpt lat="43.77015" lon="7.35243">
        <ele>241.90893554688</ele>
        <time>2012-05-26T13:11:46Z</time>
      </trkpt>
      <trkpt lat="43.77014" lon="7.35239">
        <ele>241.90893554688</ele>
        <time>2012-05-26T13:11:47Z</time>
      </trkpt>
      <trkpt lat="43.77009" lon="7.35231">
        <ele>239.98620605469</ele>
        <time>2012-05-26T13:11:49Z</time>
      </trkpt>
      <trkpt lat="43.77007" lon="7.35225">
        <ele>238.54431152344</ele>
        <time>2012-05-26T13:11:51Z</time>
      </trkpt>
      <trkpt lat="43.77" lon="7.35212">
        <ele>235.66027832031</ele>
        <time>2012-05-26T13:11:54Z</time>
      </trkpt>
      <trkpt lat="43.76997" lon="7.35207">
        <ele>233.73767089844</ele>
        <time>2012-05-26T13:11:56Z</time>
      </trkpt>
      <trkpt lat="43.76994" lon="7.352">
        <ele>231.81494140625</ele>
        <time>2012-05-26T13:11:58Z</time>
      </trkpt>
      <trkpt lat="43.7699" lon="7.35194">
        <ele>229.41174316406</ele>
        <time>2012-05-26T13:12:01Z</time>
      </trkpt>
      <trkpt lat="43.76988" lon="7.35189">
        <ele>227.9697265625</ele>
        <time>2012-05-26T13:12:03Z</time>
      </trkpt>
      <trkpt lat="43.76987" lon="7.35187">
        <ele>226.52783203125</ele>
        <time>2012-05-26T13:12:04Z</time>
      </trkpt>
      <trkpt lat="43.7699" lon="7.35179">
        <ele>227.00854492188</ele>
        <time>2012-05-26T13:12:07Z</time>
      </trkpt>
      <trkpt lat="43.76993" lon="7.3517">
        <ele>225.56652832031</ele>
        <time>2012-05-26T13:12:13Z</time>
      </trkpt>
      <trkpt lat="43.76999" lon="7.35175">
        <ele>227.00854492188</ele>
        <time>2012-05-26T13:12:17Z</time>
      </trkpt>
      <trkpt lat="43.77007" lon="7.35189">
        <ele>228.93115234375</ele>
        <time>2012-05-26T13:12:24Z</time>
      </trkpt>
      <trkpt lat="43.77008" lon="7.3519">
        <ele>229.89233398438</ele>
        <time>2012-05-26T13:12:25Z</time>
      </trkpt>
      <trkpt lat="43.77031" lon="7.35204">
        <ele>232.77648925781</ele>
        <time>2012-05-26T13:12:37Z</time>
      </trkpt>
      <trkpt lat="43.7704" lon="7.35213">
        <ele>235.1796875</ele>
        <time>2012-05-26T13:12:49Z</time>
      </trkpt>
      <trkpt lat="43.77042" lon="7.35216">
        <ele>236.62170410156</ele>
        <time>2012-05-26T13:12:53Z</time>
      </trkpt>
      <trkpt lat="43.77044" lon="7.35219">
        <ele>237.10229492188</ele>
        <time>2012-05-26T13:12:55Z</time>
      </trkpt>
      <trkpt lat="43.77051" lon="7.35221">
        <ele>237.10229492188</ele>
        <time>2012-05-26T13:12:59Z</time>
      </trkpt>
      <trkpt lat="43.77065" lon="7.35232">
        <ele>238.06359863281</ele>
        <time>2012-05-26T13:13:07Z</time>
      </trkpt>
      <trkpt lat="43.7707" lon="7.35243">
        <ele>240.46704101562</ele>
        <time>2012-05-26T13:13:15Z</time>
      </trkpt>
      <trkpt lat="43.7708" lon="7.35259">
        <ele>244.31225585938</ele>
        <time>2012-05-26T13:13:27Z</time>
      </trkpt>
      <trkpt lat="43.77089" lon="7.35268">
        <ele>244.79284667969</ele>
        <time>2012-05-26T13:13:33Z</time>
      </trkpt>
      <trkpt lat="43.7711" lon="7.35282">
        <ele>245.75415039062</ele>
        <time>2012-05-26T13:13:40Z</time>
      </trkpt>
      <trkpt lat="43.77127" lon="7.35303">
        <ele>248.15759277344</ele>
        <time>2012-05-26T13:13:52Z</time>
      </trkpt>
      <trkpt lat="43.77159" lon="7.35316">
        <ele>245.75415039062</ele>
        <time>2012-05-26T13:14:01Z</time>
      </trkpt>
      <trkpt lat="43.77165" lon="7.35319">
        <ele>244.79284667969</ele>
        <time>2012-05-26T13:14:03Z</time>
      </trkpt>
      <trkpt lat="43.77182" lon="7.35335">
        <ele>240.94763183594</ele>
        <time>2012-05-26T13:14:10Z</time>
      </trkpt>
      <trkpt lat="43.77196" lon="7.35337">
        <ele>239.02490234375</ele>
        <time>2012-05-26T13:14:13Z</time>
      </trkpt>
      <trkpt lat="43.77204" lon="7.3534">
        <ele>236.62170410156</ele>
        <time>2012-05-26T13:14:17Z</time>
      </trkpt>
      <trkpt lat="43.77209" lon="7.35341">
        <ele>235.1796875</ele>
        <time>2012-05-26T13:14:19Z</time>
      </trkpt>
      <trkpt lat="43.77215" lon="7.35337">
        <ele>232.77648925781</ele>
        <time>2012-05-26T13:14:22Z</time>
      </trkpt>
      <trkpt lat="43.77219" lon="7.35335">
        <ele>231.33435058594</ele>
        <time>2012-05-26T13:14:24Z</time>
      </trkpt>
      <trkpt lat="43.77221" lon="7.35333">
        <ele>232.77648925781</ele>
        <time>2012-05-26T13:14:26Z</time>
      </trkpt>
      <trkpt lat="43.77229" lon="7.35323">
        <ele>234.21838378906</ele>
        <time>2012-05-26T13:14:35Z</time>
      </trkpt>
      <trkpt lat="43.77231" lon="7.35318">
        <ele>234.21838378906</ele>
        <time>2012-05-26T13:14:38Z</time>
      </trkpt>
      <trkpt lat="43.77238" lon="7.3531">
        <ele>236.14099121094</ele>
        <time>2012-05-26T13:14:47Z</time>
      </trkpt>
      <trkpt lat="43.77234" lon="7.35289">
        <ele>237.58288574219</ele>
        <time>2012-05-26T13:14:54Z</time>
      </trkpt>
      <trkpt lat="43.77232" lon="7.35282">
        <ele>238.06359863281</ele>
        <time>2012-05-26T13:14:56Z</time>
      </trkpt>
      <trkpt lat="43.77224" lon="7.35274">
        <ele>238.06359863281</ele>
        <time>2012-05-26T13:15:00Z</time>
      </trkpt>
      <trkpt lat="43.77202" lon="7.35242">
        <ele>236.62170410156</ele>
        <time>2012-05-26T13:15:10Z</time>
      </trkpt>
      <trkpt lat="43.77185" lon="7.35215">
        <ele>234.69909667969</ele>
        <time>2012-05-26T13:15:18Z</time>
      </trkpt>
      <trkpt lat="43.77178" lon="7.35203">
        <ele>233.25708007812</ele>
        <time>2012-05-26T13:15:22Z</time>
      </trkpt>
      <trkpt lat="43.77168" lon="7.35179">
        <ele>231.81494140625</ele>
        <time>2012-05-26T13:15:28Z</time>
      </trkpt>
      <trkpt lat="43.77166" lon="7.35165">
        <ele>230.373046875</ele>
        <time>2012-05-26T13:15:31Z</time>
      </trkpt>
      <trkpt lat="43.7717" lon="7.3516">
        <ele>228.93115234375</ele>
        <time>2012-05-26T13:15:33Z</time>
      </trkpt>
      <trkpt lat="43.77177" lon="7.35153">
        <ele>228.45043945312</ele>
        <time>2012-05-26T13:15:36Z</time>
      </trkpt>
      <trkpt lat="43.7717" lon="7.35142">
        <ele>227.9697265625</ele>
        <time>2012-05-26T13:15:41Z</time>
      </trkpt>
      <trkpt lat="43.77171" lon="7.35087">
        <ele>227.9697265625</ele>
        <time>2012-05-26T13:15:49Z</time>
      </trkpt>
      <trkpt lat="43.77169" lon="7.35083">
        <ele>227.9697265625</ele>
        <time>2012-05-26T13:15:50Z</time>
      </trkpt>
      <trkpt lat="43.77152" lon="7.35057">
        <ele>227.48913574219</ele>
        <time>2012-05-26T13:15:57Z</time>
      </trkpt>
      <trkpt lat="43.77142" lon="7.3505">
        <ele>228.93115234375</ele>
        <time>2012-05-26T13:16:02Z</time>
      </trkpt>
      <trkpt lat="43.77128" lon="7.35031">
        <ele>230.373046875</ele>
        <time>2012-05-26T13:16:13Z</time>
      </trkpt>
      <trkpt lat="43.77106" lon="7.34989">
        <ele>231.33435058594</ele>
        <time>2012-05-26T13:16:26Z</time>
      </trkpt>
      <trkpt lat="43.77098" lon="7.34954">
        <ele>230.85375976562</ele>
        <time>2012-05-26T13:16:37Z</time>
      </trkpt>
      <trkpt lat="43.77095" lon="7.3493">
        <ele>230.373046875</ele>
        <time>2012-05-26T13:16:44Z</time>
      </trkpt>
      <trkpt lat="43.77095" lon="7.34927">
        <ele>230.373046875</ele>
        <time>2012-05-26T13:16:45Z</time>
      </trkpt>
      <trkpt lat="43.77045" lon="7.34905">
        <ele>227.48913574219</ele>
        <time>2012-05-26T13:16:54Z</time>
      </trkpt>
      <trkpt lat="43.77043" lon="7.34901">
        <ele>227.48913574219</ele>
        <time>2012-05-26T13:16:55Z</time>
      </trkpt>
      <trkpt lat="43.77031" lon="7.3488">
        <ele>223.64379882812</ele>
        <time>2012-05-26T13:17:01Z</time>
      </trkpt>
      <trkpt lat="43.7702" lon="7.34863">
        <ele>222.20178222656</ele>
        <time>2012-05-26T13:17:06Z</time>
      </trkpt>
      <trkpt lat="43.77" lon="7.34843">
        <ele>219.31799316406</ele>
        <time>2012-05-26T13:17:11Z</time>
      </trkpt>
      <trkpt lat="43.76997" lon="7.34835">
        <ele>220.75988769531</ele>
        <time>2012-05-26T13:17:14Z</time>
      </trkpt>
      <trkpt lat="43.76999" lon="7.34828">
        <ele>222.20178222656</ele>
        <time>2012-05-26T13:17:18Z</time>
      </trkpt>
      <trkpt lat="43.77002" lon="7.34829">
        <ele>223.16320800781</ele>
        <time>2012-05-26T13:17:20Z</time>
      </trkpt>
      <trkpt lat="43.77018" lon="7.34839">
        <ele>226.04711914062</ele>
        <time>2012-05-26T13:17:31Z</time>
      </trkpt>
      <trkpt lat="43.7703" lon="7.34849">
        <ele>227.9697265625</ele>
        <time>2012-05-26T13:17:39Z</time>
      </trkpt>
      <trkpt lat="43.77034" lon="7.34851">
        <ele>228.45043945312</ele>
        <time>2012-05-26T13:17:41Z</time>
      </trkpt>
      <trkpt lat="43.77052" lon="7.34863">
        <ele>231.33435058594</ele>
        <time>2012-05-26T13:17:49Z</time>
      </trkpt>
      <trkpt lat="43.77068" lon="7.34876">
        <ele>234.69909667969</ele>
        <time>2012-05-26T13:17:58Z</time>
      </trkpt>
      <trkpt lat="43.77082" lon="7.34886">
        <ele>237.10229492188</ele>
        <time>2012-05-26T13:18:09Z</time>
      </trkpt>
      <trkpt lat="43.7709" lon="7.34891">
        <ele>238.54431152344</ele>
        <time>2012-05-26T13:18:12Z</time>
      </trkpt>
      <trkpt lat="43.771" lon="7.34911">
        <ele>241.42822265625</ele>
        <time>2012-05-26T13:18:26Z</time>
      </trkpt>
      <trkpt lat="43.77101" lon="7.34914">
        <ele>243.35083007812</ele>
        <time>2012-05-26T13:18:29Z</time>
      </trkpt>
      <trkpt lat="43.77104" lon="7.34922">
        <ele>243.83154296875</ele>
        <time>2012-05-26T13:18:34Z</time>
      </trkpt>
      <trkpt lat="43.77118" lon="7.34944">
        <ele>248.15759277344</ele>
        <time>2012-05-26T13:18:49Z</time>
      </trkpt>
      <trkpt lat="43.77118" lon="7.34945">
        <ele>248.15759277344</ele>
        <time>2012-05-26T13:18:50Z</time>
      </trkpt>
      <trkpt lat="43.77131" lon="7.34964">
        <ele>251.52209472656</ele>
        <time>2012-05-26T13:19:03Z</time>
      </trkpt>
      <trkpt lat="43.77141" lon="7.34979">
        <ele>254.88659667969</ele>
        <time>2012-05-26T13:19:15Z</time>
      </trkpt>
      <trkpt lat="43.77158" lon="7.34985">
        <ele>257.77075195312</ele>
        <time>2012-05-26T13:19:28Z</time>
      </trkpt>
      <trkpt lat="43.7716" lon="7.34986">
        <ele>258.25134277344</ele>
        <time>2012-05-26T13:19:29Z</time>
      </trkpt>
      <trkpt lat="43.77166" lon="7.34991">
        <ele>259.21264648438</ele>
        <time>2012-05-26T13:19:33Z</time>
      </trkpt>
      <trkpt lat="43.77185" lon="7.35007">
        <ele>261.61596679688</ele>
        <time>2012-05-26T13:19:48Z</time>
      </trkpt>
      <trkpt lat="43.77192" lon="7.35009">
        <ele>262.5771484375</ele>
        <time>2012-05-26T13:19:52Z</time>
      </trkpt>
      <trkpt lat="43.77207" lon="7.35009">
        <ele>264.01928710938</ele>
        <time>2012-05-26T13:19:59Z</time>
      </trkpt>
      <trkpt lat="43.77212" lon="7.35011">
        <ele>264.98059082031</ele>
        <time>2012-05-26T13:20:02Z</time>
      </trkpt>
      <trkpt lat="43.77224" lon="7.35018">
        <ele>265.94189453125</ele>
        <time>2012-05-26T13:20:08Z</time>
      </trkpt>
      <trkpt lat="43.77241" lon="7.35025">
        <ele>269.30651855469</ele>
        <time>2012-05-26T13:20:17Z</time>
      </trkpt>
      <trkpt lat="43.77257" lon="7.35039">
        <ele>270.26770019531</ele>
        <time>2012-05-26T13:20:25Z</time>
      </trkpt>
      <trkpt lat="43.77274" lon="7.35048">
        <ele>270.74841308594</ele>
        <time>2012-05-26T13:20:31Z</time>
      </trkpt>
      <trkpt lat="43.773" lon="7.35052">
        <ele>271.22912597656</ele>
        <time>2012-05-26T13:20:40Z</time>
      </trkpt>
      <trkpt lat="43.77325" lon="7.35067">
        <ele>273.15185546875</ele>
        <time>2012-05-26T13:20:52Z</time>
      </trkpt>
      <trkpt lat="43.77341" lon="7.35077">
        <ele>274.11303710938</ele>
        <time>2012-05-26T13:21:00Z</time>
      </trkpt>
      <trkpt lat="43.77351" lon="7.35082">
        <ele>277.47766113281</ele>
        <time>2012-05-26T13:21:10Z</time>
      </trkpt>
      <trkpt lat="43.77356" lon="7.35089">
        <ele>279.40026855469</ele>
        <time>2012-05-26T13:21:15Z</time>
      </trkpt>
      <trkpt lat="43.77364" lon="7.35112">
        <ele>281.80358886719</ele>
        <time>2012-05-26T13:21:28Z</time>
      </trkpt>
      <trkpt lat="43.77367" lon="7.35121">
        <ele>283.72619628906</ele>
        <time>2012-05-26T13:21:35Z</time>
      </trkpt>
      <trkpt lat="43.77373" lon="7.35134">
        <ele>286.61022949219</ele>
        <time>2012-05-26T13:21:45Z</time>
      </trkpt>
      <trkpt lat="43.77375" lon="7.35139">
        <ele>288.53295898438</ele>
        <time>2012-05-26T13:21:49Z</time>
      </trkpt>
      <trkpt lat="43.77378" lon="7.35143">
        <ele>289.494140625</ele>
        <time>2012-05-26T13:21:53Z</time>
      </trkpt>
      <trkpt lat="43.77388" lon="7.35157">
        <ele>292.85876464844</ele>
        <time>2012-05-26T13:22:08Z</time>
      </trkpt>
      <trkpt lat="43.77389" lon="7.35158">
        <ele>294.30078125</ele>
        <time>2012-05-26T13:22:12Z</time>
      </trkpt>
      <trkpt lat="43.77392" lon="7.35152">
        <ele>296.7041015625</ele>
        <time>2012-05-26T13:22:19Z</time>
      </trkpt>
      <trkpt lat="43.774" lon="7.35154">
        <ele>300.06872558594</ele>
        <time>2012-05-26T13:22:29Z</time>
      </trkpt>
      <trkpt lat="43.77404" lon="7.35161">
        <ele>301.51062011719</ele>
        <time>2012-05-26T13:22:35Z</time>
      </trkpt>
      <trkpt lat="43.77417" lon="7.35178">
        <ele>304.87524414062</ele>
        <time>2012-05-26T13:22:52Z</time>
      </trkpt>
      <trkpt lat="43.77424" lon="7.35192">
        <ele>308.23986816406</ele>
        <time>2012-05-26T13:23:04Z</time>
      </trkpt>
      <trkpt lat="43.77427" lon="7.35199">
        <ele>310.16247558594</ele>
        <time>2012-05-26T13:23:10Z</time>
      </trkpt>
      <trkpt lat="43.77434" lon="7.35217">
        <ele>313.04650878906</ele>
        <time>2012-05-26T13:23:21Z</time>
      </trkpt>
      <trkpt lat="43.77438" lon="7.35229">
        <ele>316.41101074219</ele>
        <time>2012-05-26T13:23:31Z</time>
      </trkpt>
      <trkpt lat="43.77445" lon="7.35237">
        <ele>320.25634765625</ele>
        <time>2012-05-26T13:23:43Z</time>
      </trkpt>
      <trkpt lat="43.77452" lon="7.35222">
        <ele>318.81433105469</ele>
        <time>2012-05-26T13:23:50Z</time>
      </trkpt>
      <trkpt lat="43.77461" lon="7.3521">
        <ele>317.85302734375</ele>
        <time>2012-05-26T13:23:54Z</time>
      </trkpt>
      <trkpt lat="43.77491" lon="7.35205">
        <ele>315.44982910156</ele>
        <time>2012-05-26T13:24:03Z</time>
      </trkpt>
      <trkpt lat="43.77502" lon="7.35214">
        <ele>313.04650878906</ele>
        <time>2012-05-26T13:24:08Z</time>
      </trkpt>
      <trkpt lat="43.77511" lon="7.3522">
        <ele>312.08520507812</ele>
        <time>2012-05-26T13:24:11Z</time>
      </trkpt>
      <trkpt lat="43.77511" lon="7.35226">
        <ele>314.48840332031</ele>
        <time>2012-05-26T13:24:19Z</time>
      </trkpt>
      <trkpt lat="43.77508" lon="7.35231">
        <ele>317.85302734375</ele>
        <time>2012-05-26T13:24:29Z</time>
      </trkpt>
      <trkpt lat="43.77507" lon="7.35233">
        <ele>318.81433105469</ele>
        <time>2012-05-26T13:24:31Z</time>
      </trkpt>
      <trkpt lat="43.77506" lon="7.35241">
        <ele>322.17895507812</ele>
        <time>2012-05-26T13:24:43Z</time>
      </trkpt>
      <trkpt lat="43.77502" lon="7.35248">
        <ele>325.54357910156</ele>
        <time>2012-05-26T13:24:53Z</time>
      </trkpt>
      <trkpt lat="43.77498" lon="7.35262">
        <ele>327.94677734375</ele>
        <time>2012-05-26T13:25:05Z</time>
      </trkpt>
      <trkpt lat="43.77498" lon="7.35272">
        <ele>329.38891601562</ele>
        <time>2012-05-26T13:25:10Z</time>
      </trkpt>
      <trkpt lat="43.7751" lon="7.3529">
        <ele>332.75354003906</ele>
        <time>2012-05-26T13:25:23Z</time>
      </trkpt>
      <trkpt lat="43.77523" lon="7.35294">
        <ele>335.63732910156</ele>
        <time>2012-05-26T13:25:34Z</time>
      </trkpt>
      <trkpt lat="43.77527" lon="7.35293">
        <ele>336.59887695312</ele>
        <time>2012-05-26T13:25:36Z</time>
      </trkpt>
      <trkpt lat="43.77545" lon="7.35277">
        <ele>338.521484375</ele>
        <time>2012-05-26T13:25:46Z</time>
      </trkpt>
      <trkpt lat="43.77547" lon="7.35276">
        <ele>338.521484375</ele>
        <time>2012-05-26T13:25:47Z</time>
      </trkpt>
      <trkpt lat="43.77556" lon="7.35274">
        <ele>339.96337890625</ele>
        <time>2012-05-26T13:25:51Z</time>
      </trkpt>
      <trkpt lat="43.77561" lon="7.35275">
        <ele>339.96337890625</ele>
        <time>2012-05-26T13:25:53Z</time>
      </trkpt>
      <trkpt lat="43.77581" lon="7.35255">
        <ele>342.84729003906</ele>
        <time>2012-05-26T13:26:04Z</time>
      </trkpt>
      <trkpt lat="43.77598" lon="7.35245">
        <ele>345.25061035156</ele>
        <time>2012-05-26T13:26:14Z</time>
      </trkpt>
      <trkpt lat="43.77604" lon="7.35242">
        <ele>345.73132324219</ele>
        <time>2012-05-26T13:26:17Z</time>
      </trkpt>
      <trkpt lat="43.77615" lon="7.35234">
        <ele>346.69262695312</ele>
        <time>2012-05-26T13:26:23Z</time>
      </trkpt>
      <trkpt lat="43.77619" lon="7.35234">
        <ele>347.17321777344</ele>
        <time>2012-05-26T13:26:25Z</time>
      </trkpt>
      <trkpt lat="43.77642" lon="7.35232">
        <ele>349.09582519531</ele>
        <time>2012-05-26T13:26:36Z</time>
      </trkpt>
      <trkpt lat="43.77651" lon="7.35238">
        <ele>353.421875</ele>
        <time>2012-05-26T13:26:48Z</time>
      </trkpt>
      <trkpt lat="43.7765" lon="7.35236">
        <ele>353.421875</ele>
        <time>2012-05-26T13:26:49Z</time>
      </trkpt>
      <trkpt lat="43.77644" lon="7.35241">
        <ele>354.38317871094</ele>
        <time>2012-05-26T13:26:56Z</time>
      </trkpt>
      <trkpt lat="43.7763" lon="7.35251">
        <ele>355.8251953125</ele>
        <time>2012-05-26T13:27:06Z</time>
      </trkpt>
      <trkpt lat="43.77625" lon="7.35255">
        <ele>355.8251953125</ele>
        <time>2012-05-26T13:27:09Z</time>
      </trkpt>
      <trkpt lat="43.77621" lon="7.3526">
        <ele>355.8251953125</ele>
        <time>2012-05-26T13:27:11Z</time>
      </trkpt>
      <trkpt lat="43.77615" lon="7.35268">
        <ele>354.38317871094</ele>
        <time>2012-05-26T13:27:18Z</time>
      </trkpt>
      <trkpt lat="43.7762" lon="7.35274">
        <ele>353.421875</ele>
        <time>2012-05-26T13:27:20Z</time>
      </trkpt>
      <trkpt lat="43.7762" lon="7.35281">
        <ele>351.97985839844</ele>
        <time>2012-05-26T13:27:22Z</time>
      </trkpt>
      <trkpt lat="43.77621" lon="7.35286">
        <ele>351.01843261719</ele>
        <time>2012-05-26T13:27:24Z</time>
      </trkpt>
      <trkpt lat="43.7762" lon="7.35292">
        <ele>347.65393066406</ele>
        <time>2012-05-26T13:27:27Z</time>
      </trkpt>
      <trkpt lat="43.77619" lon="7.35295">
        <ele>345.73132324219</ele>
        <time>2012-05-26T13:27:29Z</time>
      </trkpt>
      <trkpt lat="43.7762" lon="7.35296">
        <ele>344.28942871094</ele>
        <time>2012-05-26T13:27:30Z</time>
      </trkpt>
      <trkpt lat="43.77622" lon="7.35304">
        <ele>340.44409179688</ele>
        <time>2012-05-26T13:27:33Z</time>
      </trkpt>
      <trkpt lat="43.77625" lon="7.35309">
        <ele>339.00207519531</ele>
        <time>2012-05-26T13:27:36Z</time>
      </trkpt>
      <trkpt lat="43.77627" lon="7.35313">
        <ele>336.59887695312</ele>
        <time>2012-05-26T13:27:38Z</time>
      </trkpt>
      <trkpt lat="43.77628" lon="7.35318">
        <ele>332.27282714844</ele>
        <time>2012-05-26T13:27:40Z</time>
      </trkpt>
      <trkpt lat="43.7763" lon="7.35322">
        <ele>332.27282714844</ele>
        <time>2012-05-26T13:27:41Z</time>
      </trkpt>
      <trkpt lat="43.77629" lon="7.35326">
        <ele>330.35021972656</ele>
        <time>2012-05-26T13:27:43Z</time>
      </trkpt>
      <trkpt lat="43.77626" lon="7.35333">
        <ele>329.86950683594</ele>
        <time>2012-05-26T13:27:47Z</time>
      </trkpt>
      <trkpt lat="43.77611" lon="7.35378">
        <ele>327.46618652344</ele>
        <time>2012-05-26T13:27:55Z</time>
      </trkpt>
      <trkpt lat="43.77607" lon="7.35391">
        <ele>326.02416992188</ele>
        <time>2012-05-26T13:27:57Z</time>
      </trkpt>
      <trkpt lat="43.77599" lon="7.35439">
        <ele>324.1015625</ele>
        <time>2012-05-26T13:28:01Z</time>
      </trkpt>
      <trkpt lat="43.77581" lon="7.35487">
        <ele>323.14038085938</ele>
        <time>2012-05-26T13:28:07Z</time>
      </trkpt>
      <trkpt lat="43.77582" lon="7.35519">
        <ele>323.62097167969</ele>
        <time>2012-05-26T13:28:12Z</time>
      </trkpt>
      <trkpt lat="43.7761" lon="7.35537">
        <ele>321.69836425781</ele>
        <time>2012-05-26T13:28:18Z</time>
      </trkpt>
      <trkpt lat="43.77614" lon="7.35537">
        <ele>317.85302734375</ele>
        <time>2012-05-26T13:28:26Z</time>
      </trkpt>
      <trkpt lat="43.77624" lon="7.35549">
        <ele>316.89172363281</ele>
        <time>2012-05-26T13:28:28Z</time>
      </trkpt>
      <trkpt lat="43.77625" lon="7.3555">
        <ele>316.41101074219</ele>
        <time>2012-05-26T13:28:30Z</time>
      </trkpt>
      <trkpt lat="43.77628" lon="7.35556">
        <ele>315.44982910156</ele>
        <time>2012-05-26T13:28:32Z</time>
      </trkpt>
      <trkpt lat="43.77641" lon="7.35571">
        <ele>312.08520507812</ele>
        <time>2012-05-26T13:28:37Z</time>
      </trkpt>
      <trkpt lat="43.77645" lon="7.35577">
        <ele>310.64306640625</ele>
        <time>2012-05-26T13:28:40Z</time>
      </trkpt>
      <trkpt lat="43.77674" lon="7.35556">
        <ele>310.16247558594</ele>
        <time>2012-05-26T13:28:43Z</time>
      </trkpt>
      <trkpt lat="43.77676" lon="7.35543">
        <ele>309.201171875</ele>
        <time>2012-05-26T13:28:46Z</time>
      </trkpt>
      <trkpt lat="43.77678" lon="7.35534">
        <ele>307.75927734375</ele>
        <time>2012-05-26T13:28:48Z</time>
      </trkpt>
      <trkpt lat="43.77684" lon="7.35524">
        <ele>306.31726074219</ele>
        <time>2012-05-26T13:28:50Z</time>
      </trkpt>
      <trkpt lat="43.77691" lon="7.35517">
        <ele>305.35595703125</ele>
        <time>2012-05-26T13:28:52Z</time>
      </trkpt>
      <trkpt lat="43.77694" lon="7.35513">
        <ele>303.43322753906</ele>
        <time>2012-05-26T13:28:53Z</time>
      </trkpt>
      <trkpt lat="43.77701" lon="7.35509">
        <ele>302.47192382812</ele>
        <time>2012-05-26T13:28:55Z</time>
      </trkpt>
      <trkpt lat="43.7771" lon="7.35514">
        <ele>300.54931640625</ele>
        <time>2012-05-26T13:28:57Z</time>
      </trkpt>
      <trkpt lat="43.77716" lon="7.35523">
        <ele>298.62670898438</ele>
        <time>2012-05-26T13:29:01Z</time>
      </trkpt>
      <trkpt lat="43.77712" lon="7.35517">
        <ele>297.66540527344</ele>
        <time>2012-05-26T13:29:04Z</time>
      </trkpt>
      <trkpt lat="43.77709" lon="7.35512">
        <ele>294.78137207031</ele>
        <time>2012-05-26T13:29:06Z</time>
      </trkpt>
      <trkpt lat="43.77705" lon="7.3551">
        <ele>293.33935546875</ele>
        <time>2012-05-26T13:29:08Z</time>
      </trkpt>
      <trkpt lat="43.77698" lon="7.35509">
        <ele>292.85876464844</ele>
        <time>2012-05-26T13:29:11Z</time>
      </trkpt>
      <trkpt lat="43.77695" lon="7.35512">
        <ele>291.8974609375</ele>
        <time>2012-05-26T13:29:17Z</time>
      </trkpt>
      <trkpt lat="43.77688" lon="7.3552">
        <ele>291.41674804688</ele>
        <time>2012-05-26T13:29:27Z</time>
      </trkpt>
      <trkpt lat="43.77698" lon="7.35509">
        <ele>289.97485351562</ele>
        <time>2012-05-26T13:29:34Z</time>
      </trkpt>
      <trkpt lat="43.77698" lon="7.35509">
        <ele>289.01354980469</ele>
        <time>2012-05-26T13:29:37Z</time>
      </trkpt>
      <trkpt lat="43.7769" lon="7.35429">
        <ele>287.57141113281</ele>
        <time>2012-05-26T13:29:42Z</time>
      </trkpt>
      <trkpt lat="43.77686" lon="7.35422">
        <ele>288.05224609375</ele>
        <time>2012-05-26T13:29:45Z</time>
      </trkpt>
      <trkpt lat="43.77689" lon="7.35414">
        <ele>288.05224609375</ele>
        <time>2012-05-26T13:29:48Z</time>
      </trkpt>
      <trkpt lat="43.77694" lon="7.35411">
        <ele>288.05224609375</ele>
        <time>2012-05-26T13:29:51Z</time>
      </trkpt>
      <trkpt lat="43.77706" lon="7.3541">
        <ele>287.0908203125</ele>
        <time>2012-05-26T13:29:55Z</time>
      </trkpt>
      <trkpt lat="43.77716" lon="7.35407">
        <ele>285.16821289062</ele>
        <time>2012-05-26T13:29:58Z</time>
      </trkpt>
      <trkpt lat="43.77722" lon="7.35405">
        <ele>284.20690917969</ele>
        <time>2012-05-26T13:30:00Z</time>
      </trkpt>
      <trkpt lat="43.77727" lon="7.35411">
        <ele>283.72619628906</ele>
        <time>2012-05-26T13:30:02Z</time>
      </trkpt>
      <trkpt lat="43.77739" lon="7.35411">
        <ele>281.80358886719</ele>
        <time>2012-05-26T13:30:09Z</time>
      </trkpt>
      <trkpt lat="43.77744" lon="7.35394">
        <ele>280.84240722656</ele>
        <time>2012-05-26T13:30:15Z</time>
      </trkpt>
      <trkpt lat="43.77759" lon="7.35401">
        <ele>279.40026855469</ele>
        <time>2012-05-26T13:30:22Z</time>
      </trkpt>
      <trkpt lat="43.7776" lon="7.35401">
        <ele>279.40026855469</ele>
        <time>2012-05-26T13:30:23Z</time>
      </trkpt>
      <trkpt lat="43.7777" lon="7.35383">
        <ele>277.95825195312</ele>
        <time>2012-05-26T13:30:29Z</time>
      </trkpt>
      <trkpt lat="43.7778" lon="7.35374">
        <ele>276.03564453125</ele>
        <time>2012-05-26T13:30:36Z</time>
      </trkpt>
      <trkpt lat="43.77781" lon="7.35374">
        <ele>276.03564453125</ele>
        <time>2012-05-26T13:30:37Z</time>
      </trkpt>
      <trkpt lat="43.77795" lon="7.35398">
        <ele>276.03564453125</ele>
        <time>2012-05-26T13:30:45Z</time>
      </trkpt>
      <trkpt lat="43.77804" lon="7.35398">
        <ele>276.03564453125</ele>
        <time>2012-05-26T13:30:49Z</time>
      </trkpt>
      <trkpt lat="43.77813" lon="7.35394">
        <ele>276.51635742188</ele>
        <time>2012-05-26T13:30:53Z</time>
      </trkpt>
      <trkpt lat="43.77821" lon="7.354">
        <ele>276.9970703125</ele>
        <time>2012-05-26T13:31:00Z</time>
      </trkpt>
      <trkpt lat="43.77823" lon="7.35415">
        <ele>274.11303710938</ele>
        <time>2012-05-26T13:31:06Z</time>
      </trkpt>
      <trkpt lat="43.77834" lon="7.35428">
        <ele>271.70971679688</ele>
        <time>2012-05-26T13:31:15Z</time>
      </trkpt>
      <trkpt lat="43.77847" lon="7.35422">
        <ele>271.22912597656</ele>
        <time>2012-05-26T13:31:21Z</time>
      </trkpt>
      <trkpt lat="43.77867" lon="7.35404">
        <ele>270.74841308594</ele>
        <time>2012-05-26T13:31:27Z</time>
      </trkpt>
      <trkpt lat="43.77881" lon="7.35411">
        <ele>269.787109375</ele>
        <time>2012-05-26T13:31:34Z</time>
      </trkpt>
      <trkpt lat="43.77903" lon="7.35435">
        <ele>267.86450195312</ele>
        <time>2012-05-26T13:31:44Z</time>
      </trkpt>
      <trkpt lat="43.77914" lon="7.3546">
        <ele>267.38391113281</ele>
        <time>2012-05-26T13:31:52Z</time>
      </trkpt>
      <trkpt lat="43.77913" lon="7.35467">
        <ele>266.90319824219</ele>
        <time>2012-05-26T13:31:55Z</time>
      </trkpt>
      <trkpt lat="43.77916" lon="7.35474">
        <ele>264.49987792969</ele>
        <time>2012-05-26T13:31:58Z</time>
      </trkpt>
      <trkpt lat="43.77929" lon="7.35485">
        <ele>262.5771484375</ele>
        <time>2012-05-26T13:32:04Z</time>
      </trkpt>
      <trkpt lat="43.77938" lon="7.35498">
        <ele>261.13525390625</ele>
        <time>2012-05-26T13:32:10Z</time>
      </trkpt>
      <trkpt lat="43.77948" lon="7.35497">
        <ele>261.13525390625</ele>
        <time>2012-05-26T13:32:14Z</time>
      </trkpt>
      <trkpt lat="43.77963" lon="7.35489">
        <ele>260.65454101562</ele>
        <time>2012-05-26T13:32:19Z</time>
      </trkpt>
      <trkpt lat="43.77971" lon="7.35497">
        <ele>260.17395019531</ele>
        <time>2012-05-26T13:32:23Z</time>
      </trkpt>
      <trkpt lat="43.77977" lon="7.35482">
        <ele>258.73193359375</ele>
        <time>2012-05-26T13:32:28Z</time>
      </trkpt>
      <trkpt lat="43.77994" lon="7.35481">
        <ele>258.73193359375</ele>
        <time>2012-05-26T13:32:35Z</time>
      </trkpt>
      <trkpt lat="43.77998" lon="7.35485">
        <ele>257.77075195312</ele>
        <time>2012-05-26T13:32:38Z</time>
      </trkpt>
      <trkpt lat="43.78013" lon="7.35476">
        <ele>256.32873535156</ele>
        <time>2012-05-26T13:32:45Z</time>
      </trkpt>
      <trkpt lat="43.78016" lon="7.35469">
        <ele>256.80932617188</ele>
        <time>2012-05-26T13:32:47Z</time>
      </trkpt>
      <trkpt lat="43.78023" lon="7.35458">
        <ele>255.84802246094</ele>
        <time>2012-05-26T13:32:53Z</time>
      </trkpt>
      <trkpt lat="43.7804" lon="7.35435">
        <ele>253.92541503906</ele>
        <time>2012-05-26T13:33:00Z</time>
      </trkpt>
      <trkpt lat="43.78033" lon="7.35424">
        <ele>253.92541503906</ele>
        <time>2012-05-26T13:33:04Z</time>
      </trkpt>
      <trkpt lat="43.78042" lon="7.35409">
        <ele>253.44470214844</ele>
        <time>2012-05-26T13:33:09Z</time>
      </trkpt>
      <trkpt lat="43.78045" lon="7.35399">
        <ele>253.44470214844</ele>
        <time>2012-05-26T13:33:12Z</time>
      </trkpt>
      <trkpt lat="43.78046" lon="7.35393">
        <ele>252.96398925781</ele>
        <time>2012-05-26T13:33:14Z</time>
      </trkpt>
      <trkpt lat="43.78042" lon="7.35378">
        <ele>252.4833984375</ele>
        <time>2012-05-26T13:33:18Z</time>
      </trkpt>
      <trkpt lat="43.7804" lon="7.35369">
        <ele>252.4833984375</ele>
        <time>2012-05-26T13:33:22Z</time>
      </trkpt>
      <trkpt lat="43.78043" lon="7.35359">
        <ele>250.56079101562</ele>
        <time>2012-05-26T13:33:25Z</time>
      </trkpt>
      <trkpt lat="43.78046" lon="7.35352">
        <ele>250.56079101562</ele>
        <time>2012-05-26T13:33:27Z</time>
      </trkpt>
      <trkpt lat="43.78039" lon="7.35328">
        <ele>249.11877441406</ele>
        <time>2012-05-26T13:33:34Z</time>
      </trkpt>
      <trkpt lat="43.78045" lon="7.35316">
        <ele>248.63818359375</ele>
        <time>2012-05-26T13:33:37Z</time>
      </trkpt>
      <trkpt lat="43.78044" lon="7.35311">
        <ele>248.63818359375</ele>
        <time>2012-05-26T13:33:39Z</time>
      </trkpt>
      <trkpt lat="43.78038" lon="7.35291">
        <ele>247.19604492188</ele>
        <time>2012-05-26T13:33:44Z</time>
      </trkpt>
      <trkpt lat="43.78032" lon="7.35282">
        <ele>247.6767578125</ele>
        <time>2012-05-26T13:33:47Z</time>
      </trkpt>
      <trkpt lat="43.78029" lon="7.35269">
        <ele>248.63818359375</ele>
        <time>2012-05-26T13:33:52Z</time>
      </trkpt>
      <trkpt lat="43.78031" lon="7.35251">
        <ele>252.00280761719</ele>
        <time>2012-05-26T13:34:01Z</time>
      </trkpt>
      <trkpt lat="43.78027" lon="7.3523">
        <ele>255.36730957031</ele>
        <time>2012-05-26T13:34:13Z</time>
      </trkpt>
      <trkpt lat="43.78024" lon="7.35216">
        <ele>257.2900390625</ele>
        <time>2012-05-26T13:34:21Z</time>
      </trkpt>
      <trkpt lat="43.78013" lon="7.35196">
        <ele>260.17395019531</ele>
        <time>2012-05-26T13:34:32Z</time>
      </trkpt>
      <trkpt lat="43.77999" lon="7.3518">
        <ele>263.53857421875</ele>
        <time>2012-05-26T13:34:45Z</time>
      </trkpt>
      <trkpt lat="43.77996" lon="7.35178">
        <ele>263.53857421875</ele>
        <time>2012-05-26T13:34:47Z</time>
      </trkpt>
      <trkpt lat="43.7798" lon="7.35169">
        <ele>265.94189453125</ele>
        <time>2012-05-26T13:34:58Z</time>
      </trkpt>
      <trkpt lat="43.77979" lon="7.35147">
        <ele>267.86450195312</ele>
        <time>2012-05-26T13:35:09Z</time>
      </trkpt>
      <trkpt lat="43.77973" lon="7.35127">
        <ele>269.30651855469</ele>
        <time>2012-05-26T13:35:20Z</time>
      </trkpt>
      <trkpt lat="43.77954" lon="7.35112">
        <ele>271.70971679688</ele>
        <time>2012-05-26T13:35:29Z</time>
      </trkpt>
      <trkpt lat="43.77959" lon="7.35092">
        <ele>271.70971679688</ele>
        <time>2012-05-26T13:35:35Z</time>
      </trkpt>
      <trkpt lat="43.77971" lon="7.35053">
        <ele>271.22912597656</ele>
        <time>2012-05-26T13:35:47Z</time>
      </trkpt>
      <trkpt lat="43.77977" lon="7.3503">
        <ele>272.1904296875</ele>
        <time>2012-05-26T13:35:53Z</time>
      </trkpt>
      <trkpt lat="43.77976" lon="7.35019">
        <ele>273.15185546875</ele>
        <time>2012-05-26T13:36:06Z</time>
      </trkpt>
      <trkpt lat="43.77976" lon="7.35018">
        <ele>273.15185546875</ele>
        <time>2012-05-26T13:36:36Z</time>
      </trkpt>
      <trkpt lat="43.77977" lon="7.35018">
        <ele>273.15185546875</ele>
        <time>2012-05-26T13:36:53Z</time>
      </trkpt>
      <trkpt lat="43.77977" lon="7.35018">
        <ele>273.15185546875</ele>
        <time>2012-05-26T13:37:01Z</time>
      </trkpt>
      <trkpt lat="43.77975" lon="7.35011">
        <ele>273.15185546875</ele>
        <time>2012-05-26T13:37:06Z</time>
      </trkpt>
      <trkpt lat="43.77972" lon="7.35">
        <ele>273.63244628906</ele>
        <time>2012-05-26T13:37:10Z</time>
      </trkpt>
      <trkpt lat="43.77952" lon="7.34978">
        <ele>276.9970703125</ele>
        <time>2012-05-26T13:37:20Z</time>
      </trkpt>
      <trkpt lat="43.77949" lon="7.34976">
        <ele>276.9970703125</ele>
        <time>2012-05-26T13:37:21Z</time>
      </trkpt>
      <trkpt lat="43.7793" lon="7.3495">
        <ele>275.55505371094</ele>
        <time>2012-05-26T13:37:29Z</time>
      </trkpt>
      <trkpt lat="43.77927" lon="7.34936">
        <ele>273.63244628906</ele>
        <time>2012-05-26T13:37:31Z</time>
      </trkpt>
      <trkpt lat="43.77945" lon="7.34908">
        <ele>271.70971679688</ele>
        <time>2012-05-26T13:37:39Z</time>
      </trkpt>
      <trkpt lat="43.77955" lon="7.3489">
        <ele>270.26770019531</ele>
        <time>2012-05-26T13:37:43Z</time>
      </trkpt>
      <trkpt lat="43.77971" lon="7.34876">
        <ele>266.90319824219</ele>
        <time>2012-05-26T13:37:49Z</time>
      </trkpt>
      <trkpt lat="43.77974" lon="7.34874">
        <ele>266.90319824219</ele>
        <time>2012-05-26T13:37:50Z</time>
      </trkpt>
      <trkpt lat="43.77979" lon="7.3487">
        <ele>264.98059082031</ele>
        <time>2012-05-26T13:37:52Z</time>
      </trkpt>
      <trkpt lat="43.77985" lon="7.34863">
        <ele>263.53857421875</ele>
        <time>2012-05-26T13:37:54Z</time>
      </trkpt>
      <trkpt lat="43.77992" lon="7.34858">
        <ele>260.17395019531</ele>
        <time>2012-05-26T13:37:56Z</time>
      </trkpt>
      <trkpt lat="43.77994" lon="7.34856">
        <ele>260.17395019531</ele>
        <time>2012-05-26T13:37:57Z</time>
      </trkpt>
      <trkpt lat="43.78" lon="7.3485">
        <ele>258.25134277344</ele>
        <time>2012-05-26T13:37:59Z</time>
      </trkpt>
      <trkpt lat="43.78006" lon="7.34845">
        <ele>256.32873535156</ele>
        <time>2012-05-26T13:38:01Z</time>
      </trkpt>
      <trkpt lat="43.78007" lon="7.34829">
        <ele>252.96398925781</ele>
        <time>2012-05-26T13:38:05Z</time>
      </trkpt>
      <trkpt lat="43.78006" lon="7.34826">
        <ele>252.96398925781</ele>
        <time>2012-05-26T13:38:06Z</time>
      </trkpt>
      <trkpt lat="43.78012" lon="7.34826">
        <ele>250.56079101562</ele>
        <time>2012-05-26T13:38:10Z</time>
      </trkpt>
      <trkpt lat="43.78014" lon="7.34827">
        <ele>249.11877441406</ele>
        <time>2012-05-26T13:38:11Z</time>
      </trkpt>
      <trkpt lat="43.78017" lon="7.34831">
        <ele>248.15759277344</ele>
        <time>2012-05-26T13:38:13Z</time>
      </trkpt>
      <trkpt lat="43.7802" lon="7.34835">
        <ele>247.19604492188</ele>
        <time>2012-05-26T13:38:15Z</time>
      </trkpt>
      <trkpt lat="43.78022" lon="7.34841">
        <ele>245.75415039062</ele>
        <time>2012-05-26T13:38:17Z</time>
      </trkpt>
      <trkpt lat="43.78022" lon="7.34845">
        <ele>244.31225585938</ele>
        <time>2012-05-26T13:38:18Z</time>
      </trkpt>
      <trkpt lat="43.78024" lon="7.34849">
        <ele>242.87023925781</ele>
        <time>2012-05-26T13:38:20Z</time>
      </trkpt>
      <trkpt lat="43.78027" lon="7.34853">
        <ele>241.90893554688</ele>
        <time>2012-05-26T13:38:22Z</time>
      </trkpt>
      <trkpt lat="43.78032" lon="7.34852">
        <ele>239.50549316406</ele>
        <time>2012-05-26T13:38:25Z</time>
      </trkpt>
      <trkpt lat="43.78034" lon="7.34857">
        <ele>238.06359863281</ele>
        <time>2012-05-26T13:38:27Z</time>
      </trkpt>
      <trkpt lat="43.78037" lon="7.34857">
        <ele>237.10229492188</ele>
        <time>2012-05-26T13:38:28Z</time>
      </trkpt>
      <trkpt lat="43.78041" lon="7.34853">
        <ele>235.66027832031</ele>
        <time>2012-05-26T13:38:30Z</time>
      </trkpt>
      <trkpt lat="43.78044" lon="7.34855">
        <ele>231.81494140625</ele>
        <time>2012-05-26T13:38:33Z</time>
      </trkpt>
      <trkpt lat="43.78045" lon="7.34857">
        <ele>231.81494140625</ele>
        <time>2012-05-26T13:38:34Z</time>
      </trkpt>
      <trkpt lat="43.78045" lon="7.34862">
        <ele>230.373046875</ele>
        <time>2012-05-26T13:38:36Z</time>
      </trkpt>
      <trkpt lat="43.7805" lon="7.34868">
        <ele>229.41174316406</ele>
        <time>2012-05-26T13:38:38Z</time>
      </trkpt>
      <trkpt lat="43.78053" lon="7.34866">
        <ele>228.93115234375</ele>
        <time>2012-05-26T13:38:39Z</time>
      </trkpt>
      <trkpt lat="43.78057" lon="7.34863">
        <ele>227.9697265625</ele>
        <time>2012-05-26T13:38:41Z</time>
      </trkpt>
      <trkpt lat="43.78061" lon="7.34859">
        <ele>226.52783203125</ele>
        <time>2012-05-26T13:38:43Z</time>
      </trkpt>
      <trkpt lat="43.78064" lon="7.34854">
        <ele>225.0859375</ele>
        <time>2012-05-26T13:38:45Z</time>
      </trkpt>
      <trkpt lat="43.78066" lon="7.34847">
        <ele>223.64379882812</ele>
        <time>2012-05-26T13:38:47Z</time>
      </trkpt>
      <trkpt lat="43.7807" lon="7.34843">
        <ele>220.27917480469</ele>
        <time>2012-05-26T13:38:49Z</time>
      </trkpt>
      <trkpt lat="43.78075" lon="7.34839">
        <ele>218.83728027344</ele>
        <time>2012-05-26T13:38:52Z</time>
      </trkpt>
      <trkpt lat="43.78079" lon="7.34843">
        <ele>217.39538574219</ele>
        <time>2012-05-26T13:38:54Z</time>
      </trkpt>
      <trkpt lat="43.78085" lon="7.34843">
        <ele>214.99194335938</ele>
        <time>2012-05-26T13:38:57Z</time>
      </trkpt>
      <trkpt lat="43.78082" lon="7.34839">
        <ele>213.0693359375</ele>
        <time>2012-05-26T13:38:59Z</time>
      </trkpt>
      <trkpt lat="43.7808" lon="7.34837">
        <ele>211.62744140625</ele>
        <time>2012-05-26T13:39:00Z</time>
      </trkpt>
      <trkpt lat="43.78082" lon="7.34825">
        <ele>209.22412109375</ele>
        <time>2012-05-26T13:39:04Z</time>
      </trkpt>
      <trkpt lat="43.78087" lon="7.34821">
        <ele>207.78210449219</ele>
        <time>2012-05-26T13:39:06Z</time>
      </trkpt>
      <trkpt lat="43.78092" lon="7.34823">
        <ele>205.85949707031</ele>
        <time>2012-05-26T13:39:08Z</time>
      </trkpt>
      <trkpt lat="43.781" lon="7.34829">
        <ele>202.49487304688</ele>
        <time>2012-05-26T13:39:12Z</time>
      </trkpt>
      <trkpt lat="43.78102" lon="7.3483">
        <ele>202.49487304688</ele>
        <time>2012-05-26T13:39:13Z</time>
      </trkpt>
      <trkpt lat="43.78103" lon="7.3483">
        <ele>201.53356933594</ele>
        <time>2012-05-26T13:39:14Z</time>
      </trkpt>
      <trkpt lat="43.78103" lon="7.34823">
        <ele>198.64953613281</ele>
        <time>2012-05-26T13:39:18Z</time>
      </trkpt>
      <trkpt lat="43.78097" lon="7.3482">
        <ele>199.13012695312</ele>
        <time>2012-05-26T13:39:22Z</time>
      </trkpt>
      <trkpt lat="43.78079" lon="7.34812">
        <ele>199.61083984375</ele>
        <time>2012-05-26T13:39:30Z</time>
      </trkpt>
      <trkpt lat="43.78065" lon="7.348">
        <ele>199.13012695312</ele>
        <time>2012-05-26T13:39:36Z</time>
      </trkpt>
      <trkpt lat="43.7806" lon="7.34784">
        <ele>198.1689453125</ele>
        <time>2012-05-26T13:39:42Z</time>
      </trkpt>
      <trkpt lat="43.78057" lon="7.34752">
        <ele>197.68823242188</ele>
        <time>2012-05-26T13:39:49Z</time>
      </trkpt>
      <trkpt lat="43.78052" lon="7.34732">
        <ele>197.68823242188</ele>
        <time>2012-05-26T13:39:54Z</time>
      </trkpt>
      <trkpt lat="43.78052" lon="7.34711">
        <ele>197.68823242188</ele>
        <time>2012-05-26T13:39:59Z</time>
      </trkpt>
      <trkpt lat="43.78052" lon="7.34685">
        <ele>195.765625</ele>
        <time>2012-05-26T13:40:07Z</time>
      </trkpt>
      <trkpt lat="43.7805" lon="7.34682">
        <ele>196.24633789062</ele>
        <time>2012-05-26T13:40:08Z</time>
      </trkpt>
      <trkpt lat="43.78046" lon="7.34676">
        <ele>196.24633789062</ele>
        <time>2012-05-26T13:40:10Z</time>
      </trkpt>
      <trkpt lat="43.78043" lon="7.34664">
        <ele>196.24633789062</ele>
        <time>2012-05-26T13:40:13Z</time>
      </trkpt>
      <trkpt lat="43.78038" lon="7.3466">
        <ele>195.28491210938</ele>
        <time>2012-05-26T13:40:16Z</time>
      </trkpt>
      <trkpt lat="43.78034" lon="7.34663">
        <ele>196.24633789062</ele>
        <time>2012-05-26T13:40:19Z</time>
      </trkpt>
      <trkpt lat="43.7802" lon="7.34659">
        <ele>196.24633789062</ele>
        <time>2012-05-26T13:40:25Z</time>
      </trkpt>
      <trkpt lat="43.78013" lon="7.34661">
        <ele>197.68823242188</ele>
        <time>2012-05-26T13:40:29Z</time>
      </trkpt>
      <trkpt lat="43.78004" lon="7.3466">
        <ele>195.765625</ele>
        <time>2012-05-26T13:40:33Z</time>
      </trkpt>
      <trkpt lat="43.77997" lon="7.34669">
        <ele>196.72692871094</ele>
        <time>2012-05-26T13:40:38Z</time>
      </trkpt>
      <trkpt lat="43.77978" lon="7.34677">
        <ele>194.32373046875</ele>
        <time>2012-05-26T13:40:50Z</time>
      </trkpt>
      <trkpt lat="43.77977" lon="7.34673">
        <ele>195.765625</ele>
        <time>2012-05-26T13:40:57Z</time>
      </trkpt>
      <trkpt lat="43.77973" lon="7.34666">
        <ele>195.765625</ele>
        <time>2012-05-26T13:41:00Z</time>
      </trkpt>
      <trkpt lat="43.77962" lon="7.34653">
        <ele>195.28491210938</ele>
        <time>2012-05-26T13:41:08Z</time>
      </trkpt>
      <trkpt lat="43.77961" lon="7.34648">
        <ele>195.765625</ele>
        <time>2012-05-26T13:41:13Z</time>
      </trkpt>
      <trkpt lat="43.77962" lon="7.34623">
        <ele>195.28491210938</ele>
        <time>2012-05-26T13:41:21Z</time>
      </trkpt>
      <trkpt lat="43.77963" lon="7.34625">
        <ele>195.28491210938</ele>
        <time>2012-05-26T13:41:23Z</time>
      </trkpt>
      <trkpt lat="43.77973" lon="7.34621">
        <ele>195.28491210938</ele>
        <time>2012-05-26T13:41:26Z</time>
      </trkpt>
      <trkpt lat="43.77978" lon="7.34606">
        <ele>194.32373046875</ele>
        <time>2012-05-26T13:41:31Z</time>
      </trkpt>
      <trkpt lat="43.77982" lon="7.34598">
        <ele>194.80432128906</ele>
        <time>2012-05-26T13:41:34Z</time>
      </trkpt>
      <trkpt lat="43.77982" lon="7.34594">
        <ele>195.28491210938</ele>
        <time>2012-05-26T13:41:36Z</time>
      </trkpt>
      <trkpt lat="43.77986" lon="7.3458">
        <ele>193.3623046875</ele>
        <time>2012-05-26T13:41:40Z</time>
      </trkpt>
      <trkpt lat="43.77991" lon="7.34561">
        <ele>191.92028808594</ele>
        <time>2012-05-26T13:41:46Z</time>
      </trkpt>
      <trkpt lat="43.77999" lon="7.34554">
        <ele>190.958984375</ele>
        <time>2012-05-26T13:41:49Z</time>
      </trkpt>
      <trkpt lat="43.78008" lon="7.34551">
        <ele>189.51696777344</ele>
        <time>2012-05-26T13:41:52Z</time>
      </trkpt>
      <trkpt lat="43.78008" lon="7.34524">
        <ele>187.59436035156</ele>
        <time>2012-05-26T13:42:00Z</time>
      </trkpt>
      <trkpt lat="43.78009" lon="7.34505">
        <ele>185.67175292969</ele>
        <time>2012-05-26T13:42:05Z</time>
      </trkpt>
      <trkpt lat="43.78002" lon="7.34462">
        <ele>182.78784179688</ele>
        <time>2012-05-26T13:42:15Z</time>
      </trkpt>
      <trkpt lat="43.78002" lon="7.34458">
        <ele>182.78784179688</ele>
        <time>2012-05-26T13:42:16Z</time>
      </trkpt>
      <trkpt lat="43.78006" lon="7.34443">
        <ele>181.82641601562</ele>
        <time>2012-05-26T13:42:19Z</time>
      </trkpt>
      <trkpt lat="43.78002" lon="7.34437">
        <ele>180.865234375</ele>
        <time>2012-05-26T13:42:21Z</time>
      </trkpt>
      <trkpt lat="43.77997" lon="7.34434">
        <ele>180.38452148438</ele>
        <time>2012-05-26T13:42:25Z</time>
      </trkpt>
      <trkpt lat="43.77988" lon="7.34435">
        <ele>179.42321777344</ele>
        <time>2012-05-26T13:42:29Z</time>
      </trkpt>
      <trkpt lat="43.77985" lon="7.3442">
        <ele>178.94262695312</ele>
        <time>2012-05-26T13:42:35Z</time>
      </trkpt>
      <trkpt lat="43.77986" lon="7.34407">
        <ele>177.50061035156</ele>
        <time>2012-05-26T13:42:37Z</time>
      </trkpt>
      <trkpt lat="43.77987" lon="7.34403">
        <ele>177.98120117188</ele>
        <time>2012-05-26T13:42:38Z</time>
      </trkpt>
      <trkpt lat="43.77996" lon="7.34387">
        <ele>175.09729003906</ele>
        <time>2012-05-26T13:42:43Z</time>
      </trkpt>
      <trkpt lat="43.7799" lon="7.34373">
        <ele>175.09729003906</ele>
        <time>2012-05-26T13:42:48Z</time>
      </trkpt>
      <trkpt lat="43.77993" lon="7.34362">
        <ele>173.6552734375</ele>
        <time>2012-05-26T13:42:52Z</time>
      </trkpt>
      <trkpt lat="43.77986" lon="7.34352">
        <ele>173.17468261719</ele>
        <time>2012-05-26T13:42:58Z</time>
      </trkpt>
      <trkpt lat="43.7798" lon="7.3434">
        <ele>172.69396972656</ele>
        <time>2012-05-26T13:43:03Z</time>
      </trkpt>
      <trkpt lat="43.77975" lon="7.3434">
        <ele>172.69396972656</ele>
        <time>2012-05-26T13:43:05Z</time>
      </trkpt>
      <trkpt lat="43.77963" lon="7.34332">
        <ele>173.17468261719</ele>
        <time>2012-05-26T13:43:10Z</time>
      </trkpt>
      <trkpt lat="43.77963" lon="7.34317">
        <ele>170.77136230469</ele>
        <time>2012-05-26T13:43:14Z</time>
      </trkpt>
      <trkpt lat="43.7796" lon="7.34309">
        <ele>169.81005859375</ele>
        <time>2012-05-26T13:43:17Z</time>
      </trkpt>
      <trkpt lat="43.77952" lon="7.34301">
        <ele>168.84875488281</ele>
        <time>2012-05-26T13:43:21Z</time>
      </trkpt>
      <trkpt lat="43.77955" lon="7.3428">
        <ele>165.48413085938</ele>
        <time>2012-05-26T13:43:28Z</time>
      </trkpt>
      <trkpt lat="43.77954" lon="7.34277">
        <ele>165.00341796875</ele>
        <time>2012-05-26T13:43:29Z</time>
      </trkpt>
      <trkpt lat="43.77949" lon="7.34271">
        <ele>164.52270507812</ele>
        <time>2012-05-26T13:43:31Z</time>
      </trkpt>
      <trkpt lat="43.77949" lon="7.34264">
        <ele>164.52270507812</ele>
        <time>2012-05-26T13:43:33Z</time>
      </trkpt>
      <trkpt lat="43.77945" lon="7.34252">
        <ele>162.60009765625</ele>
        <time>2012-05-26T13:43:35Z</time>
      </trkpt>
      <trkpt lat="43.77938" lon="7.34245">
        <ele>161.158203125</ele>
        <time>2012-05-26T13:43:38Z</time>
      </trkpt>
      <trkpt lat="43.77924" lon="7.34243">
        <ele>158.75476074219</ele>
        <time>2012-05-26T13:43:45Z</time>
      </trkpt>
      <trkpt lat="43.77917" lon="7.34244">
        <ele>157.79357910156</ele>
        <time>2012-05-26T13:43:48Z</time>
      </trkpt>
      <trkpt lat="43.77913" lon="7.34244">
        <ele>156.3515625</ele>
        <time>2012-05-26T13:43:51Z</time>
      </trkpt>
      <trkpt lat="43.77912" lon="7.34231">
        <ele>155.87097167969</ele>
        <time>2012-05-26T13:43:55Z</time>
      </trkpt>
      <trkpt lat="43.77918" lon="7.34191">
        <ele>154.42895507812</ele>
        <time>2012-05-26T13:44:03Z</time>
      </trkpt>
      <trkpt lat="43.7792" lon="7.34182">
        <ele>153.94836425781</ele>
        <time>2012-05-26T13:44:05Z</time>
      </trkpt>
      <trkpt lat="43.77916" lon="7.34156">
        <ele>152.50634765625</ele>
        <time>2012-05-26T13:44:11Z</time>
      </trkpt>
      <trkpt lat="43.7791" lon="7.34145">
        <ele>152.02575683594</ele>
        <time>2012-05-26T13:44:15Z</time>
      </trkpt>
      <trkpt lat="43.779" lon="7.34119">
        <ele>151.06420898438</ele>
        <time>2012-05-26T13:44:22Z</time>
      </trkpt>
      <trkpt lat="43.77894" lon="7.34112">
        <ele>151.06420898438</ele>
        <time>2012-05-26T13:44:25Z</time>
      </trkpt>
      <trkpt lat="43.77881" lon="7.3406">
        <ele>149.62231445312</ele>
        <time>2012-05-26T13:44:34Z</time>
      </trkpt>
      <trkpt lat="43.77869" lon="7.34053">
        <ele>149.1416015625</ele>
        <time>2012-05-26T13:44:38Z</time>
      </trkpt>
      <trkpt lat="43.77865" lon="7.3405">
        <ele>149.62231445312</ele>
        <time>2012-05-26T13:44:41Z</time>
      </trkpt>
      <trkpt lat="43.77832" lon="7.34027">
        <ele>150.10302734375</ele>
        <time>2012-05-26T13:44:53Z</time>
      </trkpt>
      <trkpt lat="43.77829" lon="7.34028">
        <ele>149.1416015625</ele>
        <time>2012-05-26T13:44:55Z</time>
      </trkpt>
      <trkpt lat="43.77824" lon="7.34029">
        <ele>148.18041992188</ele>
        <time>2012-05-26T13:44:58Z</time>
      </trkpt>
      <trkpt lat="43.77823" lon="7.34029">
        <ele>146.73840332031</ele>
        <time>2012-05-26T13:45:00Z</time>
      </trkpt>
      <trkpt lat="43.77835" lon="7.34027">
        <ele>145.77709960938</ele>
        <time>2012-05-26T13:45:05Z</time>
      </trkpt>
      <trkpt lat="43.77863" lon="7.34048">
        <ele>143.85437011719</ele>
        <time>2012-05-26T13:45:14Z</time>
      </trkpt>
      <trkpt lat="43.77869" lon="7.34052">
        <ele>143.37365722656</ele>
        <time>2012-05-26T13:45:16Z</time>
      </trkpt>
      <trkpt lat="43.77884" lon="7.34062">
        <ele>141.45104980469</ele>
        <time>2012-05-26T13:45:21Z</time>
      </trkpt>
      <trkpt lat="43.77893" lon="7.34068">
        <ele>139.52844238281</ele>
        <time>2012-05-26T13:45:25Z</time>
      </trkpt>
      <trkpt lat="43.77922" lon="7.34084">
        <ele>136.64465332031</ele>
        <time>2012-05-26T13:45:34Z</time>
      </trkpt>
      <trkpt lat="43.77934" lon="7.34087">
        <ele>135.20251464844</ele>
        <time>2012-05-26T13:45:38Z</time>
      </trkpt>
      <trkpt lat="43.77939" lon="7.34088">
        <ele>134.72192382812</ele>
        <time>2012-05-26T13:45:40Z</time>
      </trkpt>
      <trkpt lat="43.77955" lon="7.34079">
        <ele>133.76049804688</ele>
        <time>2012-05-26T13:45:45Z</time>
      </trkpt>
      <trkpt lat="43.77964" lon="7.34065">
        <ele>134.72192382812</ele>
        <time>2012-05-26T13:45:49Z</time>
      </trkpt>
      <trkpt lat="43.77967" lon="7.34039">
        <ele>136.64465332031</ele>
        <time>2012-05-26T13:45:56Z</time>
      </trkpt>
      <trkpt lat="43.77959" lon="7.34018">
        <ele>140.00915527344</ele>
        <time>2012-05-26T13:46:04Z</time>
      </trkpt>
      <trkpt lat="43.77958" lon="7.34013">
        <ele>140.48986816406</ele>
        <time>2012-05-26T13:46:06Z</time>
      </trkpt>
      <trkpt lat="43.77953" lon="7.34">
        <ele>141.93176269531</ele>
        <time>2012-05-26T13:46:12Z</time>
      </trkpt>
      <trkpt lat="43.77953" lon="7.33986">
        <ele>143.85437011719</ele>
        <time>2012-05-26T13:46:17Z</time>
      </trkpt>
      <trkpt lat="43.77953" lon="7.33959">
        <ele>145.77709960938</ele>
        <time>2012-05-26T13:46:26Z</time>
      </trkpt>
      <trkpt lat="43.77953" lon="7.33943">
        <ele>147.21899414062</ele>
        <time>2012-05-26T13:46:31Z</time>
      </trkpt>
      <trkpt lat="43.77955" lon="7.33931">
        <ele>148.18041992188</ele>
        <time>2012-05-26T13:46:35Z</time>
      </trkpt>
      <trkpt lat="43.77972" lon="7.33909">
        <ele>150.10302734375</ele>
        <time>2012-05-26T13:46:46Z</time>
      </trkpt>
      <trkpt lat="43.77992" lon="7.33907">
        <ele>151.544921875</ele>
        <time>2012-05-26T13:46:56Z</time>
      </trkpt>
      <trkpt lat="43.78016" lon="7.33912">
        <ele>153.94836425781</ele>
        <time>2012-05-26T13:47:07Z</time>
      </trkpt>
      <trkpt lat="43.78037" lon="7.33917">
        <ele>155.39025878906</ele>
        <time>2012-05-26T13:47:16Z</time>
      </trkpt>
      <trkpt lat="43.78047" lon="7.33921">
        <ele>156.3515625</ele>
        <time>2012-05-26T13:47:21Z</time>
      </trkpt>
      <trkpt lat="43.78066" lon="7.33927">
        <ele>159.23547363281</ele>
        <time>2012-05-26T13:47:30Z</time>
      </trkpt>
      <trkpt lat="43.78078" lon="7.33935">
        <ele>159.23547363281</ele>
        <time>2012-05-26T13:47:35Z</time>
      </trkpt>
      <trkpt lat="43.78087" lon="7.33949">
        <ele>159.71618652344</ele>
        <time>2012-05-26T13:47:40Z</time>
      </trkpt>
      <trkpt lat="43.781" lon="7.33951">
        <ele>161.158203125</ele>
        <time>2012-05-26T13:47:45Z</time>
      </trkpt>
      <trkpt lat="43.78122" lon="7.33959">
        <ele>163.5615234375</ele>
        <time>2012-05-26T13:47:56Z</time>
      </trkpt>
      <trkpt lat="43.78133" lon="7.33964">
        <ele>165.48413085938</ele>
        <time>2012-05-26T13:48:01Z</time>
      </trkpt>
      <trkpt lat="43.78137" lon="7.33966">
        <ele>165.96472167969</ele>
        <time>2012-05-26T13:48:03Z</time>
      </trkpt>
      <trkpt lat="43.78145" lon="7.33976">
        <ele>165.96472167969</ele>
        <time>2012-05-26T13:48:08Z</time>
      </trkpt>
      <trkpt lat="43.78149" lon="7.33987">
        <ele>164.52270507812</ele>
        <time>2012-05-26T13:48:13Z</time>
      </trkpt>
      <trkpt lat="43.7815" lon="7.33997">
        <ele>162.60009765625</ele>
        <time>2012-05-26T13:48:15Z</time>
      </trkpt>
      <trkpt lat="43.78152" lon="7.34006">
        <ele>160.19689941406</ele>
        <time>2012-05-26T13:48:17Z</time>
      </trkpt>
      <trkpt lat="43.78147" lon="7.3402">
        <ele>159.71618652344</ele>
        <time>2012-05-26T13:48:21Z</time>
      </trkpt>
      <trkpt lat="43.78145" lon="7.34026">
        <ele>160.19689941406</ele>
        <time>2012-05-26T13:48:23Z</time>
      </trkpt>
      <trkpt lat="43.78135" lon="7.34035">
        <ele>161.158203125</ele>
        <time>2012-05-26T13:48:29Z</time>
      </trkpt>
      <trkpt lat="43.78129" lon="7.34062">
        <ele>161.158203125</ele>
        <time>2012-05-26T13:48:36Z</time>
      </trkpt>
      <trkpt lat="43.78137" lon="7.34067">
        <ele>161.63891601562</ele>
        <time>2012-05-26T13:48:39Z</time>
      </trkpt>
      <trkpt lat="43.78139" lon="7.34073">
        <ele>161.63891601562</ele>
        <time>2012-05-26T13:48:42Z</time>
      </trkpt>
      <trkpt lat="43.78146" lon="7.34076">
        <ele>160.19689941406</ele>
        <time>2012-05-26T13:48:45Z</time>
      </trkpt>
      <trkpt lat="43.78148" lon="7.34077">
        <ele>160.19689941406</ele>
        <time>2012-05-26T13:48:46Z</time>
      </trkpt>
      <trkpt lat="43.78153" lon="7.34078">
        <ele>161.63891601562</ele>
        <time>2012-05-26T13:48:49Z</time>
      </trkpt>
      <trkpt lat="43.78166" lon="7.34074">
        <ele>162.60009765625</ele>
        <time>2012-05-26T13:48:55Z</time>
      </trkpt>
      <trkpt lat="43.78174" lon="7.34076">
        <ele>163.08081054688</ele>
        <time>2012-05-26T13:48:59Z</time>
      </trkpt>
      <trkpt lat="43.78184" lon="7.34081">
        <ele>163.5615234375</ele>
        <time>2012-05-26T13:49:03Z</time>
      </trkpt>
      <trkpt lat="43.78189" lon="7.3409">
        <ele>163.5615234375</ele>
        <time>2012-05-26T13:49:06Z</time>
      </trkpt>
      <trkpt lat="43.78197" lon="7.34101">
        <ele>164.04211425781</ele>
        <time>2012-05-26T13:49:10Z</time>
      </trkpt>
      <trkpt lat="43.78199" lon="7.34121">
        <ele>165.00341796875</ele>
        <time>2012-05-26T13:49:17Z</time>
      </trkpt>
      <trkpt lat="43.78206" lon="7.34132">
        <ele>165.48413085938</ele>
        <time>2012-05-26T13:49:22Z</time>
      </trkpt>
      <trkpt lat="43.78212" lon="7.34132">
        <ele>165.00341796875</ele>
        <time>2012-05-26T13:49:24Z</time>
      </trkpt>
      <trkpt lat="43.78221" lon="7.34146">
        <ele>165.00341796875</ele>
        <time>2012-05-26T13:49:30Z</time>
      </trkpt>
      <trkpt lat="43.7822" lon="7.34163">
        <ele>165.96472167969</ele>
        <time>2012-05-26T13:49:35Z</time>
      </trkpt>
      <trkpt lat="43.78236" lon="7.34162">
        <ele>165.96472167969</ele>
        <time>2012-05-26T13:49:40Z</time>
      </trkpt>
      <trkpt lat="43.78245" lon="7.34163">
        <ele>165.48413085938</ele>
        <time>2012-05-26T13:49:43Z</time>
      </trkpt>
      <trkpt lat="43.78262" lon="7.34186">
        <ele>166.4453125</ele>
        <time>2012-05-26T13:49:51Z</time>
      </trkpt>
      <trkpt lat="43.78268" lon="7.34198">
        <ele>166.4453125</ele>
        <time>2012-05-26T13:49:55Z</time>
      </trkpt>
      <trkpt lat="43.78264" lon="7.34209">
        <ele>166.92602539062</ele>
        <time>2012-05-26T13:49:59Z</time>
      </trkpt>
      <trkpt lat="43.78261" lon="7.34214">
        <ele>166.92602539062</ele>
        <time>2012-05-26T13:50:01Z</time>
      </trkpt>
      <trkpt lat="43.78251" lon="7.34211">
        <ele>167.40673828125</ele>
        <time>2012-05-26T13:50:06Z</time>
      </trkpt>
      <trkpt lat="43.78248" lon="7.34227">
        <ele>167.88732910156</ele>
        <time>2012-05-26T13:50:11Z</time>
      </trkpt>
      <trkpt lat="43.7824" lon="7.3425">
        <ele>167.40673828125</ele>
        <time>2012-05-26T13:50:18Z</time>
      </trkpt>
      <trkpt lat="43.78234" lon="7.34258">
        <ele>167.88732910156</ele>
        <time>2012-05-26T13:50:22Z</time>
      </trkpt>
      <trkpt lat="43.78226" lon="7.34263">
        <ele>168.36804199219</ele>
        <time>2012-05-26T13:50:26Z</time>
      </trkpt>
      <trkpt lat="43.78229" lon="7.34303">
        <ele>168.36804199219</ele>
        <time>2012-05-26T13:50:35Z</time>
      </trkpt>
      <trkpt lat="43.78232" lon="7.34323">
        <ele>168.36804199219</ele>
        <time>2012-05-26T13:50:41Z</time>
      </trkpt>
      <trkpt lat="43.78232" lon="7.34346">
        <ele>168.84875488281</ele>
        <time>2012-05-26T13:50:47Z</time>
      </trkpt>
      <trkpt lat="43.78234" lon="7.34351">
        <ele>170.29064941406</ele>
        <time>2012-05-26T13:50:50Z</time>
      </trkpt>
      <trkpt lat="43.78235" lon="7.34361">
        <ele>173.17468261719</ele>
        <time>2012-05-26T13:50:57Z</time>
      </trkpt>
      <trkpt lat="43.78239" lon="7.34365">
        <ele>173.17468261719</ele>
        <time>2012-05-26T13:50:59Z</time>
      </trkpt>
      <trkpt lat="43.7824" lon="7.34376">
        <ele>173.17468261719</ele>
        <time>2012-05-26T13:51:04Z</time>
      </trkpt>
      <trkpt lat="43.78237" lon="7.34387">
        <ele>174.13586425781</ele>
        <time>2012-05-26T13:51:08Z</time>
      </trkpt>
      <trkpt lat="43.78235" lon="7.3439">
        <ele>175.09729003906</ele>
        <time>2012-05-26T13:51:10Z</time>
      </trkpt>
      <trkpt lat="43.78232" lon="7.34392">
        <ele>175.09729003906</ele>
        <time>2012-05-26T13:51:12Z</time>
      </trkpt>
      <trkpt lat="43.78237" lon="7.34411">
        <ele>175.09729003906</ele>
        <time>2012-05-26T13:51:19Z</time>
      </trkpt>
      <trkpt lat="43.78247" lon="7.34424">
        <ele>174.61657714844</ele>
        <time>2012-05-26T13:51:24Z</time>
      </trkpt>
      <trkpt lat="43.78255" lon="7.34429">
        <ele>173.6552734375</ele>
        <time>2012-05-26T13:51:28Z</time>
      </trkpt>
      <trkpt lat="43.78261" lon="7.34427">
        <ele>174.13586425781</ele>
        <time>2012-05-26T13:51:30Z</time>
      </trkpt>
      <trkpt lat="43.78264" lon="7.34413">
        <ele>174.13586425781</ele>
        <time>2012-05-26T13:51:34Z</time>
      </trkpt>
      <trkpt lat="43.78273" lon="7.34406">
        <ele>175.09729003906</ele>
        <time>2012-05-26T13:51:40Z</time>
      </trkpt>
      <trkpt lat="43.78285" lon="7.344">
        <ele>176.05859375</ele>
        <time>2012-05-26T13:51:46Z</time>
      </trkpt>
      <trkpt lat="43.783" lon="7.34415">
        <ele>177.98120117188</ele>
        <time>2012-05-26T13:51:55Z</time>
      </trkpt>
      <trkpt lat="43.78308" lon="7.34414">
        <ele>178.94262695312</ele>
        <time>2012-05-26T13:51:59Z</time>
      </trkpt>
      <trkpt lat="43.78313" lon="7.34421">
        <ele>179.90380859375</ele>
        <time>2012-05-26T13:52:04Z</time>
      </trkpt>
      <trkpt lat="43.7832" lon="7.34418">
        <ele>180.38452148438</ele>
        <time>2012-05-26T13:52:07Z</time>
      </trkpt>
      <trkpt lat="43.78325" lon="7.34427">
        <ele>180.865234375</ele>
        <time>2012-05-26T13:52:11Z</time>
      </trkpt>
      <trkpt lat="43.78323" lon="7.34449">
        <ele>182.78784179688</ele>
        <time>2012-05-26T13:52:21Z</time>
      </trkpt>
      <trkpt lat="43.78329" lon="7.34447">
        <ele>183.7490234375</ele>
        <time>2012-05-26T13:52:26Z</time>
      </trkpt>
      <trkpt lat="43.78332" lon="7.34445">
        <ele>183.7490234375</ele>
        <time>2012-05-26T13:52:28Z</time>
      </trkpt>
      <trkpt lat="43.78336" lon="7.34453">
        <ele>184.71057128906</ele>
        <time>2012-05-26T13:52:33Z</time>
      </trkpt>
      <trkpt lat="43.78345" lon="7.34473">
        <ele>184.71057128906</ele>
        <time>2012-05-26T13:52:41Z</time>
      </trkpt>
      <trkpt lat="43.78344" lon="7.34483">
        <ele>185.67175292969</ele>
        <time>2012-05-26T13:52:45Z</time>
      </trkpt>
      <trkpt lat="43.78355" lon="7.34494">
        <ele>188.55578613281</ele>
        <time>2012-05-26T13:52:58Z</time>
      </trkpt>
      <trkpt lat="43.78356" lon="7.34496">
        <ele>189.99768066406</ele>
        <time>2012-05-26T13:53:00Z</time>
      </trkpt>
      <trkpt lat="43.78358" lon="7.34499">
        <ele>192.88171386719</ele>
        <time>2012-05-26T13:53:06Z</time>
      </trkpt>
      <trkpt lat="43.78364" lon="7.34507">
        <ele>195.765625</ele>
        <time>2012-05-26T13:53:17Z</time>
      </trkpt>
      <trkpt lat="43.78363" lon="7.3451">
        <ele>197.68823242188</ele>
        <time>2012-05-26T13:53:23Z</time>
      </trkpt>
      <trkpt lat="43.78362" lon="7.34511">
        <ele>198.64953613281</ele>
        <time>2012-05-26T13:53:25Z</time>
      </trkpt>
      <trkpt lat="43.78357" lon="7.34526">
        <ele>201.53356933594</ele>
        <time>2012-05-26T13:53:39Z</time>
      </trkpt>
      <trkpt lat="43.78356" lon="7.34536">
        <ele>204.89807128906</ele>
        <time>2012-05-26T13:53:49Z</time>
      </trkpt>
      <trkpt lat="43.78354" lon="7.34542">
        <ele>208.26281738281</ele>
        <time>2012-05-26T13:53:59Z</time>
      </trkpt>
      <trkpt lat="43.78359" lon="7.34551">
        <ele>211.14672851562</ele>
        <time>2012-05-26T13:54:08Z</time>
      </trkpt>
      <trkpt lat="43.78361" lon="7.34564">
        <ele>214.03063964844</ele>
        <time>2012-05-26T13:54:24Z</time>
      </trkpt>
      <trkpt lat="43.78362" lon="7.34566">
        <ele>215.47265625</ele>
        <time>2012-05-26T13:54:28Z</time>
      </trkpt>
      <trkpt lat="43.78363" lon="7.34577">
        <ele>218.83728027344</ele>
        <time>2012-05-26T13:54:38Z</time>
      </trkpt>
      <trkpt lat="43.78366" lon="7.34589">
        <ele>222.20178222656</ele>
        <time>2012-05-26T13:54:49Z</time>
      </trkpt>
      <trkpt lat="43.78367" lon="7.34597">
        <ele>225.56652832031</ele>
        <time>2012-05-26T13:54:59Z</time>
      </trkpt>
      <trkpt lat="43.78372" lon="7.34606">
        <ele>228.45043945312</ele>
        <time>2012-05-26T13:55:11Z</time>
      </trkpt>
      <trkpt lat="43.78379" lon="7.34617">
        <ele>231.81494140625</ele>
        <time>2012-05-26T13:55:22Z</time>
      </trkpt>
      <trkpt lat="43.78384" lon="7.34626">
        <ele>235.1796875</ele>
        <time>2012-05-26T13:55:36Z</time>
      </trkpt>
      <trkpt lat="43.7839" lon="7.34627">
        <ele>237.58288574219</ele>
        <time>2012-05-26T13:55:46Z</time>
      </trkpt>
      <trkpt lat="43.78396" lon="7.34633">
        <ele>241.42822265625</ele>
        <time>2012-05-26T13:55:57Z</time>
      </trkpt>
      <trkpt lat="43.78409" lon="7.34642">
        <ele>245.2734375</ele>
        <time>2012-05-26T13:56:13Z</time>
      </trkpt>
      <trkpt lat="43.78418" lon="7.34655">
        <ele>246.71545410156</ele>
        <time>2012-05-26T13:56:24Z</time>
      </trkpt>
      <trkpt lat="43.7842" lon="7.34659">
        <ele>247.6767578125</ele>
        <time>2012-05-26T13:56:27Z</time>
      </trkpt>
      <trkpt lat="43.78421" lon="7.34665">
        <ele>248.63818359375</ele>
        <time>2012-05-26T13:56:31Z</time>
      </trkpt>
      <trkpt lat="43.78427" lon="7.34672">
        <ele>249.59948730469</ele>
        <time>2012-05-26T13:56:36Z</time>
      </trkpt>
      <trkpt lat="43.78431" lon="7.34683">
        <ele>251.04138183594</ele>
        <time>2012-05-26T13:56:45Z</time>
      </trkpt>
      <trkpt lat="43.78424" lon="7.3469">
        <ele>252.4833984375</ele>
        <time>2012-05-26T13:56:52Z</time>
      </trkpt>
      <trkpt lat="43.78426" lon="7.34703">
        <ele>255.36730957031</ele>
        <time>2012-05-26T13:57:00Z</time>
      </trkpt>
      <trkpt lat="43.7843" lon="7.34714">
        <ele>258.73193359375</ele>
        <time>2012-05-26T13:57:09Z</time>
      </trkpt>
      <trkpt lat="43.78431" lon="7.34715">
        <ele>258.73193359375</ele>
        <time>2012-05-26T13:57:10Z</time>
      </trkpt>
      <trkpt lat="43.78433" lon="7.34718">
        <ele>260.17395019531</ele>
        <time>2012-05-26T13:57:16Z</time>
      </trkpt>
      <trkpt lat="43.78438" lon="7.34728">
        <ele>261.61596679688</ele>
        <time>2012-05-26T13:57:22Z</time>
      </trkpt>
      <trkpt lat="43.7845" lon="7.34744">
        <ele>260.17395019531</ele>
        <time>2012-05-26T13:57:30Z</time>
      </trkpt>
      <trkpt lat="43.78454" lon="7.34748">
        <ele>258.25134277344</ele>
        <time>2012-05-26T13:57:33Z</time>
      </trkpt>
      <trkpt lat="43.78463" lon="7.34754">
        <ele>258.73193359375</ele>
        <time>2012-05-26T13:57:37Z</time>
      </trkpt>
      <trkpt lat="43.78479" lon="7.34766">
        <ele>259.693359375</ele>
        <time>2012-05-26T13:57:44Z</time>
      </trkpt>
      <trkpt lat="43.78497" lon="7.34787">
        <ele>261.13525390625</ele>
        <time>2012-05-26T13:57:54Z</time>
      </trkpt>
      <trkpt lat="43.78502" lon="7.34793">
        <ele>263.05786132812</ele>
        <time>2012-05-26T13:57:59Z</time>
      </trkpt>
      <trkpt lat="43.78512" lon="7.34796">
        <ele>266.42248535156</ele>
        <time>2012-05-26T13:58:09Z</time>
      </trkpt>
      <trkpt lat="43.78516" lon="7.34799">
        <ele>267.86450195312</ele>
        <time>2012-05-26T13:58:15Z</time>
      </trkpt>
      <trkpt lat="43.78522" lon="7.34802">
        <ele>269.30651855469</ele>
        <time>2012-05-26T13:58:21Z</time>
      </trkpt>
      <trkpt lat="43.78531" lon="7.34813">
        <ele>273.63244628906</ele>
        <time>2012-05-26T13:58:34Z</time>
      </trkpt>
      <trkpt lat="43.78532" lon="7.34815">
        <ele>275.07446289062</ele>
        <time>2012-05-26T13:58:38Z</time>
      </trkpt>
      <trkpt lat="43.78535" lon="7.34816">
        <ele>275.07446289062</ele>
        <time>2012-05-26T13:58:41Z</time>
      </trkpt>
      <trkpt lat="43.7854" lon="7.34825">
        <ele>277.47766113281</ele>
        <time>2012-05-26T13:58:54Z</time>
      </trkpt>
      <trkpt lat="43.7854" lon="7.34827">
        <ele>278.91967773438</ele>
        <time>2012-05-26T13:58:56Z</time>
      </trkpt>
      <trkpt lat="43.78542" lon="7.34831">
        <ele>280.36169433594</ele>
        <time>2012-05-26T13:59:01Z</time>
      </trkpt>
      <trkpt lat="43.78548" lon="7.34839">
        <ele>284.20690917969</ele>
        <time>2012-05-26T13:59:13Z</time>
      </trkpt>
      <trkpt lat="43.7855" lon="7.34849">
        <ele>287.0908203125</ele>
        <time>2012-05-26T13:59:25Z</time>
      </trkpt>
      <trkpt lat="43.78552" lon="7.34856">
        <ele>290.45556640625</ele>
        <time>2012-05-26T13:59:36Z</time>
      </trkpt>
      <trkpt lat="43.78555" lon="7.34861">
        <ele>293.82006835938</ele>
        <time>2012-05-26T13:59:46Z</time>
      </trkpt>
      <trkpt lat="43.78558" lon="7.34869">
        <ele>296.7041015625</ele>
        <time>2012-05-26T13:59:58Z</time>
      </trkpt>
      <trkpt lat="43.7856" lon="7.34877">
        <ele>299.58801269531</ele>
        <time>2012-05-26T14:00:09Z</time>
      </trkpt>
      <trkpt lat="43.78563" lon="7.34887">
        <ele>302.95251464844</ele>
        <time>2012-05-26T14:00:23Z</time>
      </trkpt>
      <trkpt lat="43.78567" lon="7.34898">
        <ele>306.31726074219</ele>
        <time>2012-05-26T14:00:35Z</time>
      </trkpt>
      <trkpt lat="43.78568" lon="7.34906">
        <ele>307.27856445312</ele>
        <time>2012-05-26T14:00:42Z</time>
      </trkpt>
      <trkpt lat="43.78568" lon="7.34918">
        <ele>309.201171875</ele>
        <time>2012-05-26T14:00:50Z</time>
      </trkpt>
      <trkpt lat="43.78571" lon="7.34928">
        <ele>311.6044921875</ele>
        <time>2012-05-26T14:00:58Z</time>
      </trkpt>
      <trkpt lat="43.78571" lon="7.34932">
        <ele>312.08520507812</ele>
        <time>2012-05-26T14:01:01Z</time>
      </trkpt>
      <trkpt lat="43.78572" lon="7.34937">
        <ele>313.04650878906</ele>
        <time>2012-05-26T14:01:04Z</time>
      </trkpt>
      <trkpt lat="43.78573" lon="7.34943">
        <ele>314.48840332031</ele>
        <time>2012-05-26T14:01:09Z</time>
      </trkpt>
      <trkpt lat="43.78578" lon="7.34954">
        <ele>317.37243652344</ele>
        <time>2012-05-26T14:01:19Z</time>
      </trkpt>
      <trkpt lat="43.78578" lon="7.34955">
        <ele>317.37243652344</ele>
        <time>2012-05-26T14:01:20Z</time>
      </trkpt>
      <trkpt lat="43.78591" lon="7.34984">
        <ele>317.85302734375</ele>
        <time>2012-05-26T14:01:32Z</time>
      </trkpt>
      <trkpt lat="43.78604" lon="7.35013">
        <ele>318.33361816406</ele>
        <time>2012-05-26T14:01:43Z</time>
      </trkpt>
      <trkpt lat="43.78625" lon="7.35026">
        <ele>316.41101074219</ele>
        <time>2012-05-26T14:01:52Z</time>
      </trkpt>
      <trkpt lat="43.78635" lon="7.35037">
        <ele>314.96911621094</ele>
        <time>2012-05-26T14:01:58Z</time>
      </trkpt>
      <trkpt lat="43.78637" lon="7.35045">
        <ele>315.93041992188</ele>
        <time>2012-05-26T14:02:04Z</time>
      </trkpt>
      <trkpt lat="43.78648" lon="7.35057">
        <ele>317.85302734375</ele>
        <time>2012-05-26T14:02:11Z</time>
      </trkpt>
      <trkpt lat="43.78652" lon="7.35066">
        <ele>318.33361816406</ele>
        <time>2012-05-26T14:02:15Z</time>
      </trkpt>
      <trkpt lat="43.78665" lon="7.3508">
        <ele>318.81433105469</ele>
        <time>2012-05-26T14:02:22Z</time>
      </trkpt>
      <trkpt lat="43.78668" lon="7.35085">
        <ele>317.85302734375</ele>
        <time>2012-05-26T14:02:24Z</time>
      </trkpt>
      <trkpt lat="43.78665" lon="7.35105">
        <ele>317.85302734375</ele>
        <time>2012-05-26T14:02:32Z</time>
      </trkpt>
      <trkpt lat="43.78668" lon="7.35133">
        <ele>317.85302734375</ele>
        <time>2012-05-26T14:02:41Z</time>
      </trkpt>
      <trkpt lat="43.78668" lon="7.35167">
        <ele>317.85302734375</ele>
        <time>2012-05-26T14:02:48Z</time>
      </trkpt>
      <trkpt lat="43.78688" lon="7.35204">
        <ele>317.85302734375</ele>
        <time>2012-05-26T14:02:59Z</time>
      </trkpt>
      <trkpt lat="43.78697" lon="7.35225">
        <ele>314.96911621094</ele>
        <time>2012-05-26T14:03:07Z</time>
      </trkpt>
      <trkpt lat="43.78697" lon="7.35228">
        <ele>314.48840332031</ele>
        <time>2012-05-26T14:03:08Z</time>
      </trkpt>
      <trkpt lat="43.7869" lon="7.35237">
        <ele>311.12377929688</ele>
        <time>2012-05-26T14:03:15Z</time>
      </trkpt>
      <trkpt lat="43.78675" lon="7.3525">
        <ele>308.23986816406</ele>
        <time>2012-05-26T14:03:22Z</time>
      </trkpt>
      <trkpt lat="43.78666" lon="7.35256">
        <ele>306.7978515625</ele>
        <time>2012-05-26T14:03:25Z</time>
      </trkpt>
      <trkpt lat="43.7866" lon="7.35261">
        <ele>305.83666992188</ele>
        <time>2012-05-26T14:03:27Z</time>
      </trkpt>
      <trkpt lat="43.78649" lon="7.35263">
        <ele>303.91394042969</ele>
        <time>2012-05-26T14:03:31Z</time>
      </trkpt>
      <trkpt lat="43.78637" lon="7.35271">
        <ele>302.95251464844</ele>
        <time>2012-05-26T14:03:34Z</time>
      </trkpt>
      <trkpt lat="43.78635" lon="7.3528">
        <ele>301.51062011719</ele>
        <time>2012-05-26T14:03:36Z</time>
      </trkpt>
      <trkpt lat="43.78632" lon="7.35294">
        <ele>300.06872558594</ele>
        <time>2012-05-26T14:03:39Z</time>
      </trkpt>
      <trkpt lat="43.78618" lon="7.35326">
        <ele>299.10729980469</ele>
        <time>2012-05-26T14:03:48Z</time>
      </trkpt>
      <trkpt lat="43.78589" lon="7.35372">
        <ele>300.06872558594</ele>
        <time>2012-05-26T14:04:00Z</time>
      </trkpt>
      <trkpt lat="43.78552" lon="7.35424">
        <ele>299.58801269531</ele>
        <time>2012-05-26T14:04:14Z</time>
      </trkpt>
      <trkpt lat="43.78531" lon="7.35456">
        <ele>296.22351074219</ele>
        <time>2012-05-26T14:04:24Z</time>
      </trkpt>
      <trkpt lat="43.7852" lon="7.35483">
        <ele>293.82006835938</ele>
        <time>2012-05-26T14:04:30Z</time>
      </trkpt>
      <trkpt lat="43.78508" lon="7.3551">
        <ele>289.494140625</ele>
        <time>2012-05-26T14:04:36Z</time>
      </trkpt>
      <trkpt lat="43.78506" lon="7.35514">
        <ele>289.494140625</ele>
        <time>2012-05-26T14:04:37Z</time>
      </trkpt>
      <trkpt lat="43.78503" lon="7.35523">
        <ele>288.53295898438</ele>
        <time>2012-05-26T14:04:39Z</time>
      </trkpt>
      <trkpt lat="43.78487" lon="7.3552">
        <ele>287.0908203125</ele>
        <time>2012-05-26T14:04:46Z</time>
      </trkpt>
      <trkpt lat="43.78477" lon="7.35514">
        <ele>286.61022949219</ele>
        <time>2012-05-26T14:04:50Z</time>
      </trkpt>
      <trkpt lat="43.78461" lon="7.35483">
        <ele>283.24560546875</ele>
        <time>2012-05-26T14:04:58Z</time>
      </trkpt>
      <trkpt lat="43.78458" lon="7.35473">
        <ele>281.32299804688</ele>
        <time>2012-05-26T14:05:00Z</time>
      </trkpt>
      <trkpt lat="43.78456" lon="7.35468">
        <ele>280.36169433594</ele>
        <time>2012-05-26T14:05:02Z</time>
      </trkpt>
      <trkpt lat="43.78451" lon="7.35457">
        <ele>276.9970703125</ele>
        <time>2012-05-26T14:05:07Z</time>
      </trkpt>
      <trkpt lat="43.78447" lon="7.35451">
        <ele>276.03564453125</ele>
        <time>2012-05-26T14:05:09Z</time>
      </trkpt>
      <trkpt lat="43.78442" lon="7.35448">
        <ele>275.55505371094</ele>
        <time>2012-05-26T14:05:12Z</time>
      </trkpt>
      <trkpt lat="43.78419" lon="7.35438">
        <ele>276.51635742188</ele>
        <time>2012-05-26T14:05:21Z</time>
      </trkpt>
      <trkpt lat="43.78399" lon="7.35436">
        <ele>280.36169433594</ele>
        <time>2012-05-26T14:05:31Z</time>
      </trkpt>
      <trkpt lat="43.78393" lon="7.35436">
        <ele>280.84240722656</ele>
        <time>2012-05-26T14:05:33Z</time>
      </trkpt>
      <trkpt lat="43.78385" lon="7.35433">
        <ele>279.880859375</ele>
        <time>2012-05-26T14:05:38Z</time>
      </trkpt>
      <trkpt lat="43.7838" lon="7.35432">
        <ele>278.43896484375</ele>
        <time>2012-05-26T14:05:41Z</time>
      </trkpt>
      <trkpt lat="43.78376" lon="7.3543">
        <ele>276.51635742188</ele>
        <time>2012-05-26T14:05:43Z</time>
      </trkpt>
      <trkpt lat="43.78357" lon="7.3543">
        <ele>272.1904296875</ele>
        <time>2012-05-26T14:05:50Z</time>
      </trkpt>
      <trkpt lat="43.78355" lon="7.3543">
        <ele>272.1904296875</ele>
        <time>2012-05-26T14:05:51Z</time>
      </trkpt>
      <trkpt lat="43.78345" lon="7.35432">
        <ele>269.787109375</ele>
        <time>2012-05-26T14:05:55Z</time>
      </trkpt>
      <trkpt lat="43.78332" lon="7.35431">
        <ele>267.86450195312</ele>
        <time>2012-05-26T14:05:58Z</time>
      </trkpt>
      <trkpt lat="43.7831" lon="7.35433">
        <ele>264.49987792969</ele>
        <time>2012-05-26T14:06:04Z</time>
      </trkpt>
      <trkpt lat="43.78307" lon="7.35433">
        <ele>264.49987792969</ele>
        <time>2012-05-26T14:06:05Z</time>
      </trkpt>
      <trkpt lat="43.78303" lon="7.35434">
        <ele>263.05786132812</ele>
        <time>2012-05-26T14:06:07Z</time>
      </trkpt>
      <trkpt lat="43.78297" lon="7.35436">
        <ele>261.13525390625</ele>
        <time>2012-05-26T14:06:09Z</time>
      </trkpt>
      <trkpt lat="43.78294" lon="7.35437">
        <ele>260.17395019531</ele>
        <time>2012-05-26T14:06:11Z</time>
      </trkpt>
      <trkpt lat="43.78285" lon="7.35439">
        <ele>256.32873535156</ele>
        <time>2012-05-26T14:06:14Z</time>
      </trkpt>
      <trkpt lat="43.7828" lon="7.3544">
        <ele>254.40600585938</ele>
        <time>2012-05-26T14:06:16Z</time>
      </trkpt>
      <trkpt lat="43.78276" lon="7.35441">
        <ele>253.44470214844</ele>
        <time>2012-05-26T14:06:18Z</time>
      </trkpt>
      <trkpt lat="43.7826" lon="7.3545">
        <ele>251.52209472656</ele>
        <time>2012-05-26T14:06:21Z</time>
      </trkpt>
      <trkpt lat="43.78247" lon="7.3547">
        <ele>247.19604492188</ele>
        <time>2012-05-26T14:06:27Z</time>
      </trkpt>
      <trkpt lat="43.78245" lon="7.35474">
        <ele>247.19604492188</ele>
        <time>2012-05-26T14:06:28Z</time>
      </trkpt>
      <trkpt lat="43.78242" lon="7.35479">
        <ele>245.75415039062</ele>
        <time>2012-05-26T14:06:30Z</time>
      </trkpt>
      <trkpt lat="43.7824" lon="7.35482">
        <ele>244.31225585938</ele>
        <time>2012-05-26T14:06:35Z</time>
      </trkpt>
      <trkpt lat="43.78234" lon="7.35492">
        <ele>241.90893554688</ele>
        <time>2012-05-26T14:06:39Z</time>
      </trkpt>
      <trkpt lat="43.78229" lon="7.35507">
        <ele>239.50549316406</ele>
        <time>2012-05-26T14:06:41Z</time>
      </trkpt>
      <trkpt lat="43.78226" lon="7.35509">
        <ele>237.10229492188</ele>
        <time>2012-05-26T14:06:46Z</time>
      </trkpt>
      <trkpt lat="43.78217" lon="7.35523">
        <ele>234.21838378906</ele>
        <time>2012-05-26T14:06:48Z</time>
      </trkpt>
      <trkpt lat="43.78214" lon="7.35523">
        <ele>234.21838378906</ele>
        <time>2012-05-26T14:06:49Z</time>
      </trkpt>
      <trkpt lat="43.78204" lon="7.35525">
        <ele>230.85375976562</ele>
        <time>2012-05-26T14:06:52Z</time>
      </trkpt>
      <trkpt lat="43.78204" lon="7.35525">
        <ele>230.85375976562</ele>
        <time>2012-05-26T14:06:53Z</time>
      </trkpt>
      <trkpt lat="43.78204" lon="7.35525">
        <ele>229.89233398438</ele>
        <time>2012-05-26T14:06:55Z</time>
      </trkpt>
      <trkpt lat="43.78189" lon="7.35536">
        <ele>228.93115234375</ele>
        <time>2012-05-26T14:06:58Z</time>
      </trkpt>
      <trkpt lat="43.78183" lon="7.3556">
        <ele>227.9697265625</ele>
        <time>2012-05-26T14:07:04Z</time>
      </trkpt>
      <trkpt lat="43.78182" lon="7.35565">
        <ele>227.9697265625</ele>
        <time>2012-05-26T14:07:09Z</time>
      </trkpt>
      <trkpt lat="43.78177" lon="7.35589">
        <ele>225.56652832031</ele>
        <time>2012-05-26T14:07:14Z</time>
      </trkpt>
      <trkpt lat="43.78175" lon="7.35599">
        <ele>224.12451171875</ele>
        <time>2012-05-26T14:07:21Z</time>
      </trkpt>
      <trkpt lat="43.78175" lon="7.35599">
        <ele>226.52783203125</ele>
        <time>2012-05-26T14:07:26Z</time>
      </trkpt>
      <trkpt lat="43.78175" lon="7.35599">
        <ele>229.89233398438</ele>
        <time>2012-05-26T14:07:40Z</time>
      </trkpt>
      <trkpt lat="43.78175" lon="7.35599">
        <ele>229.89233398438</ele>
        <time>2012-05-26T14:07:47Z</time>
      </trkpt>
      <trkpt lat="43.78164" lon="7.35634">
        <ele>228.93115234375</ele>
        <time>2012-05-26T14:07:49Z</time>
      </trkpt>
      <trkpt lat="43.78182" lon="7.35646">
        <ele>228.45043945312</ele>
        <time>2012-05-26T14:07:51Z</time>
      </trkpt>
      <trkpt lat="43.78183" lon="7.3565">
        <ele>227.48913574219</ele>
        <time>2012-05-26T14:07:53Z</time>
      </trkpt>
      <trkpt lat="43.78184" lon="7.35679">
        <ele>226.04711914062</ele>
        <time>2012-05-26T14:07:58Z</time>
      </trkpt>
      <trkpt lat="43.78189" lon="7.35704">
        <ele>227.00854492188</ele>
        <time>2012-05-26T14:08:04Z</time>
      </trkpt>
      <trkpt lat="43.78193" lon="7.35723">
        <ele>229.41174316406</ele>
        <time>2012-05-26T14:08:11Z</time>
      </trkpt>
      <trkpt lat="43.78197" lon="7.35734">
        <ele>231.33435058594</ele>
        <time>2012-05-26T14:08:19Z</time>
      </trkpt>
      <trkpt lat="43.78199" lon="7.35763">
        <ele>233.73767089844</ele>
        <time>2012-05-26T14:08:34Z</time>
      </trkpt>
      <trkpt lat="43.78199" lon="7.35767">
        <ele>234.21838378906</ele>
        <time>2012-05-26T14:08:36Z</time>
      </trkpt>
      <trkpt lat="43.78198" lon="7.3579">
        <ele>235.66027832031</ele>
        <time>2012-05-26T14:08:45Z</time>
      </trkpt>
      <trkpt lat="43.78198" lon="7.35794">
        <ele>236.14099121094</ele>
        <time>2012-05-26T14:08:48Z</time>
      </trkpt>
      <trkpt lat="43.78198" lon="7.35797">
        <ele>237.10229492188</ele>
        <time>2012-05-26T14:08:50Z</time>
      </trkpt>
      <trkpt lat="43.78203" lon="7.3581">
        <ele>238.54431152344</ele>
        <time>2012-05-26T14:08:57Z</time>
      </trkpt>
      <trkpt lat="43.78207" lon="7.35825">
        <ele>239.50549316406</ele>
        <time>2012-05-26T14:09:05Z</time>
      </trkpt>
      <trkpt lat="43.78202" lon="7.35851">
        <ele>241.42822265625</ele>
        <time>2012-05-26T14:09:17Z</time>
      </trkpt>
      <trkpt lat="43.78203" lon="7.35855">
        <ele>242.3896484375</ele>
        <time>2012-05-26T14:09:20Z</time>
      </trkpt>
      <trkpt lat="43.78216" lon="7.35865">
        <ele>244.79284667969</ele>
        <time>2012-05-26T14:09:32Z</time>
      </trkpt>
      <trkpt lat="43.78225" lon="7.35871">
        <ele>245.75415039062</ele>
        <time>2012-05-26T14:09:39Z</time>
      </trkpt>
      <trkpt lat="43.78234" lon="7.35877">
        <ele>247.19604492188</ele>
        <time>2012-05-26T14:09:46Z</time>
      </trkpt>
      <trkpt lat="43.7824" lon="7.35888">
        <ele>248.63818359375</ele>
        <time>2012-05-26T14:09:58Z</time>
      </trkpt>
      <trkpt lat="43.78234" lon="7.35913">
        <ele>251.04138183594</ele>
        <time>2012-05-26T14:10:10Z</time>
      </trkpt>
      <trkpt lat="43.78252" lon="7.35916">
        <ele>252.4833984375</ele>
        <time>2012-05-26T14:10:16Z</time>
      </trkpt>
      <trkpt lat="43.78271" lon="7.35925">
        <ele>254.40600585938</ele>
        <time>2012-05-26T14:10:26Z</time>
      </trkpt>
      <trkpt lat="43.78276" lon="7.35923">
        <ele>254.88659667969</ele>
        <time>2012-05-26T14:10:30Z</time>
      </trkpt>
      <trkpt lat="43.78281" lon="7.35923">
        <ele>255.36730957031</ele>
        <time>2012-05-26T14:10:34Z</time>
      </trkpt>
      <trkpt lat="43.78292" lon="7.35918">
        <ele>255.84802246094</ele>
        <time>2012-05-26T14:10:38Z</time>
      </trkpt>
      <trkpt lat="43.783" lon="7.35917">
        <ele>257.77075195312</ele>
        <time>2012-05-26T14:10:44Z</time>
      </trkpt>
      <trkpt lat="43.78313" lon="7.35917">
        <ele>258.73193359375</ele>
        <time>2012-05-26T14:10:56Z</time>
      </trkpt>
      <trkpt lat="43.78351" lon="7.3591">
        <ele>260.65454101562</ele>
        <time>2012-05-26T14:11:10Z</time>
      </trkpt>
      <trkpt lat="43.78362" lon="7.35913">
        <ele>262.09655761719</ele>
        <time>2012-05-26T14:11:19Z</time>
      </trkpt>
      <trkpt lat="43.78374" lon="7.35924">
        <ele>264.49987792969</ele>
        <time>2012-05-26T14:11:30Z</time>
      </trkpt>
      <trkpt lat="43.78376" lon="7.35932">
        <ele>264.98059082031</ele>
        <time>2012-05-26T14:11:35Z</time>
      </trkpt>
      <trkpt lat="43.78385" lon="7.35958">
        <ele>266.90319824219</ele>
        <time>2012-05-26T14:11:46Z</time>
      </trkpt>
      <trkpt lat="43.78384" lon="7.35966">
        <ele>264.49987792969</ele>
        <time>2012-05-26T14:11:50Z</time>
      </trkpt>
      <trkpt lat="43.78393" lon="7.35995">
        <ele>261.61596679688</ele>
        <time>2012-05-26T14:11:56Z</time>
      </trkpt>
      <trkpt lat="43.78401" lon="7.36001">
        <ele>259.693359375</ele>
        <time>2012-05-26T14:11:59Z</time>
      </trkpt>
      <trkpt lat="43.78405" lon="7.36018">
        <ele>259.693359375</ele>
        <time>2012-05-26T14:12:05Z</time>
      </trkpt>
      <trkpt lat="43.78407" lon="7.36025">
        <ele>260.17395019531</ele>
        <time>2012-05-26T14:12:09Z</time>
      </trkpt>
      <trkpt lat="43.7841" lon="7.36043">
        <ele>261.13525390625</ele>
        <time>2012-05-26T14:12:16Z</time>
      </trkpt>
      <trkpt lat="43.7841" lon="7.36048">
        <ele>261.13525390625</ele>
        <time>2012-05-26T14:12:18Z</time>
      </trkpt>
      <trkpt lat="43.7841" lon="7.36085">
        <ele>262.09655761719</ele>
        <time>2012-05-26T14:12:31Z</time>
      </trkpt>
      <trkpt lat="43.78403" lon="7.36136">
        <ele>263.05786132812</ele>
        <time>2012-05-26T14:12:42Z</time>
      </trkpt>
      <trkpt lat="43.78402" lon="7.36195">
        <ele>264.01928710938</ele>
        <time>2012-05-26T14:12:53Z</time>
      </trkpt>
      <trkpt lat="43.78381" lon="7.36285">
        <ele>264.98059082031</ele>
        <time>2012-05-26T14:13:01Z</time>
      </trkpt>
      <trkpt lat="43.78401" lon="7.36279">
        <ele>265.46130371094</ele>
        <time>2012-05-26T14:13:08Z</time>
      </trkpt>
      <trkpt lat="43.78383" lon="7.36408">
        <ele>266.42248535156</ele>
        <time>2012-05-26T14:13:20Z</time>
      </trkpt>
      <trkpt lat="43.78386" lon="7.36413">
        <ele>266.42248535156</ele>
        <time>2012-05-26T14:13:22Z</time>
      </trkpt>
      <trkpt lat="43.78399" lon="7.36435">
        <ele>269.787109375</ele>
        <time>2012-05-26T14:13:36Z</time>
      </trkpt>
      <trkpt lat="43.78402" lon="7.36439">
        <ele>272.67114257812</ele>
        <time>2012-05-26T14:13:44Z</time>
      </trkpt>
      <trkpt lat="43.78403" lon="7.36441">
        <ele>273.63244628906</ele>
        <time>2012-05-26T14:13:46Z</time>
      </trkpt>
      <trkpt lat="43.78416" lon="7.36461">
        <ele>273.63244628906</ele>
        <time>2012-05-26T14:13:57Z</time>
      </trkpt>
      <trkpt lat="43.78414" lon="7.36476">
        <ele>274.59375</ele>
        <time>2012-05-26T14:14:02Z</time>
      </trkpt>
      <trkpt lat="43.78421" lon="7.36491">
        <ele>277.47766113281</ele>
        <time>2012-05-26T14:14:14Z</time>
      </trkpt>
      <trkpt lat="43.78424" lon="7.36501">
        <ele>278.91967773438</ele>
        <time>2012-05-26T14:14:22Z</time>
      </trkpt>
      <trkpt lat="43.78429" lon="7.36512">
        <ele>280.36169433594</ele>
        <time>2012-05-26T14:14:31Z</time>
      </trkpt>
      <trkpt lat="43.78432" lon="7.36517">
        <ele>281.32299804688</ele>
        <time>2012-05-26T14:14:35Z</time>
      </trkpt>
      <trkpt lat="43.78431" lon="7.36532">
        <ele>282.28430175781</ele>
        <time>2012-05-26T14:14:42Z</time>
      </trkpt>
      <trkpt lat="43.78429" lon="7.36537">
        <ele>283.72619628906</ele>
        <time>2012-05-26T14:14:47Z</time>
      </trkpt>
      <trkpt lat="43.78431" lon="7.36542">
        <ele>283.72619628906</ele>
        <time>2012-05-26T14:14:50Z</time>
      </trkpt>
      <trkpt lat="43.7844" lon="7.36563">
        <ele>287.0908203125</ele>
        <time>2012-05-26T14:15:05Z</time>
      </trkpt>
      <trkpt lat="43.7845" lon="7.36579">
        <ele>289.01354980469</ele>
        <time>2012-05-26T14:15:21Z</time>
      </trkpt>
      <trkpt lat="43.78449" lon="7.36583">
        <ele>289.494140625</ele>
        <time>2012-05-26T14:15:23Z</time>
      </trkpt>
      <trkpt lat="43.78453" lon="7.36598">
        <ele>289.97485351562</ele>
        <time>2012-05-26T14:15:31Z</time>
      </trkpt>
      <trkpt lat="43.78455" lon="7.36623">
        <ele>292.37817382812</ele>
        <time>2012-05-26T14:15:44Z</time>
      </trkpt>
      <trkpt lat="43.78463" lon="7.36639">
        <ele>293.33935546875</ele>
        <time>2012-05-26T14:15:55Z</time>
      </trkpt>
      <trkpt lat="43.78464" lon="7.3664">
        <ele>293.82006835938</ele>
        <time>2012-05-26T14:15:56Z</time>
      </trkpt>
      <trkpt lat="43.78476" lon="7.36638">
        <ele>292.85876464844</ele>
        <time>2012-05-26T14:16:01Z</time>
      </trkpt>
      <trkpt lat="43.78501" lon="7.36636">
        <ele>290.45556640625</ele>
        <time>2012-05-26T14:16:15Z</time>
      </trkpt>
      <trkpt lat="43.78503" lon="7.36632">
        <ele>289.97485351562</ele>
        <time>2012-05-26T14:16:21Z</time>
      </trkpt>
      <trkpt lat="43.78518" lon="7.36616">
        <ele>292.37817382812</ele>
        <time>2012-05-26T14:16:34Z</time>
      </trkpt>
      <trkpt lat="43.78536" lon="7.36627">
        <ele>293.82006835938</ele>
        <time>2012-05-26T14:16:51Z</time>
      </trkpt>
      <trkpt lat="43.78551" lon="7.36646">
        <ele>297.18469238281</ele>
        <time>2012-05-26T14:17:06Z</time>
      </trkpt>
      <trkpt lat="43.7857" lon="7.36673">
        <ele>300.06872558594</ele>
        <time>2012-05-26T14:17:27Z</time>
      </trkpt>
      <trkpt lat="43.78583" lon="7.36678">
        <ele>301.99133300781</ele>
        <time>2012-05-26T14:17:33Z</time>
      </trkpt>
      <trkpt lat="43.78588" lon="7.36684">
        <ele>302.47192382812</ele>
        <time>2012-05-26T14:17:39Z</time>
      </trkpt>
      <trkpt lat="43.78605" lon="7.36693">
        <ele>303.43322753906</ele>
        <time>2012-05-26T14:17:50Z</time>
      </trkpt>
      <trkpt lat="43.78617" lon="7.36699">
        <ele>303.91394042969</ele>
        <time>2012-05-26T14:17:55Z</time>
      </trkpt>
      <trkpt lat="43.78646" lon="7.36699">
        <ele>303.43322753906</ele>
        <time>2012-05-26T14:18:03Z</time>
      </trkpt>
      <trkpt lat="43.78676" lon="7.3669">
        <ele>301.99133300781</ele>
        <time>2012-05-26T14:18:13Z</time>
      </trkpt>
      <trkpt lat="43.78704" lon="7.36697">
        <ele>301.02990722656</ele>
        <time>2012-05-26T14:18:22Z</time>
      </trkpt>
      <trkpt lat="43.78734" lon="7.36707">
        <ele>300.06872558594</ele>
        <time>2012-05-26T14:18:33Z</time>
      </trkpt>
      <trkpt lat="43.78751" lon="7.36711">
        <ele>299.58801269531</ele>
        <time>2012-05-26T14:18:39Z</time>
      </trkpt>
      <trkpt lat="43.7876" lon="7.36711">
        <ele>299.10729980469</ele>
        <time>2012-05-26T14:18:43Z</time>
      </trkpt>
      <trkpt lat="43.78789" lon="7.36704">
        <ele>298.62670898438</ele>
        <time>2012-05-26T14:18:52Z</time>
      </trkpt>
      <trkpt lat="43.78817" lon="7.36695">
        <ele>298.14611816406</ele>
        <time>2012-05-26T14:19:01Z</time>
      </trkpt>
      <trkpt lat="43.78848" lon="7.36685">
        <ele>297.18469238281</ele>
        <time>2012-05-26T14:19:11Z</time>
      </trkpt>
      <trkpt lat="43.78854" lon="7.36685">
        <ele>297.18469238281</ele>
        <time>2012-05-26T14:19:13Z</time>
      </trkpt>
      <trkpt lat="43.7887" lon="7.36673">
        <ele>296.7041015625</ele>
        <time>2012-05-26T14:19:19Z</time>
      </trkpt>
      <trkpt lat="43.78888" lon="7.3665">
        <ele>296.22351074219</ele>
        <time>2012-05-26T14:19:27Z</time>
      </trkpt>
      <trkpt lat="43.78891" lon="7.36649">
        <ele>296.22351074219</ele>
        <time>2012-05-26T14:19:28Z</time>
      </trkpt>
      <trkpt lat="43.78928" lon="7.36653">
        <ele>293.82006835938</ele>
        <time>2012-05-26T14:19:40Z</time>
      </trkpt>
      <trkpt lat="43.78957" lon="7.36652">
        <ele>293.33935546875</ele>
        <time>2012-05-26T14:19:49Z</time>
      </trkpt>
      <trkpt lat="43.78979" lon="7.36649">
        <ele>292.37817382812</ele>
        <time>2012-05-26T14:19:57Z</time>
      </trkpt>
      <trkpt lat="43.78981" lon="7.3665">
        <ele>292.37817382812</ele>
        <time>2012-05-26T14:19:58Z</time>
      </trkpt>
      <trkpt lat="43.79004" lon="7.36644">
        <ele>292.85876464844</ele>
        <time>2012-05-26T14:20:08Z</time>
      </trkpt>
      <trkpt lat="43.79007" lon="7.36641">
        <ele>291.8974609375</ele>
        <time>2012-05-26T14:20:10Z</time>
      </trkpt>
      <trkpt lat="43.79017" lon="7.36613">
        <ele>289.01354980469</ele>
        <time>2012-05-26T14:20:17Z</time>
      </trkpt>
      <trkpt lat="43.79021" lon="7.36603">
        <ele>289.01354980469</ele>
        <time>2012-05-26T14:20:20Z</time>
      </trkpt>
      <trkpt lat="43.79027" lon="7.36593">
        <ele>287.57141113281</ele>
        <time>2012-05-26T14:20:24Z</time>
      </trkpt>
      <trkpt lat="43.79033" lon="7.36586">
        <ele>286.61022949219</ele>
        <time>2012-05-26T14:20:27Z</time>
      </trkpt>
      <trkpt lat="43.79049" lon="7.36539">
        <ele>287.57141113281</ele>
        <time>2012-05-26T14:20:40Z</time>
      </trkpt>
      <trkpt lat="43.79068" lon="7.36508">
        <ele>286.61022949219</ele>
        <time>2012-05-26T14:20:51Z</time>
      </trkpt>
      <trkpt lat="43.79084" lon="7.36498">
        <ele>284.20690917969</ele>
        <time>2012-05-26T14:20:58Z</time>
      </trkpt>
      <trkpt lat="43.79088" lon="7.36498">
        <ele>282.76501464844</ele>
        <time>2012-05-26T14:21:01Z</time>
      </trkpt>
      <trkpt lat="43.79092" lon="7.36497">
        <ele>281.80358886719</ele>
        <time>2012-05-26T14:21:02Z</time>
      </trkpt>
      <trkpt lat="43.79102" lon="7.36487">
        <ele>278.43896484375</ele>
        <time>2012-05-26T14:21:07Z</time>
      </trkpt>
      <trkpt lat="43.79105" lon="7.36486">
        <ele>278.43896484375</ele>
        <time>2012-05-26T14:21:08Z</time>
      </trkpt>
      <trkpt lat="43.79111" lon="7.36482">
        <ele>276.9970703125</ele>
        <time>2012-05-26T14:21:10Z</time>
      </trkpt>
      <trkpt lat="43.79119" lon="7.36474">
        <ele>275.07446289062</ele>
        <time>2012-05-26T14:21:13Z</time>
      </trkpt>
      <trkpt lat="43.79123" lon="7.36472">
        <ele>274.59375</ele>
        <time>2012-05-26T14:21:15Z</time>
      </trkpt>
      <trkpt lat="43.79143" lon="7.36463">
        <ele>271.22912597656</ele>
        <time>2012-05-26T14:21:22Z</time>
      </trkpt>
      <trkpt lat="43.79147" lon="7.36461">
        <ele>270.26770019531</ele>
        <time>2012-05-26T14:21:24Z</time>
      </trkpt>
      <trkpt lat="43.79169" lon="7.36453">
        <ele>267.38391113281</ele>
        <time>2012-05-26T14:21:31Z</time>
      </trkpt>
      <trkpt lat="43.79177" lon="7.3645">
        <ele>266.90319824219</ele>
        <time>2012-05-26T14:21:33Z</time>
      </trkpt>
      <trkpt lat="43.79189" lon="7.36437">
        <ele>264.49987792969</ele>
        <time>2012-05-26T14:21:38Z</time>
      </trkpt>
      <trkpt lat="43.79194" lon="7.3643">
        <ele>262.5771484375</ele>
        <time>2012-05-26T14:21:41Z</time>
      </trkpt>
      <trkpt lat="43.79204" lon="7.36421">
        <ele>261.13525390625</ele>
        <time>2012-05-26T14:21:45Z</time>
      </trkpt>
      <trkpt lat="43.7921" lon="7.36419">
        <ele>260.17395019531</ele>
        <time>2012-05-26T14:21:47Z</time>
      </trkpt>
      <trkpt lat="43.79221" lon="7.36419">
        <ele>259.21264648438</ele>
        <time>2012-05-26T14:21:51Z</time>
      </trkpt>
      <trkpt lat="43.79231" lon="7.36419">
        <ele>258.25134277344</ele>
        <time>2012-05-26T14:21:55Z</time>
      </trkpt>
      <trkpt lat="43.79236" lon="7.3642">
        <ele>257.77075195312</ele>
        <time>2012-05-26T14:21:57Z</time>
      </trkpt>
      <trkpt lat="43.79244" lon="7.36412">
        <ele>256.80932617188</ele>
        <time>2012-05-26T14:22:01Z</time>
      </trkpt>
      <trkpt lat="43.79265" lon="7.36408">
        <ele>252.96398925781</ele>
        <time>2012-05-26T14:22:09Z</time>
      </trkpt>
      <trkpt lat="43.79278" lon="7.364">
        <ele>250.56079101562</ele>
        <time>2012-05-26T14:22:15Z</time>
      </trkpt>
      <trkpt lat="43.79286" lon="7.36391">
        <ele>248.15759277344</ele>
        <time>2012-05-26T14:22:19Z</time>
      </trkpt>
      <trkpt lat="43.79294" lon="7.36386">
        <ele>246.71545410156</ele>
        <time>2012-05-26T14:22:22Z</time>
      </trkpt>
      <trkpt lat="43.79299" lon="7.36382">
        <ele>244.79284667969</ele>
        <time>2012-05-26T14:22:25Z</time>
      </trkpt>
      <trkpt lat="43.79308" lon="7.36372">
        <ele>243.35083007812</ele>
        <time>2012-05-26T14:22:29Z</time>
      </trkpt>
      <trkpt lat="43.79316" lon="7.36362">
        <ele>241.42822265625</ele>
        <time>2012-05-26T14:22:32Z</time>
      </trkpt>
      <trkpt lat="43.79324" lon="7.36357">
        <ele>239.50549316406</ele>
        <time>2012-05-26T14:22:36Z</time>
      </trkpt>
      <trkpt lat="43.79329" lon="7.36357">
        <ele>237.10229492188</ele>
        <time>2012-05-26T14:22:39Z</time>
      </trkpt>
      <trkpt lat="43.79338" lon="7.36353">
        <ele>235.1796875</ele>
        <time>2012-05-26T14:22:43Z</time>
      </trkpt>
      <trkpt lat="43.79344" lon="7.36351">
        <ele>233.73767089844</ele>
        <time>2012-05-26T14:22:45Z</time>
      </trkpt>
      <trkpt lat="43.79355" lon="7.3635">
        <ele>230.85375976562</ele>
        <time>2012-05-26T14:22:50Z</time>
      </trkpt>
      <trkpt lat="43.79358" lon="7.3635">
        <ele>230.373046875</ele>
        <time>2012-05-26T14:22:51Z</time>
      </trkpt>
      <trkpt lat="43.79366" lon="7.36344">
        <ele>228.45043945312</ele>
        <time>2012-05-26T14:22:55Z</time>
      </trkpt>
      <trkpt lat="43.79374" lon="7.36349">
        <ele>225.0859375</ele>
        <time>2012-05-26T14:22:58Z</time>
      </trkpt>
      <trkpt lat="43.79376" lon="7.3635">
        <ele>225.0859375</ele>
        <time>2012-05-26T14:22:59Z</time>
      </trkpt>
      <trkpt lat="43.7938" lon="7.36354">
        <ele>225.0859375</ele>
        <time>2012-05-26T14:23:01Z</time>
      </trkpt>
      <trkpt lat="43.79404" lon="7.36339">
        <ele>222.20178222656</ele>
        <time>2012-05-26T14:23:10Z</time>
      </trkpt>
      <trkpt lat="43.79409" lon="7.36341">
        <ele>219.79858398438</ele>
        <time>2012-05-26T14:23:12Z</time>
      </trkpt>
      <trkpt lat="43.7942" lon="7.36345">
        <ele>218.83728027344</ele>
        <time>2012-05-26T14:23:17Z</time>
      </trkpt>
      <trkpt lat="43.79428" lon="7.36344">
        <ele>216.91467285156</ele>
        <time>2012-05-26T14:23:20Z</time>
      </trkpt>
      <trkpt lat="43.79429" lon="7.36344">
        <ele>216.91467285156</ele>
        <time>2012-05-26T14:23:21Z</time>
      </trkpt>
      <trkpt lat="43.79436" lon="7.36342">
        <ele>214.51123046875</ele>
        <time>2012-05-26T14:23:25Z</time>
      </trkpt>
      <trkpt lat="43.79447" lon="7.36336">
        <ele>212.58862304688</ele>
        <time>2012-05-26T14:23:29Z</time>
      </trkpt>
      <trkpt lat="43.79459" lon="7.36316">
        <ele>208.74340820312</ele>
        <time>2012-05-26T14:23:35Z</time>
      </trkpt>
      <trkpt lat="43.79469" lon="7.36299">
        <ele>205.37878417969</ele>
        <time>2012-05-26T14:23:42Z</time>
      </trkpt>
      <trkpt lat="43.79475" lon="7.36286">
        <ele>203.45617675781</ele>
        <time>2012-05-26T14:23:47Z</time>
      </trkpt>
      <trkpt lat="43.79481" lon="7.36278">
        <ele>200.572265625</ele>
        <time>2012-05-26T14:23:50Z</time>
      </trkpt>
      <trkpt lat="43.79488" lon="7.3627">
        <ele>199.13012695312</ele>
        <time>2012-05-26T14:23:54Z</time>
      </trkpt>
      <trkpt lat="43.79491" lon="7.36264">
        <ele>197.20751953125</ele>
        <time>2012-05-26T14:23:57Z</time>
      </trkpt>
      <trkpt lat="43.79499" lon="7.36242">
        <ele>194.80432128906</ele>
        <time>2012-05-26T14:24:04Z</time>
      </trkpt>
      <trkpt lat="43.7951" lon="7.36217">
        <ele>192.88171386719</ele>
        <time>2012-05-26T14:24:14Z</time>
      </trkpt>
      <trkpt lat="43.79507" lon="7.36212">
        <ele>193.84301757812</ele>
        <time>2012-05-26T14:24:45Z</time>
      </trkpt>
      <trkpt lat="43.79504" lon="7.36208">
        <ele>194.80432128906</ele>
        <time>2012-05-26T14:24:49Z</time>
      </trkpt>
      <trkpt lat="43.79498" lon="7.36197">
        <ele>196.24633789062</ele>
        <time>2012-05-26T14:24:56Z</time>
      </trkpt>
      <trkpt lat="43.79485" lon="7.36177">
        <ele>199.61083984375</ele>
        <time>2012-05-26T14:25:09Z</time>
      </trkpt>
      <trkpt lat="43.79483" lon="7.36175">
        <ele>199.61083984375</ele>
        <time>2012-05-26T14:25:11Z</time>
      </trkpt>
      <trkpt lat="43.79467" lon="7.36169">
        <ele>202.49487304688</ele>
        <time>2012-05-26T14:25:26Z</time>
      </trkpt>
      <trkpt lat="43.79461" lon="7.36163">
        <ele>203.45617675781</ele>
        <time>2012-05-26T14:25:30Z</time>
      </trkpt>
      <trkpt lat="43.79451" lon="7.3616">
        <ele>204.41748046875</ele>
        <time>2012-05-26T14:25:38Z</time>
      </trkpt>
      <trkpt lat="43.79434" lon="7.36153">
        <ele>206.34008789062</ele>
        <time>2012-05-26T14:25:51Z</time>
      </trkpt>
      <trkpt lat="43.79432" lon="7.36149">
        <ele>206.34008789062</ele>
        <time>2012-05-26T14:25:53Z</time>
      </trkpt>
      <trkpt lat="43.79424" lon="7.36138">
        <ele>208.74340820312</ele>
        <time>2012-05-26T14:26:02Z</time>
      </trkpt>
      <trkpt lat="43.79419" lon="7.36133">
        <ele>209.22412109375</ele>
        <time>2012-05-26T14:26:05Z</time>
      </trkpt>
      <trkpt lat="43.79396" lon="7.36124">
        <ele>211.62744140625</ele>
        <time>2012-05-26T14:26:21Z</time>
      </trkpt>
      <trkpt lat="43.79369" lon="7.36119">
        <ele>214.99194335938</ele>
        <time>2012-05-26T14:26:33Z</time>
      </trkpt>
      <trkpt lat="43.79337" lon="7.3611">
        <ele>211.62744140625</ele>
        <time>2012-05-26T14:26:44Z</time>
      </trkpt>
      <trkpt lat="43.79318" lon="7.36108">
        <ele>209.22412109375</ele>
        <time>2012-05-26T14:26:53Z</time>
      </trkpt>
      <trkpt lat="43.79315" lon="7.36105">
        <ele>209.70483398438</ele>
        <time>2012-05-26T14:26:55Z</time>
      </trkpt>
      <trkpt lat="43.79314" lon="7.3609">
        <ele>211.62744140625</ele>
        <time>2012-05-26T14:27:04Z</time>
      </trkpt>
      <trkpt lat="43.79314" lon="7.36068">
        <ele>213.55004882812</ele>
        <time>2012-05-26T14:27:12Z</time>
      </trkpt>
      <trkpt lat="43.79309" lon="7.36056">
        <ele>214.03063964844</ele>
        <time>2012-05-26T14:27:17Z</time>
      </trkpt>
      <trkpt lat="43.79306" lon="7.36054">
        <ele>214.03063964844</ele>
        <time>2012-05-26T14:27:19Z</time>
      </trkpt>
      <trkpt lat="43.793" lon="7.36054">
        <ele>214.51123046875</ele>
        <time>2012-05-26T14:27:23Z</time>
      </trkpt>
      <trkpt lat="43.79292" lon="7.36049">
        <ele>214.03063964844</ele>
        <time>2012-05-26T14:27:28Z</time>
      </trkpt>
      <trkpt lat="43.79271" lon="7.3604">
        <ele>214.51123046875</ele>
        <time>2012-05-26T14:27:42Z</time>
      </trkpt>
      <trkpt lat="43.79259" lon="7.3603">
        <ele>215.95324707031</ele>
        <time>2012-05-26T14:27:50Z</time>
      </trkpt>
      <trkpt lat="43.79246" lon="7.36014">
        <ele>218.83728027344</ele>
        <time>2012-05-26T14:28:04Z</time>
      </trkpt>
      <trkpt lat="43.79231" lon="7.36">
        <ele>220.75988769531</ele>
        <time>2012-05-26T14:28:16Z</time>
      </trkpt>
      <trkpt lat="43.79201" lon="7.36">
        <ele>220.75988769531</ele>
        <time>2012-05-26T14:28:27Z</time>
      </trkpt>
      <trkpt lat="43.79178" lon="7.35995">
        <ele>222.20178222656</ele>
        <time>2012-05-26T14:28:37Z</time>
      </trkpt>
      <trkpt lat="43.79173" lon="7.35995">
        <ele>222.68249511719</ele>
        <time>2012-05-26T14:28:41Z</time>
      </trkpt>
      <trkpt lat="43.7916" lon="7.35999">
        <ele>226.52783203125</ele>
        <time>2012-05-26T14:28:50Z</time>
      </trkpt>
      <trkpt lat="43.79145" lon="7.36012">
        <ele>228.93115234375</ele>
        <time>2012-05-26T14:29:07Z</time>
      </trkpt>
      <trkpt lat="43.79139" lon="7.36031">
        <ele>231.81494140625</ele>
        <time>2012-05-26T14:29:19Z</time>
      </trkpt>
      <trkpt lat="43.79135" lon="7.36054">
        <ele>233.73767089844</ele>
        <time>2012-05-26T14:29:32Z</time>
      </trkpt>
      <trkpt lat="43.79138" lon="7.3608">
        <ele>236.62170410156</ele>
        <time>2012-05-26T14:29:47Z</time>
      </trkpt>
      <trkpt lat="43.79135" lon="7.36092">
        <ele>239.50549316406</ele>
        <time>2012-05-26T14:29:57Z</time>
      </trkpt>
      <trkpt lat="43.79134" lon="7.36101">
        <ele>240.94763183594</ele>
        <time>2012-05-26T14:30:03Z</time>
      </trkpt>
      <trkpt lat="43.79119" lon="7.36119">
        <ele>243.35083007812</ele>
        <time>2012-05-26T14:30:18Z</time>
      </trkpt>
      <trkpt lat="43.79111" lon="7.36136">
        <ele>245.2734375</ele>
        <time>2012-05-26T14:30:30Z</time>
      </trkpt>
      <trkpt lat="43.79109" lon="7.36139">
        <ele>246.71545410156</ele>
        <time>2012-05-26T14:30:33Z</time>
      </trkpt>
      <trkpt lat="43.79103" lon="7.3616">
        <ele>248.15759277344</ele>
        <time>2012-05-26T14:30:51Z</time>
      </trkpt>
      <trkpt lat="43.79101" lon="7.36171">
        <ele>249.59948730469</ele>
        <time>2012-05-26T14:30:56Z</time>
      </trkpt>
      <trkpt lat="43.79096" lon="7.36182">
        <ele>250.08020019531</ele>
        <time>2012-05-26T14:31:02Z</time>
      </trkpt>
      <trkpt lat="43.79086" lon="7.36182">
        <ele>250.56079101562</ele>
        <time>2012-05-26T14:31:06Z</time>
      </trkpt>
      <trkpt lat="43.79074" lon="7.36186">
        <ele>251.52209472656</ele>
        <time>2012-05-26T14:31:11Z</time>
      </trkpt>
      <trkpt lat="43.7906" lon="7.3621">
        <ele>251.52209472656</ele>
        <time>2012-05-26T14:31:16Z</time>
      </trkpt>
      <trkpt lat="43.79053" lon="7.36208">
        <ele>251.52209472656</ele>
        <time>2012-05-26T14:31:20Z</time>
      </trkpt>
      <trkpt lat="43.79045" lon="7.362">
        <ele>249.11877441406</ele>
        <time>2012-05-26T14:31:24Z</time>
      </trkpt>
      <trkpt lat="43.7904" lon="7.36189">
        <ele>248.15759277344</ele>
        <time>2012-05-26T14:31:27Z</time>
      </trkpt>
      <trkpt lat="43.79045" lon="7.36156">
        <ele>244.31225585938</ele>
        <time>2012-05-26T14:31:36Z</time>
      </trkpt>
      <trkpt lat="43.79045" lon="7.36134">
        <ele>242.87023925781</ele>
        <time>2012-05-26T14:31:41Z</time>
      </trkpt>
      <trkpt lat="43.79051" lon="7.36126">
        <ele>241.90893554688</ele>
        <time>2012-05-26T14:31:45Z</time>
      </trkpt>
      <trkpt lat="43.79054" lon="7.36129">
        <ele>240.94763183594</ele>
        <time>2012-05-26T14:31:48Z</time>
      </trkpt>
      <trkpt lat="43.79075" lon="7.3612">
        <ele>241.42822265625</ele>
        <time>2012-05-26T14:31:55Z</time>
      </trkpt>
      <trkpt lat="43.79075" lon="7.36104">
        <ele>239.02490234375</ele>
        <time>2012-05-26T14:32:00Z</time>
      </trkpt>
      <trkpt lat="43.79071" lon="7.36094">
        <ele>238.54431152344</ele>
        <time>2012-05-26T14:32:03Z</time>
      </trkpt>
      <trkpt lat="43.79068" lon="7.3609">
        <ele>237.10229492188</ele>
        <time>2012-05-26T14:32:05Z</time>
      </trkpt>
      <trkpt lat="43.79064" lon="7.36088">
        <ele>236.14099121094</ele>
        <time>2012-05-26T14:32:07Z</time>
      </trkpt>
      <trkpt lat="43.79047" lon="7.36071">
        <ele>236.62170410156</ele>
        <time>2012-05-26T14:32:16Z</time>
      </trkpt>
      <trkpt lat="43.79037" lon="7.36065">
        <ele>237.10229492188</ele>
        <time>2012-05-26T14:32:20Z</time>
      </trkpt>
      <trkpt lat="43.79031" lon="7.36063">
        <ele>238.06359863281</ele>
        <time>2012-05-26T14:32:24Z</time>
      </trkpt>
      <trkpt lat="43.79019" lon="7.36061">
        <ele>239.02490234375</ele>
        <time>2012-05-26T14:32:31Z</time>
      </trkpt>
      <trkpt lat="43.79016" lon="7.36061">
        <ele>239.02490234375</ele>
        <time>2012-05-26T14:32:33Z</time>
      </trkpt>
      <trkpt lat="43.79009" lon="7.3606">
        <ele>240.46704101562</ele>
        <time>2012-05-26T14:32:41Z</time>
      </trkpt>
      <trkpt lat="43.79003" lon="7.36047">
        <ele>240.94763183594</ele>
        <time>2012-05-26T14:32:47Z</time>
      </trkpt>
      <trkpt lat="43.79003" lon="7.36025">
        <ele>239.02490234375</ele>
        <time>2012-05-26T14:32:55Z</time>
      </trkpt>
      <trkpt lat="43.79007" lon="7.36025">
        <ele>239.50549316406</ele>
        <time>2012-05-26T14:32:58Z</time>
      </trkpt>
      <trkpt lat="43.7902" lon="7.3601">
        <ele>238.06359863281</ele>
        <time>2012-05-26T14:33:05Z</time>
      </trkpt>
      <trkpt lat="43.79015" lon="7.36003">
        <ele>237.58288574219</ele>
        <time>2012-05-26T14:33:09Z</time>
      </trkpt>
      <trkpt lat="43.79008" lon="7.35999">
        <ele>237.58288574219</ele>
        <time>2012-05-26T14:33:12Z</time>
      </trkpt>
      <trkpt lat="43.79014" lon="7.3599">
        <ele>235.1796875</ele>
        <time>2012-05-26T14:33:16Z</time>
      </trkpt>
      <trkpt lat="43.7902" lon="7.35979">
        <ele>234.69909667969</ele>
        <time>2012-05-26T14:33:19Z</time>
      </trkpt>
      <trkpt lat="43.79011" lon="7.35971">
        <ele>233.25708007812</ele>
        <time>2012-05-26T14:33:25Z</time>
      </trkpt>
      <trkpt lat="43.78984" lon="7.3597">
        <ele>232.29577636719</ele>
        <time>2012-05-26T14:33:33Z</time>
      </trkpt>
      <trkpt lat="43.78957" lon="7.35969">
        <ele>233.25708007812</ele>
        <time>2012-05-26T14:33:43Z</time>
      </trkpt>
      <trkpt lat="43.78955" lon="7.35969">
        <ele>232.29577636719</ele>
        <time>2012-05-26T14:33:44Z</time>
      </trkpt>
      <trkpt lat="43.78951" lon="7.35958">
        <ele>231.81494140625</ele>
        <time>2012-05-26T14:33:48Z</time>
      </trkpt>
      <trkpt lat="43.78936" lon="7.35937">
        <ele>229.89233398438</ele>
        <time>2012-05-26T14:33:57Z</time>
      </trkpt>
      <trkpt lat="43.7893" lon="7.35902">
        <ele>227.00854492188</ele>
        <time>2012-05-26T14:34:06Z</time>
      </trkpt>
      <trkpt lat="43.7893" lon="7.35891">
        <ele>225.0859375</ele>
        <time>2012-05-26T14:34:09Z</time>
      </trkpt>
      <trkpt lat="43.78923" lon="7.35883">
        <ele>222.68249511719</ele>
        <time>2012-05-26T14:34:13Z</time>
      </trkpt>
      <trkpt lat="43.78922" lon="7.35878">
        <ele>221.24060058594</ele>
        <time>2012-05-26T14:34:15Z</time>
      </trkpt>
      <trkpt lat="43.78924" lon="7.35871">
        <ele>220.27917480469</ele>
        <time>2012-05-26T14:34:17Z</time>
      </trkpt>
      <trkpt lat="43.78927" lon="7.35862">
        <ele>218.83728027344</ele>
        <time>2012-05-26T14:34:20Z</time>
      </trkpt>
      <trkpt lat="43.78931" lon="7.35857">
        <ele>217.8759765625</ele>
        <time>2012-05-26T14:34:22Z</time>
      </trkpt>
      <trkpt lat="43.78934" lon="7.35842">
        <ele>217.39538574219</ele>
        <time>2012-05-26T14:34:24Z</time>
      </trkpt>
      <trkpt lat="43.78967" lon="7.35818">
        <ele>214.99194335938</ele>
        <time>2012-05-26T14:34:36Z</time>
      </trkpt>
      <trkpt lat="43.78984" lon="7.35804">
        <ele>213.55004882812</ele>
        <time>2012-05-26T14:34:42Z</time>
      </trkpt>
      <trkpt lat="43.79011" lon="7.35804">
        <ele>212.58862304688</ele>
        <time>2012-05-26T14:34:52Z</time>
      </trkpt>
      <trkpt lat="43.79041" lon="7.35774">
        <ele>209.22412109375</ele>
        <time>2012-05-26T14:35:04Z</time>
      </trkpt>
      <trkpt lat="43.79046" lon="7.35767">
        <ele>208.26281738281</ele>
        <time>2012-05-26T14:35:06Z</time>
      </trkpt>
      <trkpt lat="43.79064" lon="7.35744">
        <ele>207.30139160156</ele>
        <time>2012-05-26T14:35:15Z</time>
      </trkpt>
      <trkpt lat="43.79086" lon="7.35724">
        <ele>206.82067871094</ele>
        <time>2012-05-26T14:35:25Z</time>
      </trkpt>
      <trkpt lat="43.79092" lon="7.35719">
        <ele>206.82067871094</ele>
        <time>2012-05-26T14:35:27Z</time>
      </trkpt>
      <trkpt lat="43.79128" lon="7.35725">
        <ele>206.34008789062</ele>
        <time>2012-05-26T14:35:37Z</time>
      </trkpt>
      <trkpt lat="43.79132" lon="7.35728">
        <ele>206.34008789062</ele>
        <time>2012-05-26T14:35:39Z</time>
      </trkpt>
      <trkpt lat="43.79139" lon="7.35734">
        <ele>205.85949707031</ele>
        <time>2012-05-26T14:35:43Z</time>
      </trkpt>
      <trkpt lat="43.79156" lon="7.3575">
        <ele>203.93688964844</ele>
        <time>2012-05-26T14:35:50Z</time>
      </trkpt>
      <trkpt lat="43.79165" lon="7.35768">
        <ele>201.05285644531</ele>
        <time>2012-05-26T14:35:56Z</time>
      </trkpt>
      <trkpt lat="43.79179" lon="7.35798">
        <ele>199.13012695312</ele>
        <time>2012-05-26T14:36:06Z</time>
      </trkpt>
      <trkpt lat="43.79208" lon="7.35787">
        <ele>199.13012695312</ele>
        <time>2012-05-26T14:36:16Z</time>
      </trkpt>
      <trkpt lat="43.79241" lon="7.35765">
        <ele>197.68823242188</ele>
        <time>2012-05-26T14:36:26Z</time>
      </trkpt>
      <trkpt lat="43.79251" lon="7.35764">
        <ele>197.68823242188</ele>
        <time>2012-05-26T14:36:30Z</time>
      </trkpt>
      <trkpt lat="43.79252" lon="7.35755">
        <ele>196.72692871094</ele>
        <time>2012-05-26T14:36:33Z</time>
      </trkpt>
      <trkpt lat="43.79255" lon="7.35747">
        <ele>195.28491210938</ele>
        <time>2012-05-26T14:36:36Z</time>
      </trkpt>
      <trkpt lat="43.79266" lon="7.35719">
        <ele>192.88171386719</ele>
        <time>2012-05-26T14:36:44Z</time>
      </trkpt>
      <trkpt lat="43.79264" lon="7.35699">
        <ele>191.43957519531</ele>
        <time>2012-05-26T14:36:49Z</time>
      </trkpt>
      <trkpt lat="43.79266" lon="7.35687">
        <ele>189.99768066406</ele>
        <time>2012-05-26T14:36:52Z</time>
      </trkpt>
      <trkpt lat="43.79268" lon="7.35679">
        <ele>188.55578613281</ele>
        <time>2012-05-26T14:36:54Z</time>
      </trkpt>
      <trkpt lat="43.79273" lon="7.35665">
        <ele>187.59436035156</ele>
        <time>2012-05-26T14:36:57Z</time>
      </trkpt>
      <trkpt lat="43.79278" lon="7.35658">
        <ele>186.63317871094</ele>
        <time>2012-05-26T14:36:59Z</time>
      </trkpt>
      <trkpt lat="43.79298" lon="7.35601">
        <ele>183.7490234375</ele>
        <time>2012-05-26T14:37:02Z</time>
      </trkpt>
      <trkpt lat="43.79298" lon="7.35601">
        <ele>182.30712890625</ele>
        <time>2012-05-26T14:37:05Z</time>
      </trkpt>
      <trkpt lat="43.79325" lon="7.35627">
        <ele>181.82641601562</ele>
        <time>2012-05-26T14:37:11Z</time>
      </trkpt>
      <trkpt lat="43.79328" lon="7.35632">
        <ele>180.38452148438</ele>
        <time>2012-05-26T14:37:13Z</time>
      </trkpt>
      <trkpt lat="43.79331" lon="7.35637">
        <ele>176.53930664062</ele>
        <time>2012-05-26T14:37:19Z</time>
      </trkpt>
      <trkpt lat="43.79336" lon="7.35651">
        <ele>174.61657714844</ele>
        <time>2012-05-26T14:37:22Z</time>
      </trkpt>
      <trkpt lat="43.79336" lon="7.35651">
        <ele>173.6552734375</ele>
        <time>2012-05-26T14:37:23Z</time>
      </trkpt>
      <trkpt lat="43.79335" lon="7.35649">
        <ele>173.17468261719</ele>
        <time>2012-05-26T14:37:27Z</time>
      </trkpt>
      <trkpt lat="43.79332" lon="7.35638">
        <ele>173.6552734375</ele>
        <time>2012-05-26T14:37:34Z</time>
      </trkpt>
      <trkpt lat="43.79328" lon="7.35632">
        <ele>173.6552734375</ele>
        <time>2012-05-26T14:37:37Z</time>
      </trkpt>
      <trkpt lat="43.79317" lon="7.35613">
        <ele>173.17468261719</ele>
        <time>2012-05-26T14:37:43Z</time>
      </trkpt>
      <trkpt lat="43.79313" lon="7.35606">
        <ele>173.17468261719</ele>
        <time>2012-05-26T14:37:46Z</time>
      </trkpt>
      <trkpt lat="43.79289" lon="7.35596">
        <ele>172.69396972656</ele>
        <time>2012-05-26T14:37:54Z</time>
      </trkpt>
      <trkpt lat="43.79275" lon="7.35592">
        <ele>173.6552734375</ele>
        <time>2012-05-26T14:37:59Z</time>
      </trkpt>
      <trkpt lat="43.79264" lon="7.35591">
        <ele>174.61657714844</ele>
        <time>2012-05-26T14:38:03Z</time>
      </trkpt>
      <trkpt lat="43.79242" lon="7.35583">
        <ele>176.53930664062</ele>
        <time>2012-05-26T14:38:13Z</time>
      </trkpt>
      <trkpt lat="43.79239" lon="7.35581">
        <ele>177.02001953125</ele>
        <time>2012-05-26T14:38:14Z</time>
      </trkpt>
      <trkpt lat="43.79232" lon="7.35576">
        <ele>177.02001953125</ele>
        <time>2012-05-26T14:38:18Z</time>
      </trkpt>
      <trkpt lat="43.79229" lon="7.35573">
        <ele>177.50061035156</ele>
        <time>2012-05-26T14:38:22Z</time>
      </trkpt>
      <trkpt lat="43.79225" lon="7.35571">
        <ele>177.98120117188</ele>
        <time>2012-05-26T14:38:24Z</time>
      </trkpt>
      <trkpt lat="43.79227" lon="7.35557">
        <ele>177.98120117188</ele>
        <time>2012-05-26T14:38:29Z</time>
      </trkpt>
      <trkpt lat="43.79228" lon="7.35529">
        <ele>180.38452148438</ele>
        <time>2012-05-26T14:38:39Z</time>
      </trkpt>
      <trkpt lat="43.79229" lon="7.3553">
        <ele>180.865234375</ele>
        <time>2012-05-26T14:38:41Z</time>
      </trkpt>
      <trkpt lat="43.7923" lon="7.35545">
        <ele>181.82641601562</ele>
        <time>2012-05-26T14:38:56Z</time>
      </trkpt>
      <trkpt lat="43.79237" lon="7.35552">
        <ele>183.26843261719</ele>
        <time>2012-05-26T14:39:08Z</time>
      </trkpt>
      <trkpt lat="43.79247" lon="7.35558">
        <ele>184.22985839844</ele>
        <time>2012-05-26T14:39:13Z</time>
      </trkpt>
      <trkpt lat="43.79273" lon="7.3556">
        <ele>183.26843261719</ele>
        <time>2012-05-26T14:39:22Z</time>
      </trkpt>
      <trkpt lat="43.79282" lon="7.35561">
        <ele>183.26843261719</ele>
        <time>2012-05-26T14:39:26Z</time>
      </trkpt>
      <trkpt lat="43.79295" lon="7.35581">
        <ele>185.67175292969</ele>
        <time>2012-05-26T14:39:38Z</time>
      </trkpt>
      <trkpt lat="43.79308" lon="7.35593">
        <ele>186.15246582031</ele>
        <time>2012-05-26T14:39:46Z</time>
      </trkpt>
      <trkpt lat="43.79311" lon="7.356">
        <ele>186.63317871094</ele>
        <time>2012-05-26T14:39:50Z</time>
      </trkpt>
      <trkpt lat="43.79315" lon="7.35614">
        <ele>187.11376953125</ele>
        <time>2012-05-26T14:39:55Z</time>
      </trkpt>
      <trkpt lat="43.79318" lon="7.3562">
        <ele>187.11376953125</ele>
        <time>2012-05-26T14:39:58Z</time>
      </trkpt>
      <trkpt lat="43.79323" lon="7.35646">
        <ele>189.03637695312</ele>
        <time>2012-05-26T14:40:09Z</time>
      </trkpt>
      <trkpt lat="43.79324" lon="7.35677">
        <ele>191.43957519531</ele>
        <time>2012-05-26T14:40:24Z</time>
      </trkpt>
      <trkpt lat="43.79326" lon="7.3569">
        <ele>192.40112304688</ele>
        <time>2012-05-26T14:40:32Z</time>
      </trkpt>
      <trkpt lat="43.79332" lon="7.35692">
        <ele>189.51696777344</ele>
        <time>2012-05-26T14:40:38Z</time>
      </trkpt>
      <trkpt lat="43.79341" lon="7.35728">
        <ele>187.11376953125</ele>
        <time>2012-05-26T14:40:47Z</time>
      </trkpt>
      <trkpt lat="43.79342" lon="7.35734">
        <ele>187.11376953125</ele>
        <time>2012-05-26T14:40:49Z</time>
      </trkpt>
      <trkpt lat="43.79361" lon="7.35785">
        <ele>185.67175292969</ele>
        <time>2012-05-26T14:40:58Z</time>
      </trkpt>
      <trkpt lat="43.79396" lon="7.35795">
        <ele>186.15246582031</ele>
        <time>2012-05-26T14:41:10Z</time>
      </trkpt>
      <trkpt lat="43.79407" lon="7.35819">
        <ele>186.63317871094</ele>
        <time>2012-05-26T14:41:20Z</time>
      </trkpt>
      <trkpt lat="43.79441" lon="7.35852">
        <ele>186.63317871094</ele>
        <time>2012-05-26T14:41:32Z</time>
      </trkpt>
      <trkpt lat="43.79459" lon="7.35901">
        <ele>186.63317871094</ele>
        <time>2012-05-26T14:41:46Z</time>
      </trkpt>
      <trkpt lat="43.79471" lon="7.35933">
        <ele>187.59436035156</ele>
        <time>2012-05-26T14:41:57Z</time>
      </trkpt>
      <trkpt lat="43.79483" lon="7.35969">
        <ele>188.55578613281</ele>
        <time>2012-05-26T14:42:08Z</time>
      </trkpt>
      <trkpt lat="43.79482" lon="7.35976">
        <ele>188.55578613281</ele>
        <time>2012-05-26T14:42:10Z</time>
      </trkpt>
      <trkpt lat="43.79485" lon="7.35983">
        <ele>189.03637695312</ele>
        <time>2012-05-26T14:42:14Z</time>
      </trkpt>
      <trkpt lat="43.79485" lon="7.35997">
        <ele>189.51696777344</ele>
        <time>2012-05-26T14:42:18Z</time>
      </trkpt>
      <trkpt lat="43.79491" lon="7.36043">
        <ele>190.47839355469</ele>
        <time>2012-05-26T14:42:31Z</time>
      </trkpt>
      <trkpt lat="43.79493" lon="7.36049">
        <ele>190.47839355469</ele>
        <time>2012-05-26T14:42:33Z</time>
      </trkpt>
      <trkpt lat="43.79517" lon="7.36081">
        <ele>190.47839355469</ele>
        <time>2012-05-26T14:42:45Z</time>
      </trkpt>
      <trkpt lat="43.79513" lon="7.36112">
        <ele>192.40112304688</ele>
        <time>2012-05-26T14:42:56Z</time>
      </trkpt>
      <trkpt lat="43.79513" lon="7.36117">
        <ele>191.92028808594</ele>
        <time>2012-05-26T14:42:57Z</time>
      </trkpt>
      <trkpt lat="43.79511" lon="7.36134">
        <ele>192.40112304688</ele>
        <time>2012-05-26T14:43:02Z</time>
      </trkpt>
      <trkpt lat="43.79527" lon="7.36178">
        <ele>192.88171386719</ele>
        <time>2012-05-26T14:43:15Z</time>
      </trkpt>
      <trkpt lat="43.79542" lon="7.36205">
        <ele>189.99768066406</ele>
        <time>2012-05-26T14:43:24Z</time>
      </trkpt>
      <trkpt lat="43.79545" lon="7.3621">
        <ele>188.55578613281</ele>
        <time>2012-05-26T14:43:27Z</time>
      </trkpt>
      <trkpt lat="43.79531" lon="7.36226">
        <ele>188.55578613281</ele>
        <time>2012-05-26T14:43:36Z</time>
      </trkpt>
      <trkpt lat="43.79528" lon="7.36239">
        <ele>189.99768066406</ele>
        <time>2012-05-26T14:43:42Z</time>
      </trkpt>
      <trkpt lat="43.79537" lon="7.36248">
        <ele>192.88171386719</ele>
        <time>2012-05-26T14:43:54Z</time>
      </trkpt>
      <trkpt lat="43.7954" lon="7.36252">
        <ele>195.28491210938</ele>
        <time>2012-05-26T14:44:05Z</time>
      </trkpt>
      <trkpt lat="43.79541" lon="7.36253">
        <ele>196.24633789062</ele>
        <time>2012-05-26T14:44:06Z</time>
      </trkpt>
      <trkpt lat="43.79549" lon="7.36265">
        <ele>198.64953613281</ele>
        <time>2012-05-26T14:44:21Z</time>
      </trkpt>
      <trkpt lat="43.79554" lon="7.36278">
        <ele>202.01428222656</ele>
        <time>2012-05-26T14:44:36Z</time>
      </trkpt>
      <trkpt lat="43.79557" lon="7.36286">
        <ele>203.93688964844</ele>
        <time>2012-05-26T14:44:44Z</time>
      </trkpt>
      <trkpt lat="43.79555" lon="7.36304">
        <ele>205.85949707031</ele>
        <time>2012-05-26T14:44:57Z</time>
      </trkpt>
      <trkpt lat="43.79547" lon="7.36313">
        <ele>203.93688964844</ele>
        <time>2012-05-26T14:45:06Z</time>
      </trkpt>
      <trkpt lat="43.79537" lon="7.36343">
        <ele>205.37878417969</ele>
        <time>2012-05-26T14:45:18Z</time>
      </trkpt>
      <trkpt lat="43.79537" lon="7.36356">
        <ele>206.34008789062</ele>
        <time>2012-05-26T14:45:26Z</time>
      </trkpt>
      <trkpt lat="43.79538" lon="7.36361">
        <ele>206.34008789062</ele>
        <time>2012-05-26T14:45:29Z</time>
      </trkpt>
      <trkpt lat="43.79538" lon="7.36374">
        <ele>207.78210449219</ele>
        <time>2012-05-26T14:45:35Z</time>
      </trkpt>
      <trkpt lat="43.79537" lon="7.36389">
        <ele>209.70483398438</ele>
        <time>2012-05-26T14:45:43Z</time>
      </trkpt>
      <trkpt lat="43.79538" lon="7.36411">
        <ele>211.14672851562</ele>
        <time>2012-05-26T14:45:51Z</time>
      </trkpt>
      <trkpt lat="43.79531" lon="7.36424">
        <ele>212.10803222656</ele>
        <time>2012-05-26T14:45:58Z</time>
      </trkpt>
      <trkpt lat="43.79518" lon="7.36428">
        <ele>213.55004882812</ele>
        <time>2012-05-26T14:46:10Z</time>
      </trkpt>
      <trkpt lat="43.79507" lon="7.36433">
        <ele>215.95324707031</ele>
        <time>2012-05-26T14:46:23Z</time>
      </trkpt>
      <trkpt lat="43.79506" lon="7.36446">
        <ele>216.91467285156</ele>
        <time>2012-05-26T14:46:31Z</time>
      </trkpt>
      <trkpt lat="43.79512" lon="7.36455">
        <ele>218.83728027344</ele>
        <time>2012-05-26T14:46:39Z</time>
      </trkpt>
      <trkpt lat="43.79519" lon="7.3646">
        <ele>217.8759765625</ele>
        <time>2012-05-26T14:46:44Z</time>
      </trkpt>
      <trkpt lat="43.79531" lon="7.36458">
        <ele>215.95324707031</ele>
        <time>2012-05-26T14:46:48Z</time>
      </trkpt>
      <trkpt lat="43.79557" lon="7.3645">
        <ele>217.39538574219</ele>
        <time>2012-05-26T14:46:57Z</time>
      </trkpt>
      <trkpt lat="43.79572" lon="7.36435">
        <ele>218.35656738281</ele>
        <time>2012-05-26T14:47:05Z</time>
      </trkpt>
      <trkpt lat="43.7958" lon="7.36432">
        <ele>220.27917480469</ele>
        <time>2012-05-26T14:47:11Z</time>
      </trkpt>
      <trkpt lat="43.796" lon="7.36441">
        <ele>222.20178222656</ele>
        <time>2012-05-26T14:47:25Z</time>
      </trkpt>
      <trkpt lat="43.7961" lon="7.36462">
        <ele>225.56652832031</ele>
        <time>2012-05-26T14:47:40Z</time>
      </trkpt>
      <trkpt lat="43.79611" lon="7.36463">
        <ele>225.56652832031</ele>
        <time>2012-05-26T14:47:41Z</time>
      </trkpt>
      <trkpt lat="43.79614" lon="7.36468">
        <ele>226.52783203125</ele>
        <time>2012-05-26T14:47:44Z</time>
      </trkpt>
      <trkpt lat="43.79616" lon="7.36493">
        <ele>229.41174316406</ele>
        <time>2012-05-26T14:47:58Z</time>
      </trkpt>
      <trkpt lat="43.79614" lon="7.36504">
        <ele>230.373046875</ele>
        <time>2012-05-26T14:48:06Z</time>
      </trkpt>
      <trkpt lat="43.79612" lon="7.36518">
        <ele>232.29577636719</ele>
        <time>2012-05-26T14:48:15Z</time>
      </trkpt>
      <trkpt lat="43.79611" lon="7.36523">
        <ele>233.25708007812</ele>
        <time>2012-05-26T14:48:18Z</time>
      </trkpt>
      <trkpt lat="43.79601" lon="7.36545">
        <ele>234.21838378906</ele>
        <time>2012-05-26T14:48:31Z</time>
      </trkpt>
      <trkpt lat="43.79595" lon="7.36546">
        <ele>233.73767089844</ele>
        <time>2012-05-26T14:48:34Z</time>
      </trkpt>
      <trkpt lat="43.79561" lon="7.36543">
        <ele>231.33435058594</ele>
        <time>2012-05-26T14:48:47Z</time>
      </trkpt>
      <trkpt lat="43.7956" lon="7.36546">
        <ele>231.33435058594</ele>
        <time>2012-05-26T14:48:48Z</time>
      </trkpt>
      <trkpt lat="43.79561" lon="7.36554">
        <ele>232.29577636719</ele>
        <time>2012-05-26T14:48:53Z</time>
      </trkpt>
      <trkpt lat="43.79559" lon="7.36557">
        <ele>232.29577636719</ele>
        <time>2012-05-26T14:48:55Z</time>
      </trkpt>
      <trkpt lat="43.79555" lon="7.3656">
        <ele>233.25708007812</ele>
        <time>2012-05-26T14:48:58Z</time>
      </trkpt>
      <trkpt lat="43.79552" lon="7.36564">
        <ele>233.25708007812</ele>
        <time>2012-05-26T14:49:02Z</time>
      </trkpt>
      <trkpt lat="43.79546" lon="7.36582">
        <ele>235.1796875</ele>
        <time>2012-05-26T14:49:16Z</time>
      </trkpt>
      <trkpt lat="43.79552" lon="7.36595">
        <ele>238.06359863281</ele>
        <time>2012-05-26T14:49:27Z</time>
      </trkpt>
      <trkpt lat="43.79548" lon="7.36604">
        <ele>239.50549316406</ele>
        <time>2012-05-26T14:49:38Z</time>
      </trkpt>
      <trkpt lat="43.79555" lon="7.36609">
        <ele>239.98620605469</ele>
        <time>2012-05-26T14:49:43Z</time>
      </trkpt>
      <trkpt lat="43.79555" lon="7.36618">
        <ele>241.42822265625</ele>
        <time>2012-05-26T14:49:50Z</time>
      </trkpt>
      <trkpt lat="43.79552" lon="7.36637">
        <ele>243.35083007812</ele>
        <time>2012-05-26T14:50:04Z</time>
      </trkpt>
      <trkpt lat="43.79557" lon="7.36636">
        <ele>244.79284667969</ele>
        <time>2012-05-26T14:50:07Z</time>
      </trkpt>
      <trkpt lat="43.79577" lon="7.36629">
        <ele>245.2734375</ele>
        <time>2012-05-26T14:50:16Z</time>
      </trkpt>
      <trkpt lat="43.79586" lon="7.36628">
        <ele>244.79284667969</ele>
        <time>2012-05-26T14:50:19Z</time>
      </trkpt>
      <trkpt lat="43.79605" lon="7.36626">
        <ele>245.2734375</ele>
        <time>2012-05-26T14:50:26Z</time>
      </trkpt>
      <trkpt lat="43.79611" lon="7.36632">
        <ele>245.75415039062</ele>
        <time>2012-05-26T14:50:30Z</time>
      </trkpt>
      <trkpt lat="43.79619" lon="7.36658">
        <ele>248.63818359375</ele>
        <time>2012-05-26T14:50:40Z</time>
      </trkpt>
      <trkpt lat="43.7962" lon="7.36665">
        <ele>249.59948730469</ele>
        <time>2012-05-26T14:50:43Z</time>
      </trkpt>
      <trkpt lat="43.79618" lon="7.36671">
        <ele>249.59948730469</ele>
        <time>2012-05-26T14:50:45Z</time>
      </trkpt>
      <trkpt lat="43.79616" lon="7.36686">
        <ele>250.08020019531</ele>
        <time>2012-05-26T14:50:50Z</time>
      </trkpt>
      <trkpt lat="43.79606" lon="7.36707">
        <ele>252.96398925781</ele>
        <time>2012-05-26T14:51:03Z</time>
      </trkpt>
      <trkpt lat="43.79605" lon="7.3671">
        <ele>252.4833984375</ele>
        <time>2012-05-26T14:51:05Z</time>
      </trkpt>
      <trkpt lat="43.79605" lon="7.36715">
        <ele>252.96398925781</ele>
        <time>2012-05-26T14:51:08Z</time>
      </trkpt>
      <trkpt lat="43.79607" lon="7.36744">
        <ele>254.88659667969</ele>
        <time>2012-05-26T14:51:20Z</time>
      </trkpt>
      <trkpt lat="43.79607" lon="7.36748">
        <ele>254.88659667969</ele>
        <time>2012-05-26T14:51:21Z</time>
      </trkpt>
      <trkpt lat="43.79612" lon="7.36772">
        <ele>257.2900390625</ele>
        <time>2012-05-26T14:51:31Z</time>
      </trkpt>
      <trkpt lat="43.79608" lon="7.36796">
        <ele>259.21264648438</ele>
        <time>2012-05-26T14:51:42Z</time>
      </trkpt>
      <trkpt lat="43.79607" lon="7.36799">
        <ele>259.693359375</ele>
        <time>2012-05-26T14:51:44Z</time>
      </trkpt>
      <trkpt lat="43.79603" lon="7.36811">
        <ele>261.61596679688</ele>
        <time>2012-05-26T14:51:51Z</time>
      </trkpt>
      <trkpt lat="43.79604" lon="7.36815">
        <ele>262.09655761719</ele>
        <time>2012-05-26T14:51:54Z</time>
      </trkpt>
      <trkpt lat="43.79614" lon="7.36833">
        <ele>264.98059082031</ele>
        <time>2012-05-26T14:52:06Z</time>
      </trkpt>
      <trkpt lat="43.79617" lon="7.36843">
        <ele>266.42248535156</ele>
        <time>2012-05-26T14:52:14Z</time>
      </trkpt>
      <trkpt lat="43.79613" lon="7.3686">
        <ele>268.82580566406</ele>
        <time>2012-05-26T14:52:23Z</time>
      </trkpt>
      <trkpt lat="43.79605" lon="7.36864">
        <ele>269.30651855469</ele>
        <time>2012-05-26T14:52:38Z</time>
      </trkpt>
      <trkpt lat="43.79603" lon="7.3687">
        <ele>270.26770019531</ele>
        <time>2012-05-26T14:52:58Z</time>
      </trkpt>
      <trkpt lat="43.79598" lon="7.36879">
        <ele>272.1904296875</ele>
        <time>2012-05-26T14:53:10Z</time>
      </trkpt>
      <trkpt lat="43.79598" lon="7.36886">
        <ele>272.67114257812</ele>
        <time>2012-05-26T14:53:14Z</time>
      </trkpt>
      <trkpt lat="43.796" lon="7.36907">
        <ele>274.59375</ele>
        <time>2012-05-26T14:53:23Z</time>
      </trkpt>
      <trkpt lat="43.79604" lon="7.36925">
        <ele>276.51635742188</ele>
        <time>2012-05-26T14:53:33Z</time>
      </trkpt>
      <trkpt lat="43.79604" lon="7.36928">
        <ele>276.9970703125</ele>
        <time>2012-05-26T14:53:35Z</time>
      </trkpt>
      <trkpt lat="43.79593" lon="7.36931">
        <ele>278.91967773438</ele>
        <time>2012-05-26T14:53:45Z</time>
      </trkpt>
      <trkpt lat="43.79589" lon="7.36931">
        <ele>279.40026855469</ele>
        <time>2012-05-26T14:53:49Z</time>
      </trkpt>
      <trkpt lat="43.79584" lon="7.36931">
        <ele>280.36169433594</ele>
        <time>2012-05-26T14:53:54Z</time>
      </trkpt>
      <trkpt lat="43.79563" lon="7.36918">
        <ele>283.72619628906</ele>
        <time>2012-05-26T14:54:08Z</time>
      </trkpt>
      <trkpt lat="43.79537" lon="7.36906">
        <ele>285.16821289062</ele>
        <time>2012-05-26T14:54:24Z</time>
      </trkpt>
      <trkpt lat="43.79521" lon="7.369">
        <ele>285.16821289062</ele>
        <time>2012-05-26T14:54:30Z</time>
      </trkpt>
      <trkpt lat="43.79493" lon="7.36898">
        <ele>285.64880371094</ele>
        <time>2012-05-26T14:54:41Z</time>
      </trkpt>
      <trkpt lat="43.79468" lon="7.36893">
        <ele>286.12951660156</ele>
        <time>2012-05-26T14:54:51Z</time>
      </trkpt>
      <trkpt lat="43.79441" lon="7.36889">
        <ele>285.64880371094</ele>
        <time>2012-05-26T14:55:01Z</time>
      </trkpt>
      <trkpt lat="43.79405" lon="7.36882">
        <ele>284.68762207031</ele>
        <time>2012-05-26T14:55:14Z</time>
      </trkpt>
      <trkpt lat="43.79383" lon="7.36866">
        <ele>284.20690917969</ele>
        <time>2012-05-26T14:55:24Z</time>
      </trkpt>
      <trkpt lat="43.79366" lon="7.36856">
        <ele>284.68762207031</ele>
        <time>2012-05-26T14:55:31Z</time>
      </trkpt>
      <trkpt lat="43.79355" lon="7.36855">
        <ele>284.20690917969</ele>
        <time>2012-05-26T14:55:35Z</time>
      </trkpt>
      <trkpt lat="43.79339" lon="7.36852">
        <ele>284.20690917969</ele>
        <time>2012-05-26T14:55:41Z</time>
      </trkpt>
      <trkpt lat="43.7934" lon="7.36863">
        <ele>286.61022949219</ele>
        <time>2012-05-26T14:55:52Z</time>
      </trkpt>
      <trkpt lat="43.79336" lon="7.36868">
        <ele>286.61022949219</ele>
        <time>2012-05-26T14:56:00Z</time>
      </trkpt>
      <trkpt lat="43.79332" lon="7.36883">
        <ele>286.12951660156</ele>
        <time>2012-05-26T14:56:08Z</time>
      </trkpt>
      <trkpt lat="43.7934" lon="7.36916">
        <ele>285.64880371094</ele>
        <time>2012-05-26T14:56:23Z</time>
      </trkpt>
      <trkpt lat="43.7934" lon="7.36923">
        <ele>285.16821289062</ele>
        <time>2012-05-26T14:57:09Z</time>
      </trkpt>
      <trkpt lat="43.79342" lon="7.36923">
        <ele>285.64880371094</ele>
        <time>2012-05-26T14:57:32Z</time>
      </trkpt>
      <trkpt lat="43.7934" lon="7.36924">
        <ele>286.12951660156</ele>
        <time>2012-05-26T14:57:42Z</time>
      </trkpt>
      <trkpt lat="43.79332" lon="7.3693">
        <ele>285.64880371094</ele>
        <time>2012-05-26T14:57:46Z</time>
      </trkpt>
      <trkpt lat="43.79326" lon="7.36947">
        <ele>286.61022949219</ele>
        <time>2012-05-26T14:57:55Z</time>
      </trkpt>
      <trkpt lat="43.79325" lon="7.36955">
        <ele>287.0908203125</ele>
        <time>2012-05-26T14:57:56Z</time>
      </trkpt>
      <trkpt lat="43.79347" lon="7.36981">
        <ele>289.97485351562</ele>
        <time>2012-05-26T14:58:10Z</time>
      </trkpt>
      <trkpt lat="43.79372" lon="7.37009">
        <ele>290.93615722656</ele>
        <time>2012-05-26T14:58:23Z</time>
      </trkpt>
      <trkpt lat="43.79376" lon="7.37014">
        <ele>291.8974609375</ele>
        <time>2012-05-26T14:58:25Z</time>
      </trkpt>
      <trkpt lat="43.79407" lon="7.37039">
        <ele>291.41674804688</ele>
        <time>2012-05-26T14:58:40Z</time>
      </trkpt>
      <trkpt lat="43.79435" lon="7.37051">
        <ele>291.8974609375</ele>
        <time>2012-05-26T14:58:52Z</time>
      </trkpt>
      <trkpt lat="43.79467" lon="7.37065">
        <ele>292.85876464844</ele>
        <time>2012-05-26T14:59:05Z</time>
      </trkpt>
      <trkpt lat="43.79475" lon="7.37068">
        <ele>293.33935546875</ele>
        <time>2012-05-26T14:59:08Z</time>
      </trkpt>
      <trkpt lat="43.795" lon="7.37072">
        <ele>293.33935546875</ele>
        <time>2012-05-26T14:59:18Z</time>
      </trkpt>
      <trkpt lat="43.79503" lon="7.37073">
        <ele>293.33935546875</ele>
        <time>2012-05-26T14:59:19Z</time>
      </trkpt>
      <trkpt lat="43.79536" lon="7.37074">
        <ele>294.78137207031</ele>
        <time>2012-05-26T14:59:31Z</time>
      </trkpt>
      <trkpt lat="43.79565" lon="7.37072">
        <ele>295.74267578125</ele>
        <time>2012-05-26T14:59:42Z</time>
      </trkpt>
      <trkpt lat="43.79577" lon="7.37073">
        <ele>296.22351074219</ele>
        <time>2012-05-26T14:59:48Z</time>
      </trkpt>
      <trkpt lat="43.79601" lon="7.37073">
        <ele>296.7041015625</ele>
        <time>2012-05-26T14:59:58Z</time>
      </trkpt>
      <trkpt lat="43.79629" lon="7.37076">
        <ele>297.66540527344</ele>
        <time>2012-05-26T15:00:09Z</time>
      </trkpt>
      <trkpt lat="43.79639" lon="7.37075">
        <ele>298.14611816406</ele>
        <time>2012-05-26T15:00:13Z</time>
      </trkpt>
      <trkpt lat="43.79665" lon="7.37076">
        <ele>300.06872558594</ele>
        <time>2012-05-26T15:00:24Z</time>
      </trkpt>
      <trkpt lat="43.7967" lon="7.37077">
        <ele>300.54931640625</ele>
        <time>2012-05-26T15:00:26Z</time>
      </trkpt>
      <trkpt lat="43.79693" lon="7.37075">
        <ele>300.54931640625</ele>
        <time>2012-05-26T15:00:35Z</time>
      </trkpt>
      <trkpt lat="43.79702" lon="7.37072">
        <ele>301.51062011719</ele>
        <time>2012-05-26T15:00:38Z</time>
      </trkpt>
      <trkpt lat="43.79714" lon="7.37069">
        <ele>301.99133300781</ele>
        <time>2012-05-26T15:00:44Z</time>
      </trkpt>
      <trkpt lat="43.79726" lon="7.37066">
        <ele>302.95251464844</ele>
        <time>2012-05-26T15:00:50Z</time>
      </trkpt>
      <trkpt lat="43.79736" lon="7.3706">
        <ele>302.95251464844</ele>
        <time>2012-05-26T15:00:54Z</time>
      </trkpt>
      <trkpt lat="43.79761" lon="7.37056">
        <ele>303.43322753906</ele>
        <time>2012-05-26T15:01:03Z</time>
      </trkpt>
      <trkpt lat="43.79778" lon="7.37051">
        <ele>304.87524414062</ele>
        <time>2012-05-26T15:01:11Z</time>
      </trkpt>
      <trkpt lat="43.79795" lon="7.37051">
        <ele>305.83666992188</ele>
        <time>2012-05-26T15:01:18Z</time>
      </trkpt>
      <trkpt lat="43.79811" lon="7.37058">
        <ele>307.27856445312</ele>
        <time>2012-05-26T15:01:27Z</time>
      </trkpt>
      <trkpt lat="43.79823" lon="7.37068">
        <ele>310.16247558594</ele>
        <time>2012-05-26T15:01:39Z</time>
      </trkpt>
      <trkpt lat="43.7983" lon="7.37068">
        <ele>310.16247558594</ele>
        <time>2012-05-26T15:01:44Z</time>
      </trkpt>
      <trkpt lat="43.79845" lon="7.37084">
        <ele>312.56579589844</ele>
        <time>2012-05-26T15:01:58Z</time>
      </trkpt>
      <trkpt lat="43.79852" lon="7.37091">
        <ele>314.0078125</ele>
        <time>2012-05-26T15:02:07Z</time>
      </trkpt>
      <trkpt lat="43.7987" lon="7.37097">
        <ele>316.41101074219</ele>
        <time>2012-05-26T15:02:21Z</time>
      </trkpt>
      <trkpt lat="43.79888" lon="7.37091">
        <ele>318.81433105469</ele>
        <time>2012-05-26T15:02:35Z</time>
      </trkpt>
      <trkpt lat="43.7989" lon="7.37091">
        <ele>319.77563476562</ele>
        <time>2012-05-26T15:02:37Z</time>
      </trkpt>
      <trkpt lat="43.79892" lon="7.37091">
        <ele>320.73706054688</ele>
        <time>2012-05-26T15:02:38Z</time>
      </trkpt>
      <trkpt lat="43.79899" lon="7.37091">
        <ele>321.69836425781</ele>
        <time>2012-05-26T15:02:45Z</time>
      </trkpt>
      <trkpt lat="43.79899" lon="7.37093">
        <ele>321.69836425781</ele>
        <time>2012-05-26T15:02:48Z</time>
      </trkpt>
      <trkpt lat="43.79906" lon="7.37103">
        <ele>325.54357910156</ele>
        <time>2012-05-26T15:02:59Z</time>
      </trkpt>
      <trkpt lat="43.7991" lon="7.37101">
        <ele>327.46618652344</ele>
        <time>2012-05-26T15:03:08Z</time>
      </trkpt>
      <trkpt lat="43.79921" lon="7.37103">
        <ele>330.35021972656</ele>
        <time>2012-05-26T15:03:19Z</time>
      </trkpt>
      <trkpt lat="43.79928" lon="7.37108">
        <ele>332.27282714844</ele>
        <time>2012-05-26T15:03:28Z</time>
      </trkpt>
      <trkpt lat="43.79936" lon="7.37119">
        <ele>335.63732910156</ele>
        <time>2012-05-26T15:03:40Z</time>
      </trkpt>
      <trkpt lat="43.79949" lon="7.37118">
        <ele>337.07946777344</ele>
        <time>2012-05-26T15:03:51Z</time>
      </trkpt>
      <trkpt lat="43.79959" lon="7.37124">
        <ele>339.96337890625</ele>
        <time>2012-05-26T15:04:03Z</time>
      </trkpt>
      <trkpt lat="43.7997" lon="7.37125">
        <ele>343.32788085938</ele>
        <time>2012-05-26T15:04:15Z</time>
      </trkpt>
      <trkpt lat="43.79977" lon="7.37133">
        <ele>346.21203613281</ele>
        <time>2012-05-26T15:04:29Z</time>
      </trkpt>
      <trkpt lat="43.79979" lon="7.37139">
        <ele>349.09582519531</ele>
        <time>2012-05-26T15:04:38Z</time>
      </trkpt>
      <trkpt lat="43.79985" lon="7.37146">
        <ele>351.49914550781</ele>
        <time>2012-05-26T15:04:53Z</time>
      </trkpt>
      <trkpt lat="43.79993" lon="7.37151">
        <ele>354.38317871094</ele>
        <time>2012-05-26T15:05:06Z</time>
      </trkpt>
      <trkpt lat="43.79999" lon="7.37149">
        <ele>354.38317871094</ele>
        <time>2012-05-26T15:05:08Z</time>
      </trkpt>
      <trkpt lat="43.80001" lon="7.37159">
        <ele>358.22839355469</ele>
        <time>2012-05-26T15:05:20Z</time>
      </trkpt>
      <trkpt lat="43.80001" lon="7.37164">
        <ele>360.63171386719</ele>
        <time>2012-05-26T15:05:33Z</time>
      </trkpt>
      <trkpt lat="43.80005" lon="7.37175">
        <ele>363.51574707031</ele>
        <time>2012-05-26T15:05:45Z</time>
      </trkpt>
      <trkpt lat="43.80007" lon="7.37182">
        <ele>366.88024902344</ele>
        <time>2012-05-26T15:05:59Z</time>
      </trkpt>
      <trkpt lat="43.80016" lon="7.37186">
        <ele>369.76428222656</ele>
        <time>2012-05-26T15:06:15Z</time>
      </trkpt>
      <trkpt lat="43.80018" lon="7.37191">
        <ele>372.16748046875</ele>
        <time>2012-05-26T15:06:24Z</time>
      </trkpt>
      <trkpt lat="43.80021" lon="7.37198">
        <ele>374.57080078125</ele>
        <time>2012-05-26T15:06:31Z</time>
      </trkpt>
      <trkpt lat="43.80022" lon="7.37205">
        <ele>377.93542480469</ele>
        <time>2012-05-26T15:06:39Z</time>
      </trkpt>
      <trkpt lat="43.80035" lon="7.37211">
        <ele>380.81945800781</ele>
        <time>2012-05-26T15:06:55Z</time>
      </trkpt>
      <trkpt lat="43.80036" lon="7.37211">
        <ele>380.81945800781</ele>
        <time>2012-05-26T15:06:56Z</time>
      </trkpt>
      <trkpt lat="43.8005" lon="7.37216">
        <ele>382.74206542969</ele>
        <time>2012-05-26T15:07:11Z</time>
      </trkpt>
      <trkpt lat="43.80052" lon="7.37218">
        <ele>385.6259765625</ele>
        <time>2012-05-26T15:07:21Z</time>
      </trkpt>
      <trkpt lat="43.80058" lon="7.37224">
        <ele>388.51000976562</ele>
        <time>2012-05-26T15:07:34Z</time>
      </trkpt>
      <trkpt lat="43.80052" lon="7.37233">
        <ele>391.39379882812</ele>
        <time>2012-05-26T15:07:46Z</time>
      </trkpt>
      <trkpt lat="43.80049" lon="7.37237">
        <ele>392.35534667969</ele>
        <time>2012-05-26T15:07:52Z</time>
      </trkpt>
      <trkpt lat="43.80044" lon="7.37249">
        <ele>395.23913574219</ele>
        <time>2012-05-26T15:08:05Z</time>
      </trkpt>
      <trkpt lat="43.80041" lon="7.37262">
        <ele>397.16174316406</ele>
        <time>2012-05-26T15:08:17Z</time>
      </trkpt>
      <trkpt lat="43.80043" lon="7.37268">
        <ele>400.0458984375</ele>
        <time>2012-05-26T15:08:28Z</time>
      </trkpt>
      <trkpt lat="43.80045" lon="7.37271">
        <ele>403.89111328125</ele>
        <time>2012-05-26T15:08:39Z</time>
      </trkpt>
      <trkpt lat="43.80054" lon="7.37272">
        <ele>404.85229492188</ele>
        <time>2012-05-26T15:08:48Z</time>
      </trkpt>
      <trkpt lat="43.80061" lon="7.37287">
        <ele>407.736328125</ele>
        <time>2012-05-26T15:09:05Z</time>
      </trkpt>
      <trkpt lat="43.80062" lon="7.37297">
        <ele>411.10095214844</ele>
        <time>2012-05-26T15:09:19Z</time>
      </trkpt>
      <trkpt lat="43.80071" lon="7.37301">
        <ele>414.46545410156</ele>
        <time>2012-05-26T15:09:33Z</time>
      </trkpt>
      <trkpt lat="43.8008" lon="7.37303">
        <ele>417.83020019531</ele>
        <time>2012-05-26T15:09:48Z</time>
      </trkpt>
      <trkpt lat="43.80081" lon="7.37304">
        <ele>418.31079101562</ele>
        <time>2012-05-26T15:09:49Z</time>
      </trkpt>
      <trkpt lat="43.80089" lon="7.37307">
        <ele>420.2333984375</ele>
        <time>2012-05-26T15:10:04Z</time>
      </trkpt>
      <trkpt lat="43.801" lon="7.37311">
        <ele>423.59802246094</ele>
        <time>2012-05-26T15:10:19Z</time>
      </trkpt>
      <trkpt lat="43.80111" lon="7.37312">
        <ele>426.96276855469</ele>
        <time>2012-05-26T15:10:33Z</time>
      </trkpt>
      <trkpt lat="43.8012" lon="7.37316">
        <ele>429.84655761719</ele>
        <time>2012-05-26T15:10:49Z</time>
      </trkpt>
      <trkpt lat="43.80131" lon="7.37318">
        <ele>433.21130371094</ele>
        <time>2012-05-26T15:11:03Z</time>
      </trkpt>
      <trkpt lat="43.80141" lon="7.3732">
        <ele>435.13391113281</ele>
        <time>2012-05-26T15:11:15Z</time>
      </trkpt>
      <trkpt lat="43.80145" lon="7.37329">
        <ele>437.537109375</ele>
        <time>2012-05-26T15:11:25Z</time>
      </trkpt>
      <trkpt lat="43.80151" lon="7.37334">
        <ele>438.97912597656</ele>
        <time>2012-05-26T15:11:31Z</time>
      </trkpt>
      <trkpt lat="43.80162" lon="7.37339">
        <ele>442.34387207031</ele>
        <time>2012-05-26T15:11:44Z</time>
      </trkpt>
      <trkpt lat="43.8017" lon="7.37348">
        <ele>444.26647949219</ele>
        <time>2012-05-26T15:11:58Z</time>
      </trkpt>
      <trkpt lat="43.80172" lon="7.37345">
        <ele>444.7470703125</ele>
        <time>2012-05-26T15:12:01Z</time>
      </trkpt>
      <trkpt lat="43.80178" lon="7.37343">
        <ele>445.22766113281</ele>
        <time>2012-05-26T15:12:06Z</time>
      </trkpt>
      <trkpt lat="43.80183" lon="7.37344">
        <ele>444.7470703125</ele>
        <time>2012-05-26T15:12:10Z</time>
      </trkpt>
      <trkpt lat="43.80196" lon="7.37349">
        <ele>446.18908691406</ele>
        <time>2012-05-26T15:12:22Z</time>
      </trkpt>
      <trkpt lat="43.80209" lon="7.37361">
        <ele>448.59240722656</ele>
        <time>2012-05-26T15:12:36Z</time>
      </trkpt>
      <trkpt lat="43.8022" lon="7.37367">
        <ele>451.47631835938</ele>
        <time>2012-05-26T15:12:49Z</time>
      </trkpt>
      <trkpt lat="43.8022" lon="7.37371">
        <ele>454.8408203125</ele>
        <time>2012-05-26T15:13:12Z</time>
      </trkpt>
      <trkpt lat="43.80219" lon="7.37371">
        <ele>455.32153320312</ele>
        <time>2012-05-26T15:13:14Z</time>
      </trkpt>
      <trkpt lat="43.80212" lon="7.37387">
        <ele>459.16687011719</ele>
        <time>2012-05-26T15:13:31Z</time>
      </trkpt>
      <trkpt lat="43.80216" lon="7.37402">
        <ele>462.53137207031</ele>
        <time>2012-05-26T15:13:47Z</time>
      </trkpt>
      <trkpt lat="43.80219" lon="7.37403">
        <ele>463.49279785156</ele>
        <time>2012-05-26T15:13:51Z</time>
      </trkpt>
      <trkpt lat="43.80227" lon="7.37404">
        <ele>465.89611816406</ele>
        <time>2012-05-26T15:13:58Z</time>
      </trkpt>
      <trkpt lat="43.80225" lon="7.37414">
        <ele>468.78002929688</ele>
        <time>2012-05-26T15:14:12Z</time>
      </trkpt>
      <trkpt lat="43.80224" lon="7.37424">
        <ele>472.14465332031</ele>
        <time>2012-05-26T15:14:27Z</time>
      </trkpt>
      <trkpt lat="43.80235" lon="7.37426">
        <ele>475.50927734375</ele>
        <time>2012-05-26T15:14:40Z</time>
      </trkpt>
      <trkpt lat="43.80244" lon="7.37419">
        <ele>477.91247558594</ele>
        <time>2012-05-26T15:14:52Z</time>
      </trkpt>
      <trkpt lat="43.80249" lon="7.37423">
        <ele>481.27722167969</ele>
        <time>2012-05-26T15:15:04Z</time>
      </trkpt>
      <trkpt lat="43.80257" lon="7.37434">
        <ele>484.1611328125</ele>
        <time>2012-05-26T15:15:18Z</time>
      </trkpt>
      <trkpt lat="43.8026" lon="7.37433">
        <ele>485.12243652344</ele>
        <time>2012-05-26T15:15:24Z</time>
      </trkpt>
      <trkpt lat="43.80274" lon="7.37418">
        <ele>486.564453125</ele>
        <time>2012-05-26T15:15:39Z</time>
      </trkpt>
      <trkpt lat="43.80281" lon="7.37418">
        <ele>487.52563476562</ele>
        <time>2012-05-26T15:15:46Z</time>
      </trkpt>
      <trkpt lat="43.80295" lon="7.37419">
        <ele>488.48718261719</ele>
        <time>2012-05-26T15:15:58Z</time>
      </trkpt>
      <trkpt lat="43.80305" lon="7.37414">
        <ele>489.92907714844</ele>
        <time>2012-05-26T15:16:04Z</time>
      </trkpt>
      <trkpt lat="43.80311" lon="7.37409">
        <ele>489.44836425781</ele>
        <time>2012-05-26T15:16:07Z</time>
      </trkpt>
      <trkpt lat="43.80314" lon="7.37403">
        <ele>489.92907714844</ele>
        <time>2012-05-26T15:16:10Z</time>
      </trkpt>
      <trkpt lat="43.80334" lon="7.37383">
        <ele>492.81298828125</ele>
        <time>2012-05-26T15:16:26Z</time>
      </trkpt>
      <trkpt lat="43.80342" lon="7.37368">
        <ele>493.77429199219</ele>
        <time>2012-05-26T15:16:44Z</time>
      </trkpt>
      <trkpt lat="43.8035" lon="7.37349">
        <ele>492.33239746094</ele>
        <time>2012-05-26T15:16:54Z</time>
      </trkpt>
      <trkpt lat="43.80358" lon="7.37339">
        <ele>491.37097167969</ele>
        <time>2012-05-26T15:17:02Z</time>
      </trkpt>
      <trkpt lat="43.80366" lon="7.37336">
        <ele>491.37097167969</ele>
        <time>2012-05-26T15:17:06Z</time>
      </trkpt>
      <trkpt lat="43.80377" lon="7.37336">
        <ele>491.37097167969</ele>
        <time>2012-05-26T15:17:10Z</time>
      </trkpt>
      <trkpt lat="43.80383" lon="7.37333">
        <ele>490.89038085938</ele>
        <time>2012-05-26T15:17:13Z</time>
      </trkpt>
      <trkpt lat="43.8039" lon="7.37326">
        <ele>490.40979003906</ele>
        <time>2012-05-26T15:17:17Z</time>
      </trkpt>
      <trkpt lat="43.8042" lon="7.37309">
        <ele>488.48718261719</ele>
        <time>2012-05-26T15:17:30Z</time>
      </trkpt>
      <trkpt lat="43.80427" lon="7.37302">
        <ele>488.9677734375</ele>
        <time>2012-05-26T15:17:37Z</time>
      </trkpt>
      <trkpt lat="43.80429" lon="7.37298">
        <ele>488.48718261719</ele>
        <time>2012-05-26T15:17:39Z</time>
      </trkpt>
      <trkpt lat="43.80435" lon="7.37292">
        <ele>488.48718261719</ele>
        <time>2012-05-26T15:17:42Z</time>
      </trkpt>
      <trkpt lat="43.80443" lon="7.37288">
        <ele>487.04504394531</ele>
        <time>2012-05-26T15:17:46Z</time>
      </trkpt>
      <trkpt lat="43.80452" lon="7.37283">
        <ele>488.9677734375</ele>
        <time>2012-05-26T15:17:57Z</time>
      </trkpt>
      <trkpt lat="43.8047" lon="7.37262">
        <ele>486.08374023438</ele>
        <time>2012-05-26T15:18:07Z</time>
      </trkpt>
      <trkpt lat="43.80477" lon="7.3726">
        <ele>486.08374023438</ele>
        <time>2012-05-26T15:18:10Z</time>
      </trkpt>
      <trkpt lat="43.80485" lon="7.3725">
        <ele>484.64184570312</ele>
        <time>2012-05-26T15:18:16Z</time>
      </trkpt>
      <trkpt lat="43.80501" lon="7.37233">
        <ele>483.19982910156</ele>
        <time>2012-05-26T15:18:24Z</time>
      </trkpt>
      <trkpt lat="43.8051" lon="7.37225">
        <ele>483.19982910156</ele>
        <time>2012-05-26T15:18:31Z</time>
      </trkpt>
      <trkpt lat="43.80516" lon="7.37226">
        <ele>484.1611328125</ele>
        <time>2012-05-26T15:18:34Z</time>
      </trkpt>
      <trkpt lat="43.80527" lon="7.37219">
        <ele>484.64184570312</ele>
        <time>2012-05-26T15:18:38Z</time>
      </trkpt>
      <trkpt lat="43.80541" lon="7.37215">
        <ele>483.68041992188</ele>
        <time>2012-05-26T15:18:45Z</time>
      </trkpt>
      <trkpt lat="43.80544" lon="7.37217">
        <ele>483.68041992188</ele>
        <time>2012-05-26T15:18:47Z</time>
      </trkpt>
      <trkpt lat="43.80556" lon="7.37221">
        <ele>483.68041992188</ele>
        <time>2012-05-26T15:18:56Z</time>
      </trkpt>
      <trkpt lat="43.80557" lon="7.37223">
        <ele>483.68041992188</ele>
        <time>2012-05-26T15:18:57Z</time>
      </trkpt>
      <trkpt lat="43.80583" lon="7.37221">
        <ele>483.68041992188</ele>
        <time>2012-05-26T15:19:05Z</time>
      </trkpt>
      <trkpt lat="43.80599" lon="7.37214">
        <ele>483.68041992188</ele>
        <time>2012-05-26T15:19:13Z</time>
      </trkpt>
      <trkpt lat="43.80603" lon="7.37211">
        <ele>484.1611328125</ele>
        <time>2012-05-26T15:19:16Z</time>
      </trkpt>
      <trkpt lat="43.80608" lon="7.37207">
        <ele>483.19982910156</ele>
        <time>2012-05-26T15:19:20Z</time>
      </trkpt>
      <trkpt lat="43.80617" lon="7.37202">
        <ele>483.68041992188</ele>
        <time>2012-05-26T15:19:25Z</time>
      </trkpt>
      <trkpt lat="43.80642" lon="7.37183">
        <ele>482.23852539062</ele>
        <time>2012-05-26T15:19:36Z</time>
      </trkpt>
      <trkpt lat="43.80655" lon="7.37166">
        <ele>482.23852539062</ele>
        <time>2012-05-26T15:19:43Z</time>
      </trkpt>
      <trkpt lat="43.80662" lon="7.37159">
        <ele>482.23852539062</ele>
        <time>2012-05-26T15:19:47Z</time>
      </trkpt>
      <trkpt lat="43.80679" lon="7.37146">
        <ele>483.19982910156</ele>
        <time>2012-05-26T15:19:59Z</time>
      </trkpt>
      <trkpt lat="43.80689" lon="7.37134">
        <ele>486.08374023438</ele>
        <time>2012-05-26T15:20:12Z</time>
      </trkpt>
      <trkpt lat="43.80697" lon="7.37124">
        <ele>487.52563476562</ele>
        <time>2012-05-26T15:20:20Z</time>
      </trkpt>
      <trkpt lat="43.80701" lon="7.37119">
        <ele>488.00646972656</ele>
        <time>2012-05-26T15:20:23Z</time>
      </trkpt>
      <trkpt lat="43.80716" lon="7.37106">
        <ele>491.37097167969</ele>
        <time>2012-05-26T15:20:39Z</time>
      </trkpt>
      <trkpt lat="43.80721" lon="7.37102">
        <ele>491.37097167969</ele>
        <time>2012-05-26T15:20:43Z</time>
      </trkpt>
      <trkpt lat="43.80725" lon="7.37099">
        <ele>492.33239746094</ele>
        <time>2012-05-26T15:20:47Z</time>
      </trkpt>
      <trkpt lat="43.80744" lon="7.37087">
        <ele>494.73559570312</ele>
        <time>2012-05-26T15:21:03Z</time>
      </trkpt>
      <trkpt lat="43.80751" lon="7.37082">
        <ele>496.177734375</ele>
        <time>2012-05-26T15:21:10Z</time>
      </trkpt>
      <trkpt lat="43.80772" lon="7.37081">
        <ele>498.10034179688</ele>
        <time>2012-05-26T15:21:26Z</time>
      </trkpt>
      <trkpt lat="43.80773" lon="7.3708">
        <ele>498.10034179688</ele>
        <time>2012-05-26T15:21:27Z</time>
      </trkpt>
      <trkpt lat="43.80777" lon="7.3708">
        <ele>498.58093261719</ele>
        <time>2012-05-26T15:21:29Z</time>
      </trkpt>
      <trkpt lat="43.80794" lon="7.37082">
        <ele>500.02294921875</ele>
        <time>2012-05-26T15:21:41Z</time>
      </trkpt>
      <trkpt lat="43.80801" lon="7.37079">
        <ele>500.50354003906</ele>
        <time>2012-05-26T15:21:45Z</time>
      </trkpt>
      <trkpt lat="43.80811" lon="7.37079">
        <ele>501.46484375</ele>
        <time>2012-05-26T15:21:51Z</time>
      </trkpt>
      <trkpt lat="43.80828" lon="7.37081">
        <ele>501.94555664062</ele>
        <time>2012-05-26T15:21:58Z</time>
      </trkpt>
      <trkpt lat="43.80855" lon="7.37074">
        <ele>502.42614746094</ele>
        <time>2012-05-26T15:22:08Z</time>
      </trkpt>
      <trkpt lat="43.80877" lon="7.3707">
        <ele>502.90673828125</ele>
        <time>2012-05-26T15:22:17Z</time>
      </trkpt>
      <trkpt lat="43.80887" lon="7.37069">
        <ele>503.8681640625</ele>
        <time>2012-05-26T15:22:24Z</time>
      </trkpt>
      <trkpt lat="43.80889" lon="7.37064">
        <ele>503.8681640625</ele>
        <time>2012-05-26T15:22:27Z</time>
      </trkpt>
      <trkpt lat="43.80917" lon="7.37063">
        <ele>503.8681640625</ele>
        <time>2012-05-26T15:22:37Z</time>
      </trkpt>
      <trkpt lat="43.80941" lon="7.37046">
        <ele>503.38745117188</ele>
        <time>2012-05-26T15:22:49Z</time>
      </trkpt>
      <trkpt lat="43.80949" lon="7.3704">
        <ele>503.8681640625</ele>
        <time>2012-05-26T15:22:53Z</time>
      </trkpt>
      <trkpt lat="43.80962" lon="7.37034">
        <ele>503.38745117188</ele>
        <time>2012-05-26T15:23:00Z</time>
      </trkpt>
      <trkpt lat="43.8097" lon="7.37018">
        <ele>502.90673828125</ele>
        <time>2012-05-26T15:23:10Z</time>
      </trkpt>
      <trkpt lat="43.8097" lon="7.3701">
        <ele>501.94555664062</ele>
        <time>2012-05-26T15:23:14Z</time>
      </trkpt>
      <trkpt lat="43.80969" lon="7.37006">
        <ele>500.98413085938</ele>
        <time>2012-05-26T15:23:16Z</time>
      </trkpt>
      <trkpt lat="43.80969" lon="7.37002">
        <ele>500.50354003906</ele>
        <time>2012-05-26T15:23:18Z</time>
      </trkpt>
      <trkpt lat="43.80967" lon="7.36994">
        <ele>498.10034179688</ele>
        <time>2012-05-26T15:23:22Z</time>
      </trkpt>
      <trkpt lat="43.80961" lon="7.36984">
        <ele>496.65832519531</ele>
        <time>2012-05-26T15:23:27Z</time>
      </trkpt>
      <trkpt lat="43.8095" lon="7.36976">
        <ele>494.25500488281</ele>
        <time>2012-05-26T15:23:32Z</time>
      </trkpt>
      <trkpt lat="43.80943" lon="7.36972">
        <ele>492.81298828125</ele>
        <time>2012-05-26T15:23:35Z</time>
      </trkpt>
      <trkpt lat="43.80935" lon="7.3697">
        <ele>490.89038085938</ele>
        <time>2012-05-26T15:23:39Z</time>
      </trkpt>
      <trkpt lat="43.80933" lon="7.36968">
        <ele>489.92907714844</ele>
        <time>2012-05-26T15:23:40Z</time>
      </trkpt>
      <trkpt lat="43.80932" lon="7.36959">
        <ele>487.52563476562</ele>
        <time>2012-05-26T15:23:46Z</time>
      </trkpt>
      <trkpt lat="43.80937" lon="7.36956">
        <ele>485.12243652344</ele>
        <time>2012-05-26T15:23:49Z</time>
      </trkpt>
      <trkpt lat="43.80953" lon="7.36931">
        <ele>481.7578125</ele>
        <time>2012-05-26T15:23:58Z</time>
      </trkpt>
      <trkpt lat="43.80955" lon="7.36924">
        <ele>480.79663085938</ele>
        <time>2012-05-26T15:24:00Z</time>
      </trkpt>
      <trkpt lat="43.80956" lon="7.36912">
        <ele>478.87390136719</ele>
        <time>2012-05-26T15:24:03Z</time>
      </trkpt>
      <trkpt lat="43.80958" lon="7.36901">
        <ele>477.43188476562</ele>
        <time>2012-05-26T15:24:06Z</time>
      </trkpt>
      <trkpt lat="43.80956" lon="7.36878">
        <ele>474.54797363281</ele>
        <time>2012-05-26T15:24:12Z</time>
      </trkpt>
      <trkpt lat="43.80957" lon="7.36855">
        <ele>471.66394042969</ele>
        <time>2012-05-26T15:24:19Z</time>
      </trkpt>
      <trkpt lat="43.80959" lon="7.36847">
        <ele>469.74133300781</ele>
        <time>2012-05-26T15:24:22Z</time>
      </trkpt>
      <trkpt lat="43.80967" lon="7.36844">
        <ele>467.81872558594</ele>
        <time>2012-05-26T15:24:27Z</time>
      </trkpt>
      <trkpt lat="43.80966" lon="7.36834">
        <ele>465.89611816406</ele>
        <time>2012-05-26T15:24:30Z</time>
      </trkpt>
      <trkpt lat="43.80965" lon="7.36826">
        <ele>465.41552734375</ele>
        <time>2012-05-26T15:24:32Z</time>
      </trkpt>
      <trkpt lat="43.80956" lon="7.36812">
        <ele>462.53137207031</ele>
        <time>2012-05-26T15:24:37Z</time>
      </trkpt>
      <trkpt lat="43.80964" lon="7.368">
        <ele>459.64758300781</ele>
        <time>2012-05-26T15:24:43Z</time>
      </trkpt>
      <trkpt lat="43.80967" lon="7.36792">
        <ele>458.20556640625</ele>
        <time>2012-05-26T15:24:47Z</time>
      </trkpt>
      <trkpt lat="43.80977" lon="7.36764">
        <ele>456.28295898438</ele>
        <time>2012-05-26T15:24:57Z</time>
      </trkpt>
      <trkpt lat="43.80978" lon="7.3676">
        <ele>454.8408203125</ele>
        <time>2012-05-26T15:24:59Z</time>
      </trkpt>
      <trkpt lat="43.80977" lon="7.36746">
        <ele>454.36022949219</ele>
        <time>2012-05-26T15:25:03Z</time>
      </trkpt>
      <trkpt lat="43.80968" lon="7.36736">
        <ele>452.43762207031</ele>
        <time>2012-05-26T15:25:10Z</time>
      </trkpt>
      <trkpt lat="43.80965" lon="7.36728">
        <ele>450.99560546875</ele>
        <time>2012-05-26T15:25:14Z</time>
      </trkpt>
      <trkpt lat="43.80956" lon="7.36718">
        <ele>447.63098144531</ele>
        <time>2012-05-26T15:25:20Z</time>
      </trkpt>
      <trkpt lat="43.80955" lon="7.36717">
        <ele>447.63098144531</ele>
        <time>2012-05-26T15:25:21Z</time>
      </trkpt>
      <trkpt lat="43.80945" lon="7.36709">
        <ele>443.78576660156</ele>
        <time>2012-05-26T15:25:27Z</time>
      </trkpt>
      <trkpt lat="43.80943" lon="7.36708">
        <ele>443.78576660156</ele>
        <time>2012-05-26T15:25:28Z</time>
      </trkpt>
      <trkpt lat="43.80935" lon="7.36699">
        <ele>441.38244628906</ele>
        <time>2012-05-26T15:25:32Z</time>
      </trkpt>
      <trkpt lat="43.80931" lon="7.36694">
        <ele>440.42126464844</ele>
        <time>2012-05-26T15:25:34Z</time>
      </trkpt>
      <trkpt lat="43.80928" lon="7.36685">
        <ele>438.49853515625</ele>
        <time>2012-05-26T15:25:37Z</time>
      </trkpt>
      <trkpt lat="43.8092" lon="7.36665">
        <ele>436.09521484375</ele>
        <time>2012-05-26T15:25:41Z</time>
      </trkpt>
      <trkpt lat="43.80928" lon="7.3665">
        <ele>433.69189453125</ele>
        <time>2012-05-26T15:25:46Z</time>
      </trkpt>
      <trkpt lat="43.80937" lon="7.36631">
        <ele>433.69189453125</ele>
        <time>2012-05-26T15:25:52Z</time>
      </trkpt>
      <trkpt lat="43.80942" lon="7.36615">
        <ele>431.76916503906</ele>
        <time>2012-05-26T15:25:57Z</time>
      </trkpt>
      <trkpt lat="43.80934" lon="7.36608">
        <ele>429.84655761719</ele>
        <time>2012-05-26T15:26:02Z</time>
      </trkpt>
      <trkpt lat="43.80929" lon="7.36606">
        <ele>428.88537597656</ele>
        <time>2012-05-26T15:26:04Z</time>
      </trkpt>
      <trkpt lat="43.8093" lon="7.36597">
        <ele>426.48205566406</ele>
        <time>2012-05-26T15:26:10Z</time>
      </trkpt>
      <trkpt lat="43.80934" lon="7.36592">
        <ele>425.04016113281</ele>
        <time>2012-05-26T15:26:12Z</time>
      </trkpt>
      <trkpt lat="43.80941" lon="7.36585">
        <ele>424.07873535156</ele>
        <time>2012-05-26T15:26:16Z</time>
      </trkpt>
      <trkpt lat="43.80949" lon="7.36574">
        <ele>421.67541503906</ele>
        <time>2012-05-26T15:26:21Z</time>
      </trkpt>
      <trkpt lat="43.8095" lon="7.3657">
        <ele>420.71411132812</ele>
        <time>2012-05-26T15:26:22Z</time>
      </trkpt>
      <trkpt lat="43.80944" lon="7.36563">
        <ele>420.2333984375</ele>
        <time>2012-05-26T15:26:27Z</time>
      </trkpt>
      <trkpt lat="43.80937" lon="7.36564">
        <ele>419.75280761719</ele>
        <time>2012-05-26T15:26:30Z</time>
      </trkpt>
      <trkpt lat="43.80907" lon="7.36581">
        <ele>416.86889648438</ele>
        <time>2012-05-26T15:26:42Z</time>
      </trkpt>
      <trkpt lat="43.80877" lon="7.36604">
        <ele>414.46545410156</ele>
        <time>2012-05-26T15:26:55Z</time>
      </trkpt>
      <trkpt lat="43.80868" lon="7.3663">
        <ele>413.98486328125</ele>
        <time>2012-05-26T15:27:02Z</time>
      </trkpt>
      <trkpt lat="43.80854" lon="7.36662">
        <ele>412.54284667969</ele>
        <time>2012-05-26T15:27:11Z</time>
      </trkpt>
      <trkpt lat="43.80855" lon="7.36673">
        <ele>412.06225585938</ele>
        <time>2012-05-26T15:27:14Z</time>
      </trkpt>
      <trkpt lat="43.80857" lon="7.36696">
        <ele>410.62023925781</ele>
        <time>2012-05-26T15:27:19Z</time>
      </trkpt>
      <trkpt lat="43.80857" lon="7.36711">
        <ele>410.1396484375</ele>
        <time>2012-05-26T15:27:23Z</time>
      </trkpt>
      <trkpt lat="43.80852" lon="7.36739">
        <ele>409.65905761719</ele>
        <time>2012-05-26T15:27:30Z</time>
      </trkpt>
      <trkpt lat="43.80838" lon="7.36747">
        <ele>409.65905761719</ele>
        <time>2012-05-26T15:27:35Z</time>
      </trkpt>
      <trkpt lat="43.80825" lon="7.36756">
        <ele>409.65905761719</ele>
        <time>2012-05-26T15:27:40Z</time>
      </trkpt>
      <trkpt lat="43.80807" lon="7.36772">
        <ele>410.62023925781</ele>
        <time>2012-05-26T15:27:48Z</time>
      </trkpt>
      <trkpt lat="43.80799" lon="7.36777">
        <ele>410.1396484375</ele>
        <time>2012-05-26T15:27:51Z</time>
      </trkpt>
      <trkpt lat="43.80794" lon="7.3678">
        <ele>410.62023925781</ele>
        <time>2012-05-26T15:27:54Z</time>
      </trkpt>
      <trkpt lat="43.80781" lon="7.36761">
        <ele>410.1396484375</ele>
        <time>2012-05-26T15:28:00Z</time>
      </trkpt>
      <trkpt lat="43.80774" lon="7.36746">
        <ele>410.1396484375</ele>
        <time>2012-05-26T15:28:04Z</time>
      </trkpt>
      <trkpt lat="43.80767" lon="7.36735">
        <ele>409.17834472656</ele>
        <time>2012-05-26T15:28:08Z</time>
      </trkpt>
      <trkpt lat="43.80758" lon="7.36727">
        <ele>409.17834472656</ele>
        <time>2012-05-26T15:28:12Z</time>
      </trkpt>
      <trkpt lat="43.8075" lon="7.36727">
        <ele>409.17834472656</ele>
        <time>2012-05-26T15:28:15Z</time>
      </trkpt>
      <trkpt lat="43.80734" lon="7.36727">
        <ele>408.69763183594</ele>
        <time>2012-05-26T15:28:21Z</time>
      </trkpt>
      <trkpt lat="43.80725" lon="7.36731">
        <ele>407.736328125</ele>
        <time>2012-05-26T15:28:25Z</time>
      </trkpt>
      <trkpt lat="43.80707" lon="7.36742">
        <ele>407.25561523438</ele>
        <time>2012-05-26T15:28:33Z</time>
      </trkpt>
      <trkpt lat="43.80702" lon="7.36744">
        <ele>407.25561523438</ele>
        <time>2012-05-26T15:28:35Z</time>
      </trkpt>
      <trkpt lat="43.80692" lon="7.36768">
        <ele>407.25561523438</ele>
        <time>2012-05-26T15:28:43Z</time>
      </trkpt>
      <trkpt lat="43.80677" lon="7.36778">
        <ele>407.25561523438</ele>
        <time>2012-05-26T15:28:50Z</time>
      </trkpt>
      <trkpt lat="43.80669" lon="7.36774">
        <ele>406.77490234375</ele>
        <time>2012-05-26T15:28:53Z</time>
      </trkpt>
      <trkpt lat="43.80648" lon="7.36787">
        <ele>404.85229492188</ele>
        <time>2012-05-26T15:29:05Z</time>
      </trkpt>
      <trkpt lat="43.80645" lon="7.3679">
        <ele>404.37170410156</ele>
        <time>2012-05-26T15:29:21Z</time>
      </trkpt>
      <trkpt lat="43.80632" lon="7.36799">
        <ele>404.37170410156</ele>
        <time>2012-05-26T15:29:23Z</time>
      </trkpt>
      <trkpt lat="43.80613" lon="7.36809">
        <ele>403.89111328125</ele>
        <time>2012-05-26T15:29:33Z</time>
      </trkpt>
      <trkpt lat="43.80608" lon="7.3681">
        <ele>403.89111328125</ele>
        <time>2012-05-26T15:29:35Z</time>
      </trkpt>
      <trkpt lat="43.80599" lon="7.36809">
        <ele>403.41040039062</ele>
        <time>2012-05-26T15:29:38Z</time>
      </trkpt>
      <trkpt lat="43.80601" lon="7.36802">
        <ele>401.48779296875</ele>
        <time>2012-05-26T15:29:42Z</time>
      </trkpt>
      <trkpt lat="43.80602" lon="7.36801">
        <ele>400.0458984375</ele>
        <time>2012-05-26T15:29:43Z</time>
      </trkpt>
      <trkpt lat="43.80601" lon="7.36794">
        <ele>399.08435058594</ele>
        <time>2012-05-26T15:29:45Z</time>
      </trkpt>
      <trkpt lat="43.80597" lon="7.3679">
        <ele>398.12316894531</ele>
        <time>2012-05-26T15:29:47Z</time>
      </trkpt>
      <trkpt lat="43.8059" lon="7.36788">
        <ele>395.71984863281</ele>
        <time>2012-05-26T15:29:50Z</time>
      </trkpt>
      <trkpt lat="43.80587" lon="7.36789">
        <ele>393.31652832031</ele>
        <time>2012-05-26T15:29:54Z</time>
      </trkpt>
      <trkpt lat="43.80583" lon="7.36781">
        <ele>391.39379882812</ele>
        <time>2012-05-26T15:29:58Z</time>
      </trkpt>
      <trkpt lat="43.80582" lon="7.36772">
        <ele>388.51000976562</ele>
        <time>2012-05-26T15:30:01Z</time>
      </trkpt>
      <trkpt lat="43.80583" lon="7.3677">
        <ele>387.06799316406</ele>
        <time>2012-05-26T15:30:03Z</time>
      </trkpt>
      <trkpt lat="43.80583" lon="7.36766">
        <ele>385.6259765625</ele>
        <time>2012-05-26T15:30:05Z</time>
      </trkpt>
      <trkpt lat="43.80586" lon="7.36762">
        <ele>383.22265625</ele>
        <time>2012-05-26T15:30:08Z</time>
      </trkpt>
      <trkpt lat="43.80587" lon="7.36752">
        <ele>380.33874511719</ele>
        <time>2012-05-26T15:30:15Z</time>
      </trkpt>
      <trkpt lat="43.80586" lon="7.36749">
        <ele>378.89685058594</ele>
        <time>2012-05-26T15:30:17Z</time>
      </trkpt>
      <trkpt lat="43.80587" lon="7.36748">
        <ele>375.53210449219</ele>
        <time>2012-05-26T15:30:21Z</time>
      </trkpt>
      <trkpt lat="43.80593" lon="7.36746">
        <ele>373.60949707031</ele>
        <time>2012-05-26T15:30:25Z</time>
      </trkpt>
      <trkpt lat="43.80594" lon="7.3673">
        <ele>372.16748046875</ele>
        <time>2012-05-26T15:30:29Z</time>
      </trkpt>
      <trkpt lat="43.80592" lon="7.36731">
        <ele>367.36096191406</ele>
        <time>2012-05-26T15:30:39Z</time>
      </trkpt>
      <trkpt lat="43.8059" lon="7.36734">
        <ele>365.43835449219</ele>
        <time>2012-05-26T15:30:43Z</time>
      </trkpt>
      <trkpt lat="43.80592" lon="7.36733">
        <ele>364.47692871094</ele>
        <time>2012-05-26T15:30:45Z</time>
      </trkpt>
      <trkpt lat="43.80592" lon="7.36729">
        <ele>363.03503417969</ele>
        <time>2012-05-26T15:30:47Z</time>
      </trkpt>
      <trkpt lat="43.8059" lon="7.36726">
        <ele>361.11242675781</ele>
        <time>2012-05-26T15:30:50Z</time>
      </trkpt>
      <trkpt lat="43.80591" lon="7.3672">
        <ele>359.67041015625</ele>
        <time>2012-05-26T15:30:52Z</time>
      </trkpt>
      <trkpt lat="43.80592" lon="7.36715">
        <ele>358.708984375</ele>
        <time>2012-05-26T15:30:54Z</time>
      </trkpt>
      <trkpt lat="43.80592" lon="7.36711">
        <ele>357.26708984375</ele>
        <time>2012-05-26T15:30:56Z</time>
      </trkpt>
      <trkpt lat="43.80589" lon="7.3671">
        <ele>355.34448242188</ele>
        <time>2012-05-26T15:30:59Z</time>
      </trkpt>
      <trkpt lat="43.80579" lon="7.36691">
        <ele>351.01843261719</ele>
        <time>2012-05-26T15:31:05Z</time>
      </trkpt>
      <trkpt lat="43.80581" lon="7.36689">
        <ele>351.01843261719</ele>
        <time>2012-05-26T15:31:06Z</time>
      </trkpt>
      <trkpt lat="43.80583" lon="7.36685">
        <ele>350.05725097656</ele>
        <time>2012-05-26T15:31:08Z</time>
      </trkpt>
      <trkpt lat="43.80585" lon="7.36673">
        <ele>349.09582519531</ele>
        <time>2012-05-26T15:31:12Z</time>
      </trkpt>
      <trkpt lat="43.80573" lon="7.36664">
        <ele>347.65393066406</ele>
        <time>2012-05-26T15:31:17Z</time>
      </trkpt>
      <trkpt lat="43.80567" lon="7.36665">
        <ele>345.73132324219</ele>
        <time>2012-05-26T15:31:19Z</time>
      </trkpt>
      <trkpt lat="43.80567" lon="7.36667">
        <ele>344.28942871094</ele>
        <time>2012-05-26T15:31:20Z</time>
      </trkpt>
      <trkpt lat="43.80567" lon="7.36664">
        <ele>343.32788085938</ele>
        <time>2012-05-26T15:31:22Z</time>
      </trkpt>
      <trkpt lat="43.80569" lon="7.3666">
        <ele>341.88598632812</ele>
        <time>2012-05-26T15:31:24Z</time>
      </trkpt>
      <trkpt lat="43.8057" lon="7.36658">
        <ele>340.92468261719</ele>
        <time>2012-05-26T15:31:25Z</time>
      </trkpt>
      <trkpt lat="43.80567" lon="7.36648">
        <ele>338.521484375</ele>
        <time>2012-05-26T15:31:29Z</time>
      </trkpt>
      <trkpt lat="43.80558" lon="7.36643">
        <ele>335.63732910156</ele>
        <time>2012-05-26T15:31:34Z</time>
      </trkpt>
      <trkpt lat="43.8056" lon="7.36636">
        <ele>333.71472167969</ele>
        <time>2012-05-26T15:31:36Z</time>
      </trkpt>
      <trkpt lat="43.80562" lon="7.36633">
        <ele>332.75354003906</ele>
        <time>2012-05-26T15:31:37Z</time>
      </trkpt>
      <trkpt lat="43.80567" lon="7.36632">
        <ele>331.79211425781</ele>
        <time>2012-05-26T15:31:39Z</time>
      </trkpt>
      <trkpt lat="43.80574" lon="7.36629">
        <ele>329.86950683594</ele>
        <time>2012-05-26T15:31:43Z</time>
      </trkpt>
      <trkpt lat="43.80577" lon="7.36621">
        <ele>328.90832519531</ele>
        <time>2012-05-26T15:31:45Z</time>
      </trkpt>
      <trkpt lat="43.80597" lon="7.36603">
        <ele>324.58227539062</ele>
        <time>2012-05-26T15:31:53Z</time>
      </trkpt>
      <trkpt lat="43.806" lon="7.366">
        <ele>324.58227539062</ele>
        <time>2012-05-26T15:31:54Z</time>
      </trkpt>
      <trkpt lat="43.80604" lon="7.36591">
        <ele>322.65966796875</ele>
        <time>2012-05-26T15:31:56Z</time>
      </trkpt>
      <trkpt lat="43.80625" lon="7.36574">
        <ele>321.69836425781</ele>
        <time>2012-05-26T15:32:04Z</time>
      </trkpt>
      <trkpt lat="43.80631" lon="7.36572">
        <ele>321.69836425781</ele>
        <time>2012-05-26T15:32:06Z</time>
      </trkpt>
      <trkpt lat="43.80636" lon="7.36554">
        <ele>320.73706054688</ele>
        <time>2012-05-26T15:32:10Z</time>
      </trkpt>
      <trkpt lat="43.80642" lon="7.36551">
        <ele>319.29504394531</ele>
        <time>2012-05-26T15:32:13Z</time>
      </trkpt>
      <trkpt lat="43.80661" lon="7.36527">
        <ele>316.89172363281</ele>
        <time>2012-05-26T15:32:20Z</time>
      </trkpt>
      <trkpt lat="43.8067" lon="7.36497">
        <ele>314.48840332031</ele>
        <time>2012-05-26T15:32:27Z</time>
      </trkpt>
      <trkpt lat="43.80663" lon="7.36468">
        <ele>310.16247558594</ele>
        <time>2012-05-26T15:32:33Z</time>
      </trkpt>
      <trkpt lat="43.8066" lon="7.36463">
        <ele>310.16247558594</ele>
        <time>2012-05-26T15:32:34Z</time>
      </trkpt>
      <trkpt lat="43.80653" lon="7.36434">
        <ele>307.27856445312</ele>
        <time>2012-05-26T15:32:41Z</time>
      </trkpt>
      <trkpt lat="43.8064" lon="7.36395">
        <ele>304.39465332031</ele>
        <time>2012-05-26T15:32:51Z</time>
      </trkpt>
      <trkpt lat="43.8064" lon="7.36378">
        <ele>305.83666992188</ele>
        <time>2012-05-26T15:33:00Z</time>
      </trkpt>
      <trkpt lat="43.80642" lon="7.3638">
        <ele>305.35595703125</ele>
        <time>2012-05-26T15:33:02Z</time>
      </trkpt>
      <trkpt lat="43.80657" lon="7.36363">
        <ele>304.87524414062</ele>
        <time>2012-05-26T15:33:05Z</time>
      </trkpt>
      <trkpt lat="43.80658" lon="7.36361">
        <ele>302.47192382812</ele>
        <time>2012-05-26T15:33:10Z</time>
      </trkpt>
      <trkpt lat="43.8066" lon="7.36356">
        <ele>300.06872558594</ele>
        <time>2012-05-26T15:33:15Z</time>
      </trkpt>
      <trkpt lat="43.8068" lon="7.36354">
        <ele>298.62670898438</ele>
        <time>2012-05-26T15:33:18Z</time>
      </trkpt>
      <trkpt lat="43.8068" lon="7.36354">
        <ele>298.62670898438</ele>
        <time>2012-05-26T15:33:19Z</time>
      </trkpt>
      <trkpt lat="43.8068" lon="7.36354">
        <ele>297.18469238281</ele>
        <time>2012-05-26T15:33:22Z</time>
      </trkpt>
      <trkpt lat="43.80667" lon="7.36327">
        <ele>295.74267578125</ele>
        <time>2012-05-26T15:33:25Z</time>
      </trkpt>
      <trkpt lat="43.80664" lon="7.3632">
        <ele>295.74267578125</ele>
        <time>2012-05-26T15:33:27Z</time>
      </trkpt>
      <trkpt lat="43.80661" lon="7.36305">
        <ele>295.26196289062</ele>
        <time>2012-05-26T15:33:31Z</time>
      </trkpt>
      <trkpt lat="43.80661" lon="7.36305">
        <ele>293.82006835938</ele>
        <time>2012-05-26T15:33:34Z</time>
      </trkpt>
      <trkpt lat="43.80663" lon="7.36348">
        <ele>292.37817382812</ele>
        <time>2012-05-26T15:33:36Z</time>
      </trkpt>
      <trkpt lat="43.80663" lon="7.36348">
        <ele>291.41674804688</ele>
        <time>2012-05-26T15:33:37Z</time>
      </trkpt>
      <trkpt lat="43.8064" lon="7.3632">
        <ele>289.01354980469</ele>
        <time>2012-05-26T15:33:41Z</time>
      </trkpt>
      <trkpt lat="43.80661" lon="7.36305">
        <ele>287.57141113281</ele>
        <time>2012-05-26T15:33:44Z</time>
      </trkpt>
      <trkpt lat="43.80661" lon="7.36305">
        <ele>283.72619628906</ele>
        <time>2012-05-26T15:33:49Z</time>
      </trkpt>
      <trkpt lat="43.80715" lon="7.36206">
        <ele>283.72619628906</ele>
        <time>2012-05-26T15:33:50Z</time>
      </trkpt>
      <trkpt lat="43.80715" lon="7.36206">
        <ele>282.76501464844</ele>
        <time>2012-05-26T15:33:51Z</time>
      </trkpt>
      <trkpt lat="43.80715" lon="7.36206">
        <ele>280.36169433594</ele>
        <time>2012-05-26T15:33:55Z</time>
      </trkpt>
      <trkpt lat="43.80687" lon="7.36191">
        <ele>278.91967773438</ele>
        <time>2012-05-26T15:33:57Z</time>
      </trkpt>
      <trkpt lat="43.80684" lon="7.36193">
        <ele>278.43896484375</ele>
        <time>2012-05-26T15:33:59Z</time>
      </trkpt>
      <trkpt lat="43.80667" lon="7.36202">
        <ele>281.80358886719</ele>
        <time>2012-05-26T15:34:08Z</time>
      </trkpt>
      <trkpt lat="43.80665" lon="7.36205">
        <ele>281.80358886719</ele>
        <time>2012-05-26T15:34:09Z</time>
      </trkpt>
      <trkpt lat="43.80643" lon="7.36229">
        <ele>283.24560546875</ele>
        <time>2012-05-26T15:34:19Z</time>
      </trkpt>
      <trkpt lat="43.80637" lon="7.36236">
        <ele>283.24560546875</ele>
        <time>2012-05-26T15:34:22Z</time>
      </trkpt>
      <trkpt lat="43.80582" lon="7.36226">
        <ele>284.20690917969</ele>
        <time>2012-05-26T15:34:25Z</time>
      </trkpt>
      <trkpt lat="43.80601" lon="7.36238">
        <ele>285.16821289062</ele>
        <time>2012-05-26T15:34:32Z</time>
      </trkpt>
      <trkpt lat="43.80582" lon="7.36226">
        <ele>286.61022949219</ele>
        <time>2012-05-26T15:34:42Z</time>
      </trkpt>
      <trkpt lat="43.80582" lon="7.36226">
        <ele>287.0908203125</ele>
        <time>2012-05-26T15:34:51Z</time>
      </trkpt>
      <trkpt lat="43.80582" lon="7.36226">
        <ele>286.61022949219</ele>
        <time>2012-05-26T15:35:06Z</time>
      </trkpt>
      <trkpt lat="43.80582" lon="7.36226">
        <ele>286.61022949219</ele>
        <time>2012-05-26T15:35:28Z</time>
      </trkpt>
    </trkseg>
  </trk>
</gpx>